[[{"header":{"parameterUnit":"m.s-1","parameterCategory":1,"la1":30.6,"la2":29.2853,"lo1":-89.7004,"lo2":-87.6739,"dy":0.0162,"dx":0.0183,"nx":112,"ny":82,"refTime":"2025-04-15T06:00:00:Z","depth":0,"parameterNumber":2,"parameterNumberName":"U-component_of_WINDS"},"data":[0.0,0.0,0.0,0.0,0.0,0.0,0.0,0.0,0.0,0.0,0.0,0.0,0.0,0.0,0.0,0.0,0.0,0.0,0.0,0.0,0.0,0.0,0.0,0.0,0.0,0.0,0.0,0.0,0.0,0.0,0.0,0.0,0.0,0.0,0.0,0.0,0.0,0.0,0.0,0.0,0.0,0.0,0.0,0.0,0.0,0.0,0.0,0.0,0.0,0.0,0.0,0.0,0.0,0.0,0.0,0.0,0.0,0.0,0.0,0.0,0.0,0.0,0.0,0.0,0.0,0.0,0.0,0.0,0.0,0.0,0.0,0.0,0.0,0.0,0.0,0.0,0.0,0.0,0.0,0.0,0.0,0.0,0.0,0.0,0.0,0.0,0.0,0.0,0.0,0.0,0.0,3.9394,4.3613,4.5996,4.5254,4.4824,4.2246,3.6758,0.0,0.0,0.0,0.0,0.0,0.0,0.0,0.0,0.0,0.0,0.0,0.0,0.0,0.0,0.0,0.0,0.0,0.0,0.0,0.0,0.0,0.0,0.0,0.0,0.0,0.0,0.0,0.0,0.0,0.0,0.0,0.0,0.0,0.0,0.0,0.0,0.0,0.0,0.0,0.0,0.0,0.0,0.0,0.0,0.0,0.0,0.0,0.0,0.0,0.0,0.0,0.0,0.0,0.0,0.0,0.0,0.0,0.0,0.0,0.0,0.0,0.0,0.0,0.0,0.0,0.0,0.0,0.0,0.0,0.0,0.0,0.0,0.0,0.0,0.0,0.0,0.0,0.0,0.0,0.0,0.0,0.0,0.0,0.0,0.0,0.0,0.0,0.0,0.0,0.0,0.0,0.0,0.0,0.0,0.0,0.0,0.0,0.0,0.0,0.0,0.0,0.0,0.0,0.0,3.738,4.3398,4.5391,4.625,4.6113,4.4062,4.1484,3.8398,0.0,0.0,0.0,0.0,0.0,0.0,0.0,0.0,0.0,0.0,0.0,0.0,0.0,0.0,0.0,0.0,0.0,0.0,0.0,0.0,0.0,0.0,0.0,0.0,0.0,0.0,0.0,0.0,0.0,0.0,0.0,0.0,0.0,0.0,0.0,0.0,0.0,0.0,0.0,0.0,0.0,0.0,0.0,0.0,0.0,0.0,0.0,0.0,0.0,0.0,0.0,0.0,0.0,0.0,0.0,0.0,0.0,0.0,0.0,0.0,0.0,0.0,0.0,0.0,0.0,0.0,0.0,0.0,0.0,0.0,0.0,0.0,0.0,0.0,0.0,0.0,0.0,0.0,0.0,0.0,0.0,0.0,0.0,0.0,0.0,0.0,0.0,0.0,0.0,0.0,0.0,0.0,0.0,0.0,0.0,0.0,0.0,0.0,0.0,0.0,0.0,0.0,0.0,3.6387,3.9101,4.5078,4.6055,4.6308,4.6308,4.4336,4.1808,3.8747,3.5686,0.0,0.0,0.0,0.0,0.0,0.0,0.0,0.0,0.0,0.0,0.0,0.0,0.0,0.0,0.0,0.0,0.0,0.0,0.0,0.0,0.0,0.0,0.0,0.0,0.0,0.0,0.0,0.0,0.0,0.0,0.0,0.0,0.0,0.0,0.0,0.0,0.0,0.0,0.0,0.0,0.0,0.0,0.0,0.0,0.0,0.0,0.0,0.0,0.0,0.0,0.0,0.0,0.0,0.0,0.0,0.0,0.0,0.0,0.0,0.0,0.0,0.0,0.0,0.0,0.0,0.0,0.0,0.0,0.0,0.0,0.0,0.0,0.0,0.0,0.0,0.0,0.0,0.0,0.0,0.0,0.0,0.0,0.0,0.0,0.0,0.0,0.0,0.0,0.0,0.0,0.0,0.0,0.0,0.0,0.0,0.0,0.0,0.0,0.0,0.0,0.0,0.0,3.9453,4.1465,4.582,4.6308,4.6308,4.6308,4.4141,4.1479,3.8391,3.4619,0.0,0.0,0.0,0.0,0.0,0.0,0.0,0.0,0.0,0.0,0.0,0.0,0.0,0.0,0.0,0.0,0.0,0.0,0.0,0.0,0.0,0.0,0.0,0.0,0.0,0.0,0.0,0.0,0.0,0.0,0.0,0.0,0.0,0.0,0.0,0.0,0.0,0.0,0.0,0.0,0.0,0.0,0.0,0.0,0.0,0.0,0.0,0.0,0.0,0.0,0.0,0.0,0.0,0.0,0.0,0.0,0.0,0.0,0.0,0.0,0.0,0.0,0.0,0.0,0.0,0.0,0.0,0.0,0.0,0.0,0.0,0.0,0.0,0.0,0.0,0.0,0.0,0.0,0.0,0.0,0.0,0.0,0.0,0.0,0.0,0.0,0.0,0.0,0.0,0.0,0.0,0.0,0.0,0.0,0.0,0.0,0.0,0.0,0.0,0.0,0.0,0.0,4.041,4.4101,4.6094,4.6308,4.6308,4.6308,4.2539,3.9334,3.7405,3.2626,0.0,0.0,0.0,0.0,0.0,0.0,0.0,0.0,0.0,0.0,0.0,0.0,0.0,0.0,0.0,0.0,0.0,0.0,0.0,0.0,0.0,0.0,0.0,0.0,0.0,0.0,0.0,0.0,0.0,0.0,0.0,0.0,0.0,0.0,0.0,0.0,0.0,0.0,0.0,0.0,0.0,0.0,0.0,0.0,0.0,0.0,0.0,0.0,0.0,0.0,0.0,0.0,0.0,0.0,0.0,0.0,0.0,0.0,0.0,0.0,0.0,0.0,0.0,0.0,0.0,0.0,0.0,0.0,0.0,0.0,0.0,0.0,0.0,0.0,0.0,0.0,0.0,0.0,0.0,0.0,0.0,0.0,0.0,0.0,0.0,0.0,0.0,0.0,0.0,0.0,0.0,0.0,0.0,0.0,0.0,0.0,0.0,0.0,0.0,0.0,0.0,0.0,3.9121,4.2617,0.0,4.6308,4.6308,4.6308,4.3828,4.0791,3.7365,0.0,0.0,0.0,0.0,0.0,0.0,0.0,0.0,0.0,0.0,0.0,0.0,0.0,0.0,0.0,0.0,0.0,0.0,0.0,0.0,0.0,0.0,0.0,0.0,0.0,0.0,0.0,0.0,0.0,0.0,0.0,0.0,0.0,0.0,0.0,0.0,0.0,0.0,0.0,0.0,0.0,0.0,0.0,0.0,0.0,0.0,0.0,0.0,0.0,0.0,0.0,0.0,0.0,0.0,0.0,0.0,0.0,0.0,0.0,0.0,0.0,0.0,0.0,0.0,0.0,0.0,0.0,0.0,0.0,0.0,0.0,0.0,0.0,0.0,0.0,0.0,0.0,0.0,0.0,0.0,0.0,0.0,0.0,0.0,0.0,0.0,0.0,0.0,0.0,0.0,0.0,0.0,0.0,0.0,0.0,0.0,0.0,0.0,0.0,0.0,0.0,0.0,3.5527,3.8984,4.2441,0.0,4.6308,4.6308,4.6308,4.3711,4.0542,3.6913,0.0,0.0,0.0,0.0,0.0,0.0,0.0,0.0,0.0,0.0,0.0,0.0,0.0,0.0,0.0,0.0,0.0,0.0,0.0,0.0,0.0,0.0,0.0,0.0,0.0,0.0,0.0,0.0,0.0,0.0,0.0,0.0,0.0,0.0,0.0,0.0,0.0,0.0,0.0,0.0,0.0,0.0,0.0,0.0,0.0,0.0,0.0,0.0,0.0,0.0,0.0,0.0,0.0,0.0,0.0,0.0,0.0,0.0,0.0,0.0,0.0,0.0,0.0,0.0,0.0,0.0,0.0,0.0,0.0,0.0,0.0,0.0,0.0,0.0,0.0,0.0,0.0,0.0,0.0,0.0,0.0,0.0,0.0,0.0,0.0,0.0,0.0,0.0,0.0,0.0,0.0,0.0,0.0,0.0,0.0,0.0,0.0,0.0,0.0,0.0,0.0,0.0,3.5664,4.0508,4.4375,4.6113,4.6308,4.6308,4.6308,4.1582,3.7826,0.0,0.0,0.0,0.0,0.0,0.0,0.0,0.0,0.0,0.0,0.0,0.0,0.0,0.0,0.0,0.0,0.0,0.0,0.0,0.0,0.0,0.0,0.0,0.0,0.0,0.0,0.0,0.0,0.0,0.0,0.0,0.0,0.0,0.0,0.0,0.0,0.0,0.0,0.0,0.0,0.0,0.0,0.0,0.0,0.0,0.0,0.0,0.0,0.0,0.0,0.0,0.0,0.0,0.0,0.0,0.0,0.0,0.0,0.0,0.0,0.0,0.0,0.0,0.0,0.0,0.0,0.0,0.0,0.0,0.0,0.0,0.0,0.0,0.0,0.0,0.0,0.0,0.0,0.0,0.0,0.0,0.0,0.0,0.0,0.0,0.0,0.0,0.0,0.0,0.0,0.0,0.0,0.0,0.0,0.0,0.0,0.0,0.0,0.0,0.0,0.0,0.0,0.0,3.5664,4.0508,4.4375,4.6113,4.6308,4.6308,4.6308,4.3203,3.9726,3.6108,0.0,0.0,0.0,0.0,0.0,0.0,0.0,0.0,0.0,0.0,0.0,0.0,0.0,0.0,0.0,0.0,0.0,0.0,0.0,0.0,0.0,0.0,0.0,0.0,0.0,0.0,0.0,0.0,0.0,0.0,0.0,0.0,0.0,0.0,0.0,0.0,0.0,0.0,0.0,0.0,0.0,0.0,0.0,0.0,0.0,0.0,0.0,0.0,0.0,0.0,0.0,0.0,0.0,0.0,0.0,0.0,0.0,0.0,0.0,0.0,0.0,0.0,0.0,0.0,0.0,0.0,0.0,0.0,0.0,0.0,0.0,0.0,0.0,0.0,0.0,0.0,0.0,0.0,0.0,0.0,0.0,0.0,0.0,0.0,0.0,0.0,0.0,0.0,0.0,0.0,0.0,0.0,0.0,0.0,0.0,0.0,0.0,0.0,0.0,0.0,0.0,0.0,3.5625,4.0508,4.4375,4.6113,4.6308,4.6308,4.6308,4.3906,4.0684,3.668,0.0,0.0,0.0,0.0,0.0,0.0,0.0,0.0,0.0,0.0,0.0,0.0,0.0,0.0,0.0,0.0,0.0,0.0,0.0,0.0,0.0,0.0,0.0,0.0,0.0,0.0,0.0,0.0,0.0,0.0,0.0,0.0,0.0,0.0,0.0,0.0,0.0,0.0,0.0,0.0,0.0,0.0,0.0,0.0,0.0,0.0,0.0,0.0,0.0,0.0,0.0,0.0,0.0,0.0,0.0,0.0,0.0,0.0,0.0,0.0,0.0,0.0,0.0,0.0,0.0,0.0,0.0,0.0,0.0,0.0,0.0,0.0,0.0,0.0,0.0,0.0,0.0,0.0,0.0,0.0,0.0,0.0,0.0,0.0,0.0,0.0,0.0,0.0,0.0,0.0,0.0,0.0,0.0,0.0,0.0,0.0,0.0,0.0,0.0,0.0,0.0,0.0,3.5566,4.0508,4.4375,4.6113,4.6308,4.6308,4.6308,4.3906,4.0957,3.7539,0.0,0.0,0.0,0.0,0.0,0.0,0.0,0.0,0.0,0.0,0.0,0.0,0.0,0.0,0.0,0.0,0.0,0.0,0.0,0.0,0.0,0.0,0.0,0.0,0.0,0.0,0.0,0.0,0.0,0.0,0.0,0.0,0.0,0.0,0.0,0.0,0.0,0.0,0.0,0.0,0.0,0.0,0.0,0.0,0.0,0.0,0.0,0.0,0.0,0.0,0.0,0.0,0.0,0.0,0.0,0.0,0.0,0.0,0.0,0.0,2.7574,0.0,0.0,0.0,0.0,0.0,0.0,0.0,0.0,0.0,0.0,0.0,0.0,0.0,0.0,0.0,0.0,0.0,0.0,0.0,0.0,0.0,0.0,0.0,0.0,0.0,0.0,0.0,0.0,0.0,0.0,0.0,0.0,0.0,0.0,0.0,0.0,0.0,0.0,0.0,0.0,0.0,3.5644,4.0508,4.4375,4.6113,4.6308,4.6308,4.6308,4.3906,4.123,3.8476,0.0,0.0,0.0,0.0,0.0,0.0,0.0,0.0,0.0,0.0,0.0,0.0,0.0,0.0,0.0,0.0,0.0,0.0,0.0,0.0,0.0,0.0,0.0,0.0,0.0,0.0,0.0,0.0,0.0,0.0,0.0,0.0,0.0,0.0,0.0,0.0,0.0,0.0,0.0,0.0,0.0,0.0,0.0,0.0,0.0,0.0,0.0,0.0,0.0,0.0,0.0,0.0,0.0,0.0,0.0,0.0,0.0,0.0,0.0,0.0,0.0,2.843,0.0,0.0,0.0,0.0,0.0,0.0,0.0,0.0,0.0,0.0,0.0,0.0,0.0,0.0,0.0,0.0,0.0,0.0,0.0,0.0,0.0,0.0,0.0,0.0,0.0,0.0,0.0,0.0,0.0,0.0,0.0,0.0,0.0,0.0,0.0,0.0,0.0,0.0,0.0,0.0,3.623,4.0762,4.4375,4.6113,4.6308,4.6308,4.6308,4.4668,4.2558,4.0019,3.6152,0.0,0.0,0.0,0.0,0.0,0.0,0.0,0.0,0.0,0.0,0.0,0.0,0.0,0.0,0.0,0.0,0.0,0.0,0.0,0.0,0.0,0.0,0.0,0.0,0.0,0.0,0.0,0.0,0.0,0.0,0.0,0.0,0.0,0.0,0.0,0.0,0.0,0.0,0.0,0.0,0.0,0.0,0.0,0.0,0.0,0.0,0.0,0.0,0.0,0.0,0.0,0.0,0.0,0.0,0.0,3.4246,3.4981,3.5297,3.518,3.301,3.1569,3.0649,0.0,0.0,0.0,0.0,0.0,0.0,0.0,0.0,0.0,0.0,0.0,0.0,0.0,0.0,0.0,0.0,0.0,0.0,0.0,0.0,0.0,0.0,0.0,0.0,0.0,3.3519,3.3525,0.0,0.0,0.0,0.0,0.0,0.0,0.0,0.0,0.0,0.0,0.0,0.0,3.7109,4.1269,4.4531,4.6133,4.6308,4.6308,4.6308,4.5508,4.3965,4.1562,3.8965,3.5723,0.0,0.0,0.0,0.0,0.0,0.0,0.0,0.0,0.0,0.0,0.0,0.0,0.0,0.0,0.0,0.0,0.0,0.0,0.0,0.0,0.0,0.0,0.0,0.0,0.0,0.0,0.0,0.0,0.0,0.0,0.0,0.0,2.5088,2.528,0.0,0.0,0.0,0.0,0.0,0.0,0.0,0.0,0.0,0.0,0.0,0.0,0.0,0.0,3.2391,3.4122,3.5353,3.6051,3.78,3.8916,3.9508,3.9608,3.9681,3.9642,3.901,0.0,3.2166,3.1525,0.0,0.0,0.0,0.0,0.0,0.0,0.0,0.0,0.0,0.0,0.0,0.0,0.0,0.0,0.0,0.0,0.0,0.0,0.0,0.0,0.0,0.0,3.5185,3.5878,3.568,3.5377,0.0,3.2737,2.9658,2.7771,0.0,0.0,0.0,0.0,0.0,0.0,0.0,0.0,3.8086,4.2168,4.5215,4.6191,4.6308,4.6308,4.6308,4.5508,4.4219,4.2363,3.9844,3.7168,3.4316,3.1133,0.0,0.0,0.0,0.0,0.0,0.0,0.0,0.0,0.0,0.0,0.0,0.0,0.0,0.0,0.0,0.0,0.0,0.0,0.0,0.0,0.0,0.0,0.0,0.0,0.0,0.0,0.0,0.0,0.0,2.4681,2.6023,2.5512,2.6965,2.7448,0.0,0.0,0.0,0.0,0.0,0.0,0.0,0.0,0.0,3.2886,3.3967,3.4911,3.5757,3.795,3.9219,3.9585,4.0835,4.1623,4.195,4.1738,4.1608,4.159,4.1105,3.9378,3.6738,3.4714,3.2745,3.0885,0.0,0.0,0.0,0.0,0.0,3.0367,3.2117,0.0,0.0,0.0,0.0,0.0,0.0,0.0,0.0,0.0,0.0,0.0,0.0,0.0,0.0,3.8635,3.9304,3.9608,3.8962,3.7377,3.5158,0.0,3.1527,3.0612,2.7454,0.0,0.0,0.0,0.0,0.0,3.9609,4.291,4.5332,4.6211,4.6308,4.6308,4.6308,4.5957,4.498,4.3242,4.1621,3.957,3.6992,3.4043,3.1654,0.0,0.0,0.0,0.0,0.0,0.0,0.0,0.0,0.0,0.0,0.0,0.0,0.0,0.0,0.0,0.0,0.0,0.0,0.0,0.0,0.0,0.0,0.0,0.0,0.0,0.0,0.0,0.0,2.5757,2.7187,2.6483,2.8387,2.8929,0.0,0.0,0.0,0.0,0.0,0.0,3.2651,3.2913,3.3922,3.5844,3.7194,3.83,3.9144,4.0936,4.1971,4.2201,4.2833,4.3254,4.3465,4.3172,4.3052,4.3012,4.2435,4.1747,4.0734,3.781,3.5539,3.3719,3.247,3.2087,0.0,3.2674,3.2735,3.2839,3.5,3.5551,3.5262,3.4861,0.0,3.4496,3.245,0.0,0.0,0.0,0.0,3.4894,3.6435,0.0,4.0185,4.0973,4.2159,4.2733,4.145,4.1178,3.9908,0.0,3.5366,3.4655,3.1027,0.0,0.0,0.0,0.0,3.8668,4.1328,4.3789,4.5547,4.623,4.6308,4.6308,4.6308,4.6308,4.5644,4.4121,4.3203,4.1699,3.9355,3.6973,3.4785,3.2851,0.0,0.0,0.0,0.0,0.0,0.0,0.0,0.0,0.0,0.0,0.0,0.0,0.0,0.0,0.0,0.0,0.0,0.0,0.0,0.0,0.0,0.0,0.0,0.0,0.0,0.0,0.0,0.0,0.0,2.9109,3.0554,0.0,0.0,0.0,0.0,3.1448,3.2058,3.3593,3.6286,3.7031,3.8621,4.1319,4.1189,4.1473,4.2274,4.2063,4.241,4.3228,4.3265,4.3725,4.4525,4.4507,4.4482,4.4482,4.4071,4.3408,4.2521,4.0511,3.8282,3.6136,3.6036,3.5061,3.378,3.4557,3.4836,3.503,3.6219,3.679,3.7161,3.8251,3.7723,3.6521,3.5699,3.4955,0.0,0.0,3.6876,3.8501,4.0046,4.1155,4.2059,4.2785,4.3037,4.3075,4.2979,4.2967,4.1709,0.0,3.6615,3.6074,3.4241,0.0,0.0,3.6331,3.818,4.0358,4.3121,4.498,4.6113,4.6289,4.6308,4.6308,4.6308,4.6308,4.5918,4.498,4.4121,4.2851,4.1133,3.9355,3.7168,3.4531,3.1877,0.0,0.0,0.0,0.0,0.0,0.0,0.0,0.0,0.0,0.0,0.0,0.0,0.0,0.0,0.0,0.0,0.0,0.0,0.0,0.0,0.0,0.0,0.0,0.0,0.0,0.0,0.0,0.0,3.0913,3.3275,0.0,0.0,3.3026,3.4045,3.4872,3.5643,3.7218,3.9838,4.0213,4.1039,4.2585,4.2814,4.3054,4.3321,4.3558,4.3844,4.4146,4.4145,4.4289,4.4573,4.4329,4.4209,4.4203,4.3845,4.3645,4.3521,4.2834,4.1291,3.9364,3.9058,3.8881,3.8778,3.8554,3.894,3.959,3.9786,4.021,4.0651,4.0735,3.97,3.8377,3.8243,3.7638,3.7285,3.8769,3.961,4.0446,4.2031,4.302,4.3682,4.3936,4.4359,4.4568,4.3993,4.3876,4.3261,4.1231,4.0364,3.9454,3.7766,3.7935,3.8329,3.843,4.0419,4.2437,4.3967,4.5221,4.6016,4.6152,4.6172,4.6211,4.6289,4.6308,4.5683,4.4258,4.3867,4.2949,4.1269,3.9531,3.7891,3.6367,3.3738,3.08,0.0,0.0,0.0,0.0,0.0,0.0,0.0,0.0,0.0,0.0,0.0,0.0,0.0,0.0,0.0,0.0,0.0,0.0,0.0,0.0,0.0,0.0,0.0,0.0,0.0,0.0,3.2645,3.2651,3.5561,3.6796,3.4814,3.618,3.7526,3.8373,3.8969,4.0277,4.2527,4.2643,4.3047,4.3912,4.4033,4.4083,4.4083,4.4165,4.4242,4.4223,4.4242,4.4277,4.4371,4.4112,4.3988,4.3978,4.3767,4.3789,4.3986,4.4016,4.3324,4.2216,4.1588,4.1542,4.1691,4.1177,4.1454,4.2081,4.1987,4.2297,4.2698,4.2351,4.1492,4.063,4.0816,4.0485,4.0273,4.1543,4.2129,4.2578,4.3613,4.4454,4.5028,4.4961,4.5316,4.549,4.4876,4.4741,4.4587,4.4051,4.3011,4.1893,4.0784,4.1014,4.13,4.1034,4.2458,4.3899,4.4818,4.5481,4.5936,4.6072,4.61,4.6152,4.6289,4.6035,4.5371,4.4219,4.3594,4.2637,4.1269,3.9805,3.8496,3.7324,3.4644,3.1965,2.934,0.0,0.0,0.0,0.0,0.0,0.0,0.0,0.0,0.0,0.0,0.0,0.0,0.0,0.0,0.0,0.0,0.0,0.0,0.0,0.0,0.0,0.0,0.0,2.8066,3.1737,3.4381,3.4473,3.7375,3.9065,3.8238,3.9623,4.0931,4.1816,4.1893,4.2604,4.4239,4.4335,4.472,4.5566,4.4947,4.4606,4.458,4.3886,4.3516,4.3516,4.3516,4.3697,4.4007,4.4039,4.4002,4.4021,4.4023,4.4026,4.4033,4.4037,4.4263,4.4556,4.3685,4.2865,4.2195,4.2195,4.2189,4.223,4.2593,4.2921,4.3171,4.3171,4.3152,4.3169,4.3381,4.3428,4.3457,4.3672,4.4355,4.498,4.4863,4.5469,4.6056,4.5863,4.5794,4.5757,4.5624,4.5586,4.5586,4.5586,4.4282,4.3171,4.3171,4.3171,4.3457,4.4224,4.4339,0.0,4.568,4.5796,4.5873,4.6065,4.6079,4.6152,4.6289,4.5508,4.498,4.4961,4.332,4.2012,4.123,4.0332,3.9043,3.7324,3.4642,3.2819,3.1882,0.0,0.0,0.0,0.0,0.0,0.0,0.0,0.0,0.0,0.0,0.0,0.0,0.0,0.0,0.0,0.0,0.0,0.0,0.0,0.0,0.0,0.0,3.1475,3.237,3.4052,3.607,3.8501,4.0165,4.1277,4.1662,4.2104,4.272,4.3547,4.3605,4.4102,4.5182,4.524,4.5336,4.5586,4.5189,4.4868,4.4606,4.4122,4.3879,4.3879,4.3879,4.4062,4.446,4.4429,4.444,4.4433,4.4451,4.4573,4.4783,4.4805,4.501,4.5281,4.4779,4.4478,4.4282,4.4282,4.4288,4.4331,4.4671,4.4837,4.4914,4.4914,4.4474,4.4013,4.4278,4.3908,4.3574,4.4414,4.4824,4.5137,4.5723,4.5996,4.6092,4.6039,4.5906,4.5796,4.5757,4.568,4.5586,4.5586,4.524,4.4914,4.4914,4.4914,4.4991,4.522,0.0,0.0,4.5605,4.5643,4.5738,4.593,4.5942,4.6055,4.6289,4.5508,4.4726,0.0,4.2461,4.1426,4.1211,3.9766,3.8411,3.725,3.5817,3.4596,0.0,0.0,0.0,0.0,0.0,0.0,0.0,0.0,0.0,0.0,0.0,0.0,0.0,0.0,0.0,0.0,0.0,0.0,0.0,0.0,0.0,0.0,3.1648,3.4126,3.607,3.6757,3.7945,4.0219,4.1585,4.2681,4.3525,4.3932,4.4335,4.4797,4.4853,4.5084,4.5566,4.5586,4.5586,4.5586,4.5278,4.494,4.4589,4.4202,4.4007,4.4007,4.4007,4.4281,4.4807,4.4817,4.4818,0.0,4.4819,4.4917,4.5092,4.5091,4.5297,0.0,0.0,0.0,0.0,0.0,4.5316,4.5336,4.5528,4.5586,4.5586,4.5586,4.5297,4.4953,4.5163,4.4899,4.4668,4.5351,4.5547,4.5664,4.6172,4.623,4.6172,4.6113,4.5972,4.5836,4.5806,4.5699,4.5586,4.5586,0.0,0.0,4.5586,4.5586,4.5586,4.5586,4.5586,4.5586,0.0,4.5586,4.568,4.5873,4.5903,4.6016,4.6289,4.5508,0.0,0.0,0.0,4.1933,4.123,3.9531,0.0,0.0,0.0,0.0,0.0,0.0,0.0,0.0,3.4419,3.4274,0.0,0.0,0.0,0.0,0.0,0.0,0.0,0.0,0.0,0.0,0.0,0.0,0.0,0.0,0.0,0.0,3.3987,3.5753,3.8977,3.9515,3.9877,4.07,4.2162,4.3451,4.4369,4.5141,4.5586,4.5586,4.5586,4.5586,4.5586,0.0,0.0,0.0,0.0,4.4991,4.4664,4.4298,4.4099,4.4099,4.4118,4.4508,4.5162,4.517,4.5163,4.5163,4.5163,4.5163,4.5163,4.5163,4.5336,4.5586,4.5586,4.5586,4.5586,4.5586,4.5586,0.0,0.0,0.0,0.0,4.5586,4.5699,4.5813,4.5873,4.5994,4.6133,4.6269,4.6308,4.6308,4.6308,4.6308,4.6269,4.6152,4.6016,4.5874,4.5819,4.5699,4.5586,4.5586,4.5586,4.5586,4.5586,4.5586,4.5586,4.5586,4.5586,0.0,4.5586,4.5586,4.568,4.5873,0.0,0.0,4.6289,4.5508,4.5,4.5,4.418,4.2988,4.1406,3.9941,3.9492,4.0156,4.0083,4.0712,4.2091,4.1992,4.1989,4.1953,3.7175,3.646,0.0,0.0,0.0,0.0,0.0,0.0,0.0,0.0,0.0,0.0,0.0,0.0,0.0,0.0,0.0,3.3695,3.5859,3.7986,3.9983,4.0883,4.1646,4.2486,4.289,4.3682,4.5199,4.5507,4.5586,4.5586,4.5586,4.5586,4.5586,4.5586,0.0,4.5586,4.5528,4.5336,4.501,4.4917,4.4902,4.4884,0.0,0.0,4.551,4.5514,4.549,4.549,4.549,4.549,4.549,4.549,4.5528,4.5586,4.5586,4.5586,4.5586,4.5586,4.5586,4.5586,4.5586,4.5586,4.5586,4.5586,4.5699,4.5812,4.5884,4.5989,0.0,4.6269,4.6308,4.6308,4.6308,4.6308,4.6289,4.6269,4.6074,4.5893,4.5877,4.5738,4.5586,4.5586,4.5586,4.5586,4.5586,4.5586,4.5586,4.5586,4.5586,4.5586,4.5586,4.5586,4.568,4.5873,4.5903,4.6016,4.6289,4.5508,4.5,4.5,4.418,4.3242,4.2207,4.2519,4.2441,4.1855,4.237,4.2458,4.2027,4.2585,4.3181,4.3778,4.2093,4.1289,0.0,0.0,0.0,0.0,0.0,0.0,0.0,0.0,0.0,0.0,0.0,2.8734,3.0355,0.0,3.3849,3.5829,3.764,3.9381,4.1011,4.1632,4.236,4.3554,4.3698,4.4184,4.547,4.5586,4.5586,4.5586,4.5586,4.5586,4.5586,4.5586,4.5586,4.5586,4.5586,4.5432,4.5105,4.5095,4.5104,4.5104,4.5091,4.5278,4.5586,4.5586,4.5586,4.5586,4.5586,4.5586,4.5586,4.5586,4.5586,4.5586,4.5586,4.5586,4.5586,4.5586,4.5586,4.5586,4.5586,4.5586,4.5586,4.5586,4.5719,4.5862,4.589,4.6035,4.6211,4.6289,4.6308,4.6308,4.6308,4.6308,4.6308,4.6308,4.6094,4.5893,4.5896,4.5738,4.5586,4.5586,4.5586,4.5586,4.5586,4.5586,4.5586,4.5586,4.5586,4.5586,4.5586,4.5586,4.568,4.5873,4.5903,4.6016,4.6289,4.5898,4.5644,4.5644,4.4824,4.416,4.3711,4.3691,4.3672,4.3652,4.3908,4.4029,4.3968,4.422,4.4547,4.4932,4.4528,4.4124,0.0,0.0,0.0,0.0,0.0,0.0,0.0,0.0,2.7304,2.8819,2.9754,3.0994,3.3233,3.4416,3.5782,3.7949,3.9307,4.0596,4.2063,4.2256,4.2803,4.4206,4.4333,4.4645,4.5509,4.5586,4.5586,4.5586,4.5586,4.5586,4.5586,4.5586,4.5586,4.5586,4.5586,4.547,4.5201,4.5201,4.5201,4.5201,4.5201,4.5336,4.5586,4.5586,4.5586,4.5586,4.5586,4.5586,4.5586,4.5586,4.5586,4.5586,4.5586,4.5586,4.5586,4.5586,4.5586,4.5586,4.5586,4.5586,4.5586,4.5586,4.5738,4.5901,4.5909,4.6094,4.6308,4.6308,4.6308,4.6308,4.6308,4.6308,4.6308,4.6308,4.6094,4.5893,4.5896,4.5738,4.5586,4.5586,4.5586,4.5586,4.5586,4.5586,4.5586,4.5586,4.5586,4.5586,4.5586,4.5586,4.568,4.5873,4.5903,4.6016,4.6289,4.6465,4.6543,4.6543,4.5898,4.5508,4.5508,4.4668,4.4531,4.5234,4.5039,4.525,4.5911,4.5855,4.5836,4.5855,4.6009,4.599,2.9434,2.8535,2.791,2.6875,2.783,2.939,0.0,0.0,3.1716,3.2614,3.2851,3.3437,3.5247,3.6202,3.7313,3.9138,4.0776,4.2154,4.3112,4.3246,4.3594,4.454,4.4453,4.4645,4.5509,4.5586,4.5586,4.5586,4.5586,4.5586,4.5586,4.5586,4.5586,4.5586,4.5586,4.5566,4.5528,4.5528,4.5528,4.5528,4.5528,4.5547,4.5586,4.5586,4.5586,4.5586,4.5586,4.5586,4.5586,4.5586,4.5586,4.5586,4.5586,4.5586,4.5586,4.5586,4.5586,4.5586,4.5586,4.5586,4.5586,4.5586,4.5738,4.5901,4.5909,4.6094,4.6308,4.6308,4.6308,4.6308,4.6308,4.6308,4.6308,4.6308,4.6094,4.5893,4.5896,4.5738,4.5586,4.5586,4.5586,4.5586,4.5586,4.5586,4.5586,4.5586,4.5586,4.5586,4.5586,4.5586,4.568,4.5873,4.5903,4.6016,4.6289,4.7012,4.7441,4.7441,4.7363,4.7305,4.7305,4.6465,4.6055,4.6152,4.5903,4.5805,4.5911,4.6471,4.6759,4.6778,4.749,4.7451,3.122,3.0056,0.0,0.0,3.0117,3.1289,3.1953,3.2168,3.2578,3.3887,3.4121,3.4785,3.6953,3.7659,3.8455,0.0,4.1013,4.186,4.2644,4.2753,4.3082,4.3968,4.388,4.409,4.4876,4.4953,4.5143,4.5566,4.5586,4.5586,4.5586,4.5586,4.5586,4.5586,4.5586,4.5586,4.5586,4.5586,4.5586,4.5586,4.5586,4.5586,4.5586,4.5586,4.5586,4.5586,4.5586,4.5586,4.5586,4.5586,4.5586,4.5586,4.5586,4.5586,4.5586,4.5586,4.5586,4.5586,4.5586,4.5586,4.5586,4.5586,4.5738,4.5912,4.5901,4.6097,4.6308,4.6308,4.6308,4.6308,4.6308,4.6308,4.6308,4.6308,4.6152,4.5991,4.5916,4.5796,4.5699,4.5605,4.5586,4.5586,4.5586,4.5586,4.5586,4.5586,4.5586,4.5586,4.5586,4.5586,4.5873,4.6575,4.6797,4.7148,4.7754,4.8144,4.8359,4.8359,4.8359,4.8359,4.8359,4.8008,4.7812,4.7812,4.7554,4.7403,4.7412,4.7548,4.7605,4.7605,4.7952,4.8202,3.1792,0.0,0.0,3.1268,3.2168,3.2949,3.3184,3.3242,3.3594,3.4805,3.5059,3.5684,3.7715,3.8379,3.9038,4.0345,4.1097,4.1721,4.2247,4.2319,4.2556,4.3187,4.2992,4.3092,4.3835,4.4261,4.4722,4.5201,4.5451,4.5586,4.5586,4.5586,4.5586,4.5586,4.5586,4.5586,4.5586,4.5586,4.5586,4.5586,4.5586,4.5586,4.5586,4.5586,4.5586,4.5586,4.5586,4.5586,4.5586,4.5586,4.5586,4.5586,4.5586,4.5586,4.5586,4.5586,4.5586,4.5586,4.5586,4.5586,4.5605,4.5624,4.5776,4.5905,4.5932,4.6111,4.6308,4.6308,4.6308,4.6308,4.6308,4.6308,4.6308,4.6308,4.6191,4.6061,4.5986,4.5862,4.5776,4.568,4.5624,4.5586,4.5586,4.5586,4.5586,4.5586,4.5586,4.5586,4.5586,4.5853,4.6364,4.7164,4.7676,4.8203,4.8848,4.9121,4.9258,4.9258,4.9258,4.9258,4.9258,4.9023,4.8906,4.8906,4.8639,4.8496,4.8491,4.8471,4.8471,4.8471,4.8933,4.949,0.0,0.0,3.23,3.3114,3.3984,3.4844,3.5684,3.5879,3.5898,3.5957,3.5957,3.623,3.7168,3.8027,3.8887,3.9785,4.1308,4.2363,4.2382,4.2402,4.2402,4.2421,4.1731,4.156,0.0,4.3662,4.4455,4.4339,4.5124,4.5586,4.5586,4.5586,4.5586,4.5586,4.5586,4.5586,4.5586,4.5586,4.5586,4.5586,4.5586,4.5586,4.5586,4.5586,4.5586,4.5586,4.5586,4.5586,4.5586,4.5586,4.5586,4.5586,4.5586,4.5586,4.5586,4.5586,4.5586,4.5586,4.5586,4.5586,4.5605,4.5757,4.5834,4.5911,4.6044,4.6201,4.6308,4.6308,4.6308,4.6308,4.6308,4.6308,4.6308,4.6308,4.6191,4.6094,4.6093,4.5949,4.5796,4.5796,4.5699,4.5586,4.5586,4.5586,4.5586,4.5586,4.5586,4.5586,4.5586,4.6506,4.7211,4.7379,4.8262,4.8867,4.8906,4.9668,5.0156,5.0156,5.0156,5.0156,5.0156,4.9355,4.8906,4.8906,4.8639,4.8503,4.851,4.9087,4.9356,4.9394,5.1029,5.1798,3.2129,0.0,3.4194,3.5573,3.6618,3.7207,3.6934,3.6855,3.6699,3.6113,3.5547,3.5586,3.7031,3.707,3.7539,3.957,4.0371,4.0937,4.1523,4.1601,4.1601,4.1601,4.1355,0.0,0.0,0.0,0.0,4.4491,4.4761,4.5124,4.5699,4.5643,4.5586,4.5586,4.5586,4.5586,4.5586,4.5586,4.5586,4.5586,4.5586,4.5586,4.5586,4.5586,4.5586,4.5586,4.5586,4.5586,4.5586,4.5586,4.5586,4.5586,4.5586,4.5586,4.5586,4.5586,4.5586,4.5586,4.5586,4.5586,4.5605,4.5757,4.5853,4.5944,4.6053,4.6192,4.6308,4.6308,4.6308,4.6308,4.6308,4.6308,4.6308,4.6308,4.6269,4.618,4.6008,4.5911,4.5834,4.5699,4.5624,4.5586,4.5586,4.5586,4.5586,4.5586,4.5586,4.5834,4.6506,4.6948,4.7693,4.8984,4.9512,4.998,5.0508,5.082,5.0996,5.0996,5.0996,5.0996,5.0996,5.0703,5.0566,5.0566,5.0342,5.0235,5.024,5.0798,5.1068,5.1087,5.2241,5.276,3.3652,3.4922,3.6031,3.7741,3.8378,3.8457,3.7891,3.7519,3.6953,3.5781,3.5098,3.4941,3.5762,3.5703,3.6289,3.8594,3.9238,3.9844,4.1035,4.1191,4.1191,4.1191,4.1445,4.1582,0.0,0.0,0.0,4.4174,4.4682,4.522,4.5776,4.568,4.5586,4.5586,4.5586,4.5586,4.5586,4.5586,4.5586,4.5586,4.5586,4.5586,4.5586,4.5586,4.5586,4.5586,4.5586,4.5586,4.5586,4.5586,4.5586,4.5586,4.5586,4.5586,4.5586,4.5586,4.5586,4.5605,4.5643,4.568,4.5699,4.5853,4.5935,4.5999,4.6139,4.6228,4.6308,4.6308,4.6308,4.6308,4.6308,4.6308,4.6308,4.6308,4.6308,4.6241,4.6076,4.6003,4.593,4.5738,4.5699,4.5643,4.5605,4.5586,4.5701,4.6009,4.6123,4.639,4.7062,4.7715,4.8633,4.9922,5.041,5.084,5.1367,5.1406,5.1406,5.1406,5.1406,5.1406,5.1406,5.1406,5.1543,5.1855,5.1648,5.167,5.1991,5.2241,5.2375,5.2395,5.326,5.3664,3.5644,3.6777,3.7832,3.9531,3.9336,3.8711,3.8613,3.793,3.6797,3.5,3.457,3.4258,0.0,0.0,3.5156,3.6934,3.8008,3.9219,4.1016,4.1269,4.1289,0.0,0.0,0.0,0.0,0.0,0.0,4.3496,0.0,4.577,4.5796,4.568,4.5605,4.5586,4.5586,4.5586,4.5586,4.5586,4.5586,4.5586,4.5586,4.5586,4.5586,4.5586,4.5586,4.5586,4.5586,4.5586,4.5586,4.5586,4.5586,4.5586,4.5586,4.5586,4.5586,4.5586,4.5586,4.5605,4.5757,4.5796,4.5834,4.6026,4.6103,4.6132,4.6261,4.6308,4.6308,4.6308,4.6308,4.6308,4.6308,4.6308,4.6308,4.6308,4.6308,4.6308,4.6289,4.6182,4.6044,4.5909,4.5834,4.5757,4.5605,4.5624,4.5951,4.6778,4.7103,4.7255,4.7332,4.8775,4.9922,5.0234,5.0937,5.1406,5.1406,5.1406,5.1426,5.1465,5.1465,5.1484,5.1523,5.1523,5.1914,5.2754,5.2506,5.2776,5.3587,5.3376,5.328,5.3299,5.4164,5.4549,3.7285,3.8574,3.9492,4.0605,4.0703,4.0195,3.8906,3.793,3.6621,3.4219,3.2734,3.1797,0.0,0.0,0.0,3.5957,3.7617,0.0,4.1758,4.209,0.0,4.2988,0.0,4.3379,4.3379,4.416,0.0,0.0,4.4879,4.5293,4.5849,4.5796,4.5699,4.5586,4.5586,4.5586,4.5586,4.5586,4.5586,4.5586,4.5586,4.5586,4.5586,4.5586,4.5586,4.5586,4.5586,4.5586,4.5586,4.5586,4.5586,4.5586,4.5586,4.5586,4.5586,4.5586,4.5586,4.5624,4.5815,4.5834,4.5834,4.6026,4.6103,4.6132,4.6261,4.6308,4.6308,4.6308,4.6308,4.6308,4.6308,4.6308,4.6308,4.6308,4.6308,4.6269,4.6172,4.6118,4.6048,4.5854,4.5735,4.5624,4.5605,4.6144,4.6644,4.6874,4.8066,4.9008,4.9125,4.9617,5.0234,5.1016,5.1289,5.1406,5.1406,5.1406,5.168,5.2324,5.2363,5.2656,5.3301,5.334,5.3437,5.3652,5.3412,5.3379,5.3603,5.3972,5.4166,5.4204,5.5011,5.5395,3.8672,3.9805,4.0586,4.1074,4.0918,4.0176,3.8437,3.7051,3.543,3.2832,3.125,0.0,0.0,0.0,0.0,0.0,0.0,0.0,4.1504,4.2187,4.2715,0.0,4.4043,0.0,4.4277,4.5058,4.5566,0.0,4.5449,4.5543,4.5982,4.5873,4.5776,4.5699,4.5624,4.5586,4.5586,4.5586,4.5586,4.5586,4.5586,4.5586,4.5586,4.5586,4.5586,4.5586,0.0,4.5586,4.5586,4.5586,4.5586,4.5586,4.5586,4.5586,4.5586,4.5586,4.5586,4.5624,4.5834,4.5873,4.5874,4.6113,4.6192,4.6199,4.628,4.6308,4.6308,4.6308,4.6308,4.6308,4.6308,4.6308,4.6308,4.6308,4.6308,4.6289,4.6191,4.6181,4.6119,4.5891,4.6031,4.6163,4.6163,4.6874,4.7567,4.7952,4.8951,4.9851,5.0306,5.0465,5.0742,5.1348,5.1738,5.1973,5.1973,5.2324,5.2754,5.3242,5.3262,5.3496,5.3984,5.4004,5.4141,5.4473,5.4277,5.432,5.4624,5.4876,5.5032,5.5051,5.5491,5.5895,3.9844,4.0625,4.1191,4.1191,4.0547,3.9434,3.7695,3.5859,3.3809,3.125,0.0,2.8984,2.8125,2.9473,3.1309,3.3105,0.0,3.8242,4.0976,4.2051,4.2891,4.3769,4.4648,4.5176,4.5176,4.5859,4.6308,4.6308,4.6191,4.6128,4.61,4.594,4.5834,4.5796,4.5699,4.5605,4.5586,4.5586,4.5586,4.5586,4.5586,4.5586,4.5586,4.5586,4.5586,4.5586,0.0,0.0,4.5586,4.5586,4.5586,4.5586,4.5586,4.5586,4.5586,4.5586,4.5586,4.5624,4.5834,4.5905,4.594,4.6202,4.6308,4.6308,4.6308,4.6308,4.6308,4.6308,4.6308,4.6308,4.6308,4.6308,4.6308,4.6308,4.6308,4.6308,4.6308,4.6292,4.6241,4.6092,4.6528,4.6951,4.7048,4.774,4.8548,4.9298,4.974,5.0248,5.1008,5.1186,5.1328,5.1543,5.2226,5.2734,5.2851,5.3555,5.4023,5.416,5.418,5.4219,5.4336,5.4355,5.4648,5.5254,5.515,5.5355,5.5895,5.5761,5.5761,5.5857,5.5857,5.634,4.0742,4.1074,4.1191,4.1191,4.0547,3.9434,3.7695,3.5391,0.0,0.0,2.8555,2.7187,2.6309,2.8164,3.0605,3.3008,0.0,0.0,0.0,0.0,4.3808,0.0,0.0,0.0,0.0,0.0,0.0,0.0,0.0,0.0,4.6114,4.6072,4.5969,4.5815,4.5776,4.5719,4.5586,4.5586,4.5586,4.5586,4.5586,4.5586,4.5586,4.5586,4.5586,4.5586,0.0,0.0,4.5586,4.5586,4.5586,4.5586,4.5586,4.5586,4.5586,4.5586,4.5586,4.5624,4.5834,4.5905,4.594,4.6202,4.6308,4.6308,4.6308,4.6308,4.6308,4.6308,4.6308,4.6308,4.6308,4.6308,4.6308,4.6308,4.6308,4.6308,4.6308,4.6209,4.6294,4.6877,4.6972,4.7182,4.7798,4.8606,4.926,4.9528,5.0298,5.0952,5.1161,5.1296,5.1641,5.2402,5.2519,5.2871,5.3691,5.3808,5.4199,5.5019,5.5078,5.539,5.6113,5.6152,5.6152,5.6172,5.6041,5.5962,5.5895,5.5761,5.6071,5.6785,5.6785,5.7228,4.1094,4.1191,4.1191,4.1191,4.0195,3.8652,3.6445,0.0,0.0,0.0,2.7226,2.6191,2.5781,2.7461,0.0,0.0,0.0,0.0,0.0,0.0,0.0,0.0,0.0,0.0,0.0,0.0,0.0,0.0,0.0,0.0,4.6211,4.608,4.5938,4.5791,4.5728,4.568,4.5586,4.5586,4.5586,4.5586,4.5586,4.5586,4.5586,4.5586,4.5586,4.5586,0.0,0.0,4.5586,4.5586,4.5586,4.5586,4.5586,4.5586,4.5586,4.5586,4.5624,4.5719,4.5853,4.5947,4.6026,4.6231,4.6308,4.6308,4.6308,4.6308,4.6308,4.6308,4.6308,4.6308,4.6308,4.6308,4.6308,4.6308,4.6308,4.6308,4.6308,4.6507,4.6787,4.7133,4.7764,4.8355,4.8721,4.949,5.0106,5.026,5.0745,5.1293,5.1818,5.2002,5.2246,5.2656,5.339,5.4058,5.4525,5.4927,5.5351,5.584,5.5937,5.6152,5.6582,5.6601,5.6699,5.6914,5.6859,5.6939,5.7151,5.7074,5.7266,5.7692,5.7665,5.8127,4.1152,4.1191,4.1191,4.1191,3.9883,3.793,3.5293,3.2734,0.0,0.0,2.6309,2.5703,2.5703,0.0,2.8437,0.0,0.0,0.0,0.0,0.0,0.0,0.0,0.0,0.0,0.0,0.0,0.0,0.0,0.0,0.0,0.0,4.6066,4.5914,4.5829,4.5719,4.5624,4.5586,4.5586,4.5586,4.5586,4.5586,4.5586,4.5586,4.5586,4.5586,4.5586,0.0,0.0,0.0,4.5586,4.5586,4.5586,4.5586,4.5586,4.5586,4.5586,4.568,4.5813,4.5877,4.5995,4.6117,4.6257,4.6308,4.6308,4.6308,4.6308,4.6308,4.6308,4.6308,4.6308,4.6308,4.6308,4.6308,4.6308,4.6308,4.6347,4.6495,4.6917,4.735,4.766,4.8639,4.949,4.9644,5.024,5.076,5.0933,5.1029,5.1462,5.2415,5.2801,5.3047,5.3242,5.4336,5.5124,5.5376,5.5986,5.6367,5.6406,5.6523,5.6601,5.6601,5.6777,5.7031,5.7383,5.7577,5.7882,5.8286,5.8286,5.8383,5.8556,5.8566,5.9004,4.0976,4.1191,4.1191,4.1191,3.9883,3.793,3.5293,0.0,0.0,2.7539,2.6309,2.5703,2.5703,2.6484,0.0,0.0,0.0,0.0,0.0,0.0,0.0,0.0,0.0,0.0,0.0,0.0,0.0,0.0,0.0,0.0,0.0,4.6152,4.602,4.5888,4.5832,4.5719,4.5586,4.5586,4.5586,4.5586,4.5586,4.5586,4.5586,4.5586,4.5586,4.5586,0.0,0.0,0.0,4.5586,4.5586,4.5586,4.5586,4.5586,4.5586,4.5586,4.568,4.5808,4.5875,4.5984,4.6117,4.6257,4.6308,4.6308,4.6308,4.6308,4.6308,4.6308,4.6308,4.6308,4.6308,4.6308,4.6308,4.6308,4.6308,4.6479,4.7148,4.7336,4.7779,4.9105,4.949,4.9779,5.0471,5.0644,5.0779,5.1049,5.1087,5.1482,5.255,5.3385,5.418,5.498,5.4977,5.5299,5.6205,5.6231,5.6257,5.6385,5.6523,5.6601,5.6601,5.7363,5.7656,5.7402,5.8172,5.8504,5.8289,5.8289,5.8677,5.9392,5.9392,5.9854,4.0176,4.0801,4.1191,4.1191,3.9492,3.7129,3.4512,0.0,2.9375,2.6758,2.5937,2.5703,2.5703,2.5977,0.0,0.0,0.0,0.0,0.0,0.0,0.0,0.0,0.0,0.0,0.0,0.0,0.0,0.0,0.0,0.0,0.0,4.6012,4.5892,4.5834,4.5738,4.5643,4.5586,4.5586,4.5586,4.5586,4.5586,4.5624,4.5719,4.5624,4.5624,4.5719,0.0,0.0,0.0,4.5586,4.5586,4.5586,4.5586,4.5586,4.5586,4.5586,4.5719,4.5863,4.5889,4.6048,4.6233,4.6277,4.6308,4.6308,4.6308,4.6308,4.6308,4.6308,4.6308,4.6308,4.6308,4.6308,4.6308,4.6308,4.6245,4.6402,4.7221,4.7684,4.8279,4.9375,4.9952,5.0356,5.0644,5.076,5.0895,5.1068,5.158,5.2316,5.3357,5.4239,5.5095,5.5882,5.5797,5.5852,5.6246,5.6225,5.6205,5.6276,5.6962,5.7383,5.7383,5.8223,5.8773,5.8958,5.9301,5.9604,5.9796,5.9796,5.9969,6.0277,6.0277,6.0473,3.9512,4.0156,4.0487,4.0695,3.8811,3.6202,0.0,3.1209,2.8828,2.6211,2.5684,2.5703,2.5703,2.5703,2.5996,0.0,0.0,0.0,0.0,0.0,0.0,0.0,0.0,0.0,0.0,0.0,0.0,0.0,0.0,0.0,0.0,4.5834,4.5757,4.5796,4.568,4.5586,4.5586,4.5586,4.5586,4.5586,4.5586,4.5643,4.5738,4.5624,4.5643,0.0,0.0,0.0,0.0,4.5586,4.5586,4.5586,4.5586,4.5586,4.5586,4.5586,4.5738,4.5902,4.5908,4.6085,4.6297,4.6293,4.6308,4.6308,4.6308,4.6308,4.6308,4.6308,4.6308,4.6308,4.6308,4.6273,4.625,4.625,4.6337,4.6661,4.7491,4.8203,4.8933,4.976,5.0337,5.0702,5.0702,5.0818,5.0952,5.1076,5.1893,5.2855,5.3861,5.4765,5.5586,5.6329,5.628,5.6191,5.6111,5.6359,5.6521,5.655,5.759,5.8223,5.8281,5.9101,5.9719,6.0057,6.0263,6.055,6.0858,6.0819,6.08,6.08,6.08,6.08,3.918,3.9277,3.8795,3.9522,3.7797,3.5203,3.253,3.0665,2.8769,2.6133,2.5644,2.5703,2.5703,2.5703,2.5996,0.0,0.0,0.0,0.0,0.0,0.0,0.0,0.0,0.0,0.0,0.0,0.0,0.0,0.0,0.0,0.0,0.0,4.5643,4.5796,4.568,4.5586,4.5586,4.5586,4.5586,4.5586,4.5586,4.5586,4.5586,4.5586,0.0,0.0,0.0,0.0,0.0,4.5586,4.5586,4.5586,4.5586,4.5586,4.5586,4.5586,4.5738,4.5902,4.5908,4.6075,4.6308,4.6308,4.6308,4.6308,4.6308,4.6308,4.6308,4.6308,4.6308,4.6308,4.6308,4.6199,4.6102,4.6102,4.6668,4.7381,4.812,4.8971,4.9817,5.0548,5.0683,5.0702,5.0702,5.0818,5.0945,5.1081,5.1904,5.2855,5.3861,5.4765,5.5586,5.6329,5.6282,5.6109,5.5936,5.6684,5.7255,5.7387,5.8332,5.8984,5.918,5.9961,6.0332,6.0195,6.0918,6.1189,6.0993,6.0858,6.08,6.08,6.08,6.08,3.4948,3.5555,3.5717,3.5346,3.4206,3.2644,3.0656,2.9377,2.8032,2.6013,2.5644,2.5703,2.5703,2.5668,2.6118,2.7575,0.0,0.0,0.0,0.0,0.0,0.0,0.0,0.0,0.0,0.0,0.0,0.0,0.0,0.0,0.0,0.0,4.4432,4.5642,4.5605,4.5586,4.5586,4.5586,4.5586,4.5586,4.5586,4.5643,4.5738,4.5624,0.0,0.0,0.0,0.0,0.0,4.5586,4.5586,4.5586,4.5586,4.5586,4.5586,4.5586,4.5738,4.5902,4.5908,4.608,4.6308,4.6308,4.6308,4.6308,4.6308,4.6308,4.6308,4.6308,4.6234,4.6162,4.6162,4.6057,4.5951,4.596,4.6516,4.7279,4.8124,4.8894,4.9721,5.0529,5.0702,5.0702,5.0702,5.126,5.1775,5.1889,5.3264,5.4431,5.4843,5.5644,5.6204,5.6259,5.6231,5.6359,5.6742,5.7049,5.7461,5.8124,5.917,5.9824,5.9883,6.0781,6.1238,6.1085,6.124,6.1194,6.0993,6.0858,6.08,6.08,6.08,6.08,0.0,3.2921,3.2999,3.2752,3.1787,3.0556,2.9143,2.8221,2.7243,2.5843,2.5622,2.5662,2.5658,2.5659,2.5987,2.7002,0.0,0.0,0.0,0.0,0.0,0.0,0.0,0.0,0.0,0.0,0.0,0.0,0.0,0.0,0.0,0.0,4.3585,4.4624,4.4662,4.4662,4.4662,4.4951,4.5105,4.5105,4.5432,4.5624,4.5719,0.0,0.0,0.0,0.0,0.0,0.0,4.5586,4.5586,4.5586,4.5586,4.5586,4.5586,4.5586,4.5719,4.5883,4.5889,4.6041,4.623,4.6289,4.6308,4.6287,4.6245,4.6261,4.6287,4.6245,4.6162,4.6084,4.6046,4.5931,4.5867,4.5863,4.6663,4.7567,4.8125,4.9106,5.0048,5.0587,5.0702,5.0702,5.0702,5.1471,5.2126,5.2216,5.3877,5.5137,5.5215,5.5992,5.6444,5.6222,5.6418,5.6857,5.7569,5.7627,5.8011,5.8934,5.9929,6.0561,6.0683,6.1295,6.1584,6.1488,6.1383,6.1209,6.0993,6.0858,6.08,6.08,6.08,6.08,0.0,3.1043,3.0568,3.1212,3.0227,2.8867,2.7939,2.7187,0.0,2.5659,2.5559,2.5605,2.5672,2.5693,2.5693,2.5753,0.0,0.0,0.0,0.0,0.0,0.0,0.0,0.0,0.0,0.0,0.0,0.0,0.0,0.0,0.0,0.0,0.0,4.2912,4.2912,4.297,4.3104,4.3835,4.4239,4.428,4.5105,4.5528,4.5568,0.0,0.0,0.0,0.0,0.0,0.0,4.5586,4.5586,4.5586,4.5586,4.5586,4.5586,4.5586,4.568,4.5808,4.5867,4.5972,4.6113,4.6269,4.6288,4.6264,4.6148,4.6183,4.6261,4.6123,4.608,4.6046,4.593,4.5834,4.5796,4.5796,4.6971,4.8105,4.8105,4.9471,5.0702,5.0702,5.0702,5.0702,5.0702,5.151,5.2182,5.22,5.3877,5.5153,5.5174,5.5889,5.6327,5.6193,5.6807,5.7511,5.8242,5.8357,5.88,5.9804,6.0593,6.1128,6.1455,6.1492,6.1508,6.1489,6.1333,6.1178,6.0973,6.0858,6.08,6.08,6.08,6.08,2.691,0.0,2.7593,2.7103,2.7151,2.7074,0.0,2.636,2.6447,2.5599,0.0,2.5726,2.6398,2.5982,2.6163,0.0,0.0,0.0,0.0,0.0,0.0,0.0,0.0,0.0,0.0,0.0,0.0,0.0,0.0,0.0,0.0,0.0,0.0,4.1104,4.1104,4.1739,4.3085,4.3297,4.3576,4.3921,4.4382,4.4823,4.5222,0.0,0.0,0.0,0.0,0.0,0.0,4.5586,4.5586,4.5586,4.5586,4.5586,4.5586,4.5586,4.568,4.5813,4.5816,4.5946,4.6113,4.6269,4.6228,4.6143,4.6114,4.6117,4.6119,4.5983,4.5896,4.5853,4.5834,4.5738,4.5643,4.5643,4.6894,4.8105,4.8105,4.9471,5.0702,5.0702,5.0702,5.0702,5.0702,5.1952,5.2991,5.3086,5.4591,5.5763,5.5929,5.6111,5.6175,5.5981,5.6711,5.7511,5.8242,5.8858,5.9608,6.0492,6.0839,6.1032,6.1097,6.1365,6.1463,6.1347,6.1156,6.1015,6.0839,6.0819,6.08,6.08,6.08,6.08,2.5649,2.6216,2.6688,2.6211,2.642,2.6629,2.615,0.0,0.0,0.0,0.0,0.0,0.0,0.0,0.0,0.0,0.0,0.0,0.0,0.0,0.0,0.0,0.0,0.0,0.0,0.0,0.0,0.0,0.0,0.0,0.0,0.0,0.0,0.0,4.0489,4.095,4.1893,4.2297,4.2633,4.2891,4.3843,4.4438,4.4748,0.0,0.0,0.0,0.0,0.0,4.5586,4.5586,4.5586,4.5586,4.5586,4.5586,4.5586,4.5586,4.5643,4.5719,4.5776,4.5883,4.6019,4.6097,4.6072,4.6007,4.5979,4.5969,4.5943,4.5866,4.5838,4.5796,4.5719,4.5643,4.5701,4.6105,4.7163,4.8221,4.8606,4.974,5.0702,5.0702,5.0702,5.0818,5.1183,5.2337,5.3356,5.3837,5.503,5.5943,5.6059,5.6071,5.6167,5.6477,5.7223,5.803,5.88,5.9627,6.03,6.0762,6.0858,6.0935,6.0993,6.1177,6.1245,6.1167,6.1017,6.0858,6.08,6.08,6.08,6.08,6.08,6.08,2.5859,2.6449,2.6954,2.6688,2.6705,2.6766,2.6633,0.0,0.0,0.0,0.0,0.0,0.0,0.0,0.0,0.0,0.0,0.0,0.0,0.0,0.0,0.0,0.0,0.0,0.0,0.0,0.0,0.0,0.0,0.0,0.0,0.0,0.0,0.0,4.0489,4.0489,4.0489,4.1239,4.1646,4.1731,4.3357,4.4145,4.4245,4.5164,0.0,0.0,0.0,0.0,4.5586,4.5586,4.5586,4.5586,4.5586,4.5586,4.5586,4.5586,4.5586,4.5605,4.5757,4.5844,4.5881,4.5901,4.5881,4.5878,4.5819,4.5796,4.5776,4.5776,4.5776,4.5738,4.5624,4.5586,4.5817,4.6701,4.7509,4.8336,4.9202,5.0067,5.0702,5.0702,5.0702,5.0952,5.176,5.2626,5.351,5.4376,5.528,5.5857,5.5857,5.5857,5.6203,5.7088,5.7857,5.8627,5.9435,6.03,6.08,6.08,6.08,6.0858,6.0973,6.0973,6.0973,6.0993,6.0858,6.08,6.08,6.08,6.08,6.08,6.08,6.08,2.6602,2.7421,2.7694,2.6178,2.631,2.6615,2.5877,0.0,0.0,0.0,0.0,0.0,0.0,0.0,0.0,0.0,0.0,0.0,0.0,0.0,0.0,0.0,0.0,0.0,0.0,0.0,0.0,0.0,0.0,0.0,0.0,0.0,0.0,0.0,0.0,4.0489,4.0489,4.0623,4.0929,4.1399,4.2656,4.35,4.392,4.5073,4.5586,0.0,0.0,0.0,4.5586,4.5586,4.5586,4.5586,4.5586,4.5586,4.5586,4.5586,4.5586,4.5605,4.5757,4.5811,4.5819,4.5877,4.5857,4.5803,4.5794,4.5719,4.5624,4.5624,4.5624,4.5624,4.5605,4.5586,4.5817,4.6701,4.7509,4.8336,4.9202,5.0067,5.0702,5.0702,5.0702,5.0952,5.176,5.2626,5.351,5.4376,5.5203,5.5722,5.5722,5.5722,5.6049,5.6934,5.778,5.8627,5.9435,6.03,6.08,6.08,6.08,6.0858,6.0973,6.0877,6.0877,6.0993,6.0858,6.08,6.08,6.08,6.08,6.08,6.08,6.08,2.6133,2.6888,2.7334,2.6466,2.7268,2.802,2.7116,0.0,0.0,0.0,0.0,0.0,0.0,0.0,0.0,0.0,0.0,0.0,0.0,0.0,0.0,0.0,0.0,0.0,0.0,0.0,0.0,0.0,0.0,0.0,0.0,0.0,0.0,0.0,0.0,0.0,4.0489,4.0489,4.0614,4.0879,4.192,4.2748,4.3464,4.4437,4.5143,0.0,0.0,4.5586,4.5586,4.5586,4.5586,4.5586,4.5586,4.5586,4.5586,4.5586,4.5586,4.5605,4.568,4.5699,4.5699,4.5738,4.5719,4.5699,4.5699,4.5643,4.5586,4.5586,4.5586,4.5586,4.5586,4.5586,4.5932,4.724,4.7836,4.8471,4.9798,5.0414,5.0702,5.0702,5.0702,5.1106,5.2375,5.2933,5.3645,5.4953,5.5453,5.5703,5.5703,5.6107,5.6742,5.7607,5.8454,5.93,6.0127,6.0569,6.08,6.08,6.08,6.0819,6.0877,6.0819,6.0819,6.0877,6.0819,6.08,6.08,6.08,6.08,6.08,6.08,6.08,2.5832,2.6374,2.6857,2.6791,2.7816,2.8706,2.8198,0.0,0.0,0.0,0.0,0.0,0.0,0.0,0.0,0.0,0.0,0.0,0.0,0.0,0.0,0.0,0.0,0.0,0.0,0.0,0.0,0.0,0.0,0.0,0.0,0.0,0.0,0.0,0.0,0.0,4.0489,4.0489,4.0489,4.0508,4.1373,4.2162,4.2816,4.3643,4.4489,4.5297,4.5297,4.5413,4.5586,4.5586,4.5586,4.5586,4.5586,4.5586,4.5586,4.5586,4.5586,4.5586,4.5586,4.5586,4.5586,4.5586,4.5586,4.5586,4.5586,4.5586,4.5586,4.5586,4.5586,4.5586,4.5586,4.5586,4.6009,4.7702,4.8105,4.8586,5.0317,5.0702,5.0702,5.0702,5.0837,5.1452,5.2933,5.3376,5.3991,5.5472,5.5703,5.5703,5.5703,5.6453,5.7319,5.8204,5.9031,5.9858,6.0723,6.08,6.08,6.08,6.08,6.08,6.08,6.08,6.08,6.08,6.08,6.08,6.08,6.08,6.08,6.08,6.08,6.08,2.649,2.6763,2.6798,2.6725,2.6815,0.0,2.783,2.8011,0.0,0.0,0.0,0.0,0.0,0.0,0.0,0.0,0.0,0.0,0.0,0.0,0.0,0.0,0.0,0.0,0.0,0.0,0.0,0.0,0.0,0.0,0.0,0.0,0.0,0.0,0.0,0.0,4.0489,4.0489,4.0489,4.0508,4.1373,4.1835,4.1931,4.2797,4.3624,4.4393,4.4393,4.4855,4.5586,4.5586,4.5586,4.5586,4.5586,4.5586,4.5586,4.5586,4.5586,4.5586,4.5586,4.5586,4.5586,4.5586,4.5586,4.5586,4.5586,4.5586,4.5586,4.5586,4.5586,4.5586,4.5586,4.5586,4.6009,4.7702,4.8105,4.8586,5.0317,5.0702,5.0702,5.0702,5.1298,5.2125,5.3049,5.3876,5.4703,5.5568,5.5703,5.5703,5.5703,5.6453,5.7319,5.8204,5.9031,5.9858,6.0723,6.08,6.08,6.08,6.08,6.08,6.08,6.08,6.08,6.08,6.08,6.08,6.08,6.08,6.08,6.08,6.08,6.08,2.5097,2.5557,2.592,2.5909,0.0,0.0,0.0,0.0,0.0,0.0,0.0,0.0,0.0,0.0,0.0,0.0,0.0,0.0,0.0,0.0,0.0,0.0,0.0,0.0,0.0,0.0,0.0,0.0,0.0,0.0,0.0,0.0,0.0,0.0,0.0,0.0,0.0,4.0489,4.0489,4.0489,4.0835,4.1277,4.1816,4.2143,4.3028,4.4297,4.4297,4.4778,4.5586,4.5586,4.5586,4.5586,4.5586,4.5586,4.5586,4.5586,4.5586,4.5586,4.5586,4.5586,4.5586,4.5586,4.5586,4.5586,4.5586,4.5586,4.5586,4.5586,4.5586,4.5586,4.5586,4.5586,4.6009,4.7702,4.8105,4.8586,5.0317,5.0702,5.0702,5.0702,5.1356,5.2183,5.3049,5.3914,5.4761,5.5568,5.5703,5.5703,5.5703,5.6934,5.7934,5.8261,5.9492,6.0435,6.0762,6.08,6.08,6.08,6.08,6.08,6.08,6.08,6.08,6.08,6.08,6.08,6.08,6.08,6.08,6.08,6.08,6.08,2.4245,2.4755,2.536,0.0,0.0,0.0,0.0,0.0,0.0,0.0,0.0,0.0,0.0,0.0,0.0,0.0,0.0,0.0,0.0,0.0,0.0,0.0,0.0,0.0,0.0,0.0,0.0,0.0,0.0,0.0,0.0,0.0,0.0,0.0,0.0,0.0,0.0,4.0373,4.0489,4.0489,4.0489,4.0796,4.1393,4.1393,4.2162,4.3528,4.3797,4.4393,4.5201,4.549,4.5586,4.5586,4.5586,4.5586,4.5586,4.5586,4.5586,4.5586,4.5586,4.5586,4.5586,4.5586,4.5586,4.5586,4.5586,4.5586,4.5586,4.5586,4.5586,4.5586,4.5586,4.5586,4.6009,4.7702,4.8105,4.8586,5.0317,5.0702,5.0702,5.0702,5.1568,5.251,5.3106,5.4126,5.5068,5.5607,5.5703,5.5799,5.6069,5.7396,5.8511,5.9031,6.0127,6.08,6.08,6.08,6.08,6.08,6.08,6.08,6.08,6.08,6.08,6.08,6.08,6.08,6.08,6.08,6.08,6.08,6.08,6.08,2.4293,2.4678,2.5234,0.0,0.0,0.0,0.0,0.0,0.0,0.0,0.0,0.0,0.0,0.0,0.0,0.0,0.0,0.0,0.0,0.0,0.0,0.0,0.0,0.0,0.0,0.0,0.0,0.0,0.0,0.0,0.0,0.0,0.0,0.0,0.0,0.0,0.0,4.0123,4.0489,4.0489,4.0489,4.0489,4.0489,4.0489,4.0969,4.1854,4.272,4.3547,4.4374,4.524,4.5586,4.5586,4.5586,4.5586,4.5586,4.5586,4.5586,4.5586,4.5586,4.5586,4.5586,4.5586,4.5586,4.5586,4.5586,4.5586,4.5586,4.5586,4.5586,4.5586,4.5605,4.5605,4.6028,4.7702,4.8105,4.8586,5.0317,5.0702,5.0702,5.0702,5.2049,5.3203,5.3203,5.4587,5.5703,5.5703,5.5703,5.6011,5.6896,5.7761,5.8954,6.0608,6.08,6.08,6.08,6.08,6.08,6.08,6.08,6.08,6.08,6.08,6.08,6.08,6.08,6.08,6.08,6.08,6.08,6.08,6.08,6.08,2.2904,2.3429,0.0,2.4652,0.0,0.0,0.0,0.0,0.0,0.0,0.0,0.0,0.0,0.0,0.0,0.0,0.0,0.0,0.0,0.0,0.0,0.0,0.0,0.0,0.0,0.0,0.0,0.0,0.0,0.0,0.0,0.0,0.0,0.0,0.0,0.0,0.0,0.0,3.9931,4.0489,4.0489,4.0489,4.0489,4.0489,4.0969,4.1816,4.2066,4.2989,4.4374,4.524,4.5586,4.5586,4.5586,4.5586,4.5586,4.5586,4.5586,4.5586,4.5586,4.5586,4.5586,4.5586,4.5586,4.5586,4.5586,4.5586,4.5586,4.5586,4.5586,4.574,4.6355,4.6509,4.6778,4.7855,4.8567,4.9317,5.0452,5.0702,5.0702,5.0702,5.2049,5.3203,5.3203,5.4587,5.5703,5.5703,5.5703,5.6242,5.7723,5.8627,5.9569,6.0685,6.08,6.08,6.08,6.08,6.08,6.08,6.08,6.08,6.08,6.08,6.08,6.08,6.08,6.08,6.08,6.08,6.08,6.08,6.08,6.08,2.259,2.3285,0.0,2.4771,2.6523,2.837,0.0,0.0,0.0,0.0,0.0,0.0,0.0,0.0,0.0,0.0,0.0,0.0,0.0,0.0,0.0,0.0,0.0,0.0,0.0,0.0,0.0,0.0,0.0,0.0,0.0,0.0,0.0,0.0,0.0,0.0,0.0,0.0,0.0,4.0027,4.0335,4.0489,4.0489,4.0489,4.0777,4.1296,4.1662,4.2758,4.4335,4.4874,4.5278,4.5586,4.5586,4.5586,4.5586,4.5586,4.5586,4.5586,4.5586,4.5586,4.5586,4.5586,4.5586,4.5586,4.5586,4.5586,4.5586,4.5586,4.5586,4.572,4.624,4.6874,4.7586,4.8413,4.9029,4.9644,5.051,5.0702,5.0702,5.0702,5.2049,5.3203,5.3203,5.4587,5.5703,5.5703,5.628,5.7107,5.8165,5.93,6.0223,6.0742,6.08,6.08,6.08,6.08,6.08,6.08,6.08,6.08,6.08,6.08,6.08,6.08,6.08,6.08,6.08,6.08,6.08,6.08,6.08,6.08,2.2817,0.0,0.0,2.5152,2.6469,0.0,2.9819,0.0,0.0,0.0,0.0,0.0,0.0,0.0,0.0,0.0,0.0,0.0,0.0,0.0,0.0,0.0,0.0,0.0,0.0,0.0,0.0,0.0,0.0,0.0,0.0,0.0,0.0,0.0,0.0,0.0,0.0,0.0,0.0,0.0,3.9988,4.0392,4.0392,4.0469,4.0489,4.0546,4.1431,4.2662,4.4085,4.4239,4.4759,4.549,4.5566,4.5586,4.5586,4.5586,4.5586,4.5586,4.5586,4.5586,4.5586,4.5586,4.5586,4.5586,4.5586,4.5586,4.5586,4.5586,4.5586,4.5605,4.5701,4.6894,4.8317,4.9183,4.9452,4.974,5.0529,5.0702,5.0702,5.0702,5.2049,5.3203,5.3203,5.4587,5.5703,5.5703,5.7184,5.83,5.83,5.9762,6.08,6.08,6.08,6.08,6.08,6.08,6.08,6.08,6.08,6.08,6.08,6.08,6.08,6.08,6.08,6.08,6.08,6.08,6.08,6.08,6.08,6.08,2.1412,2.2396,0.0,0.0,2.7291,2.9341,3.0027,0.0,0.0,0.0,0.0,0.0,0.0,0.0,0.0,0.0,0.0,0.0,0.0,0.0,0.0,0.0,0.0,0.0,0.0,0.0,0.0,0.0,0.0,0.0,0.0,0.0,0.0,0.0,0.0,0.0,3.6978,3.7175,3.7603,0.0,3.9142,3.9546,3.9565,4.02,4.0489,4.0546,4.1431,4.2008,4.245,4.3758,4.4412,4.4643,4.5316,4.5586,4.5586,4.5586,4.5586,4.5586,4.5586,4.5586,4.5586,4.5586,4.5586,4.5586,4.5586,4.5586,4.5586,4.5586,4.5586,4.5759,4.6432,4.7355,4.8317,4.9183,4.9913,5.0471,5.0644,5.0702,5.0702,5.0702,5.2049,5.3203,5.3203,5.4587,5.5703,5.5703,5.7184,5.83,5.83,5.9762,6.08,6.08,6.08,6.08,6.08,6.08,6.08,6.08,6.08,6.08,6.08,6.08,6.08,6.08,6.08,6.08,6.08,6.08,6.08,6.08,6.08,6.08,2.1198,0.0,0.0,2.6188,0.0,2.9642,2.9793,0.0,0.0,0.0,0.0,0.0,0.0,0.0,0.0,0.0,0.0,0.0,0.0,0.0,0.0,0.0,0.0,0.0,0.0,0.0,0.0,0.0,0.0,0.0,0.0,0.0,0.0,0.0,0.0,0.0,3.6329,3.6584,3.693,3.7392,3.8257,3.8892,3.9315,4.0123,4.0489,4.0527,4.0969,4.1412,4.1873,4.2739,4.3585,4.4355,4.4797,4.522,4.5586,4.5586,4.5586,4.5586,4.5586,4.5586,4.5586,4.5586,4.5586,4.5586,4.5586,4.5586,4.5586,4.5586,4.5586,4.5701,4.6163,4.7182,4.8221,4.8663,4.976,5.0702,5.0702,5.0702,5.0624,5.0442,5.1928,5.3142,5.2954,5.4463,5.5621,5.5446,5.6874,5.8035,5.8277,5.9561,6.0553,6.0777,6.08,6.0714,6.0482,6.0666,6.069,6.0482,6.069,6.08,6.08,6.08,6.08,6.08,6.08,6.08,6.08,6.08,6.08,6.08,6.08,6.08,2.0848,0.0,2.4688,2.7109,2.8415,0.0,2.936,0.0,0.0,0.0,0.0,0.0,0.0,0.0,0.0,0.0,0.0,0.0,0.0,0.0,0.0,0.0,0.0,0.0,0.0,0.0,0.0,0.0,0.0,0.0,0.0,0.0,0.0,0.0,0.0,3.5689,3.5622,3.6219,3.6507,3.6507,3.7353,3.8315,3.9315,3.9988,4.0354,4.0489,4.0489,4.0912,4.1585,4.1739,4.272,4.4105,4.4239,4.4836,4.5586,4.5586,4.5586,4.5586,4.5586,4.5586,4.5586,4.5586,4.5586,4.5586,4.5586,4.5586,4.5586,4.5586,4.5586,4.5624,4.5778,4.6951,4.8144,4.8298,4.9529,5.0702,5.0702,5.0702,5.0642,5.0463,5.1992,5.3267,5.314,5.4507,5.5512,5.5237,5.6542,5.7684,5.8016,5.9305,6.0365,6.0757,6.08,6.0622,6.0132,6.0527,6.0553,6.0025,6.0411,6.0647,6.0553,6.0622,6.069,6.069,6.0757,6.08,6.08,6.08,6.08,6.08,6.08,6.08,0.0,0.0,2.3289,0.0,2.7076,2.7564,0.0,0.0,0.0,0.0,0.0,0.0,0.0,0.0,0.0,0.0,0.0,0.0,0.0,0.0,0.0,0.0,0.0,0.0,0.0,0.0,0.0,0.0,0.0,0.0,0.0,0.0,3.5996,3.5996,3.5907,0.0,3.5699,3.5738,3.5718,3.568,3.6488,3.7738,3.9296,3.9411,3.9835,4.0489,4.0489,4.0566,4.0719,4.1489,4.2374,4.3335,4.4028,4.4836,4.5586,4.5586,4.5586,4.5586,4.5586,4.5586,4.5586,4.5586,4.5586,4.5586,4.5586,4.5586,4.5586,4.5586,4.5586,4.5759,4.6528,4.7413,4.8298,4.9048,4.9971,5.0702,5.0702,5.0702,5.0894,5.1526,5.279,5.4033,5.5116,5.5222,5.5282,5.5577,5.6637,5.7328,5.7125,5.9224,6.0734,6.0781,6.08,6.0622,6.0132,6.0527,6.0411,5.9545,5.9916,6.0025,5.9592,5.9996,6.0189,6.0189,6.0578,6.08,6.08,6.08,6.08,6.08,6.08,6.08,1.9695,2.1396,2.3336,0.0,2.668,2.7301,0.0,0.0,0.0,0.0,0.0,0.0,0.0,0.0,0.0,0.0,0.0,0.0,0.0,0.0,0.0,0.0,0.0,0.0,0.0,0.0,0.0,0.0,0.0,0.0,0.0,3.5209,3.5508,3.5976,3.5464,0.0,3.5689,3.5618,3.5584,3.5512,3.6334,3.7353,3.8584,3.9084,3.9738,4.0489,4.0489,4.0489,4.0527,4.0912,4.1873,4.3143,4.3489,4.4432,4.5586,4.5586,4.5586,4.5586,4.5586,4.5586,4.5586,4.5586,4.5586,4.5586,4.5586,4.5586,4.5586,4.5586,4.5586,4.5682,4.6067,4.7124,4.8125,4.8202,4.949,5.0702,5.0702,5.0702,5.1068,5.2375,5.3288,5.4167,5.5197,5.5399,5.5423,5.5375,5.6382,5.7263,5.7633,5.8829,5.9804,6.0338,6.0411,6.0103,5.9389,6.0236,6.0311,5.9084,5.9709,5.9885,5.9424,5.9611,5.9709,5.9709,6.0411,6.08,6.08,6.08,6.08,6.08,6.08,6.08,0.0,0.0,2.2746,2.4877,2.6015,2.6817,0.0,0.0,0.0,0.0,0.0,0.0,0.0,0.0,0.0,0.0,0.0,0.0,0.0,0.0,0.0,0.0,0.0,0.0,0.0,0.0,0.0,0.0,0.0,0.0,3.4165,3.4298,3.4766,3.5644,3.4983,3.4957,3.5684,3.5612,3.5565,3.5526,3.6122,3.6969,3.8027,3.8661,3.9527,4.0489,4.0489,4.0489,4.0489,4.0489,4.1527,4.3104,4.3104,4.4124,4.5586,4.5586,4.5586,4.5586,4.5586,4.5586,4.5586,4.5586,4.5586,4.5586,4.5586,4.5586,4.5586,4.5586,4.5586,4.5701,4.6124,4.7163,4.8105,4.8144,4.9452,5.0702,5.0702,5.1029,5.1702,5.2953,5.3752,5.4435,5.5142,5.5399,5.5423,5.5282,5.6407,5.7585,5.847,5.8951,5.9424,5.9996,6.018,5.9855,5.8814,5.9996,6.0161,5.8632,5.9389,5.9677,5.9084,5.9158,5.9212,5.9212,6.0025,6.0437,6.0437,6.069,6.0734,6.0622,6.0757,6.08,0.0,1.9445,0.0,2.316,0.0,0.0,0.0,0.0,0.0,0.0,0.0,0.0,0.0,0.0,0.0,0.0,0.0,0.0,0.0,0.0,0.0,0.0,0.0,0.0,0.0,0.0,0.0,0.0,0.0,0.0,3.3264,3.34,3.3867,3.4746,3.4725,3.5022,3.5684,3.5574,3.5493,3.5493,3.5532,3.643,3.8007,3.8046,3.895,4.0489,4.0489,4.0489,4.0489,4.0489,4.1527,4.3104,4.3104,4.4124,4.5586,4.5586,4.5586,4.5586,4.5586,4.5586,4.5586,4.5586,4.5586,4.5586,4.5586,4.5586,4.5586,4.5586,4.5586,4.597,4.7567,4.8029,4.8509,5.0125,5.0606,5.0702,5.0702,5.1952,5.3106,5.3183,5.4188,5.5174,5.5599,5.5262,5.5107,5.5599,5.712,5.8496,5.9238,6.0132,6.0482,5.9954,6.043,6.0189,5.8796,5.9996,6.0025,5.8123,5.8913,5.9009,5.8097,5.8484,5.8735,5.8735,5.9212,5.9458,5.9458,6.0384,6.0578,6.0161,6.0578,6.08,0.0,0.0,0.0,2.1425,2.3048,0.0,0.0,0.0,0.0,0.0,0.0,0.0,0.0,0.0,0.0,0.0,0.0,0.0,0.0,0.0,0.0,0.0,0.0,0.0,0.0,0.0,0.0,0.0,0.0,0.0,3.2364,3.2522,3.3262,3.4668,3.4152,3.4467,3.5693,3.5612,3.5545,3.5493,3.5493,3.6084,3.718,3.7738,3.8623,3.9758,4.0277,4.0489,4.0489,4.0489,4.1527,4.3104,4.3104,4.4124,4.5586,4.5586,4.5586,4.5586,4.5586,4.5586,4.5586,4.5586,4.5586,4.5586,4.5586,4.5586,4.5586,4.5586,4.5586,4.5855,4.7028,4.7721,4.8548,5.0279,5.0702,5.0702,5.0702,5.201,5.3203,5.3203,5.4444,5.5512,5.5682,5.5535,5.5738,5.6643,5.7319,5.8131,5.9324,5.945,5.9458,5.9578,5.9773,5.9458,5.8351,5.9545,5.9677,5.8097,5.8591,5.8654,5.8042,5.8168,5.8238,5.8238,5.8694,5.9084,5.9389,5.9741,5.9823,5.9644,5.9804,5.99,1.6328,0.0,0.0,0.0,0.0,0.0,0.0,0.0,0.0,0.0,0.0,0.0,0.0,0.0,0.0,0.0,0.0,0.0,0.0,0.0,0.0,0.0,0.0,0.0,0.0,0.0,0.0,0.0,0.0,0.0,3.1507,3.1672,3.2539,3.4219,3.3965,3.4446,3.5756,3.5681,3.5622,3.5584,3.5584,3.6007,3.6829,3.7695,3.858,3.945,4.0239,4.0562,4.0489,4.0489,4.1527,4.3104,4.3104,4.4124,4.5586,4.5586,4.5586,4.5586,4.5586,4.5586,4.5586,4.5586,4.5586,4.5586,4.5586,4.5586,4.5586,4.5586,4.5586,4.5855,4.7009,4.8125,4.926,5.0414,5.0702,5.0702,5.0702,5.201,5.3203,5.3203,5.4549,5.5703,5.5703,5.5703,5.5953,5.6722,5.7473,5.8242,5.8992,5.9152,5.9231,5.9389,5.9389,5.9009,5.807,5.9158,5.9319,5.807,5.8461,5.8484,5.8042,5.7997,5.7997,5.7997,5.8326,5.8632,5.8933,5.9267,5.9319,5.9158,5.9319,5.9329,0.0,0.0,0.0,0.0,0.0,0.0,0.0,0.0,0.0,0.0,0.0,0.0,0.0,0.0,0.0,0.0,0.0,0.0,0.0,0.0,0.0,0.0,0.0,0.0,0.0,0.0,0.0,0.0,0.0,3.0633,3.0698,3.0856,3.168,3.3301,3.4141,3.498,3.5859,3.5726,3.5688,3.5694,3.5694,3.6131,3.6986,3.7899,3.8758,3.9604,4.0442,4.0693,4.0519,4.0504,4.1527,4.3104,4.3104,4.4124,4.5586,4.5586,4.5586,4.5586,4.5586,4.5586,4.5586,4.5586,4.5586,4.5586,4.5586,4.5586,4.5586,4.5586,4.5586,4.599,4.7663,4.9375,5.0664,5.0683,5.0702,5.0702,5.0702,5.201,5.3203,5.3203,5.4549,5.5703,5.5703,5.5703,5.5703,5.5742,5.7665,5.8915,5.8396,5.937,5.9916,5.9477,5.9408,5.9009,5.8115,5.8874,5.8971,5.807,5.8418,5.8503,5.8042,5.7997,5.7997,5.7997,5.7997,5.7997,5.7997,5.8894,5.9102,5.8694,5.9158,5.9121,1.6166,0.0,0.0,0.0,0.0,0.0,0.0,0.0,0.0,0.0,0.0,0.0,0.0,0.0,0.0,0.0,0.0,0.0,0.0,0.0,0.0,0.0,0.0,0.0,0.0,0.0,0.0,0.0,0.0,3.0634,3.0691,3.1421,3.2051,3.2519,3.3301,3.4121,3.4941,3.4923,3.5162,3.5696,3.5696,3.5832,3.6112,3.7625,3.8441,3.8733,4.018,4.0762,4.0703,4.0646,4.1604,4.3104,4.3104,4.4124,4.5586,4.5586,4.5586,4.5586,4.5586,4.5586,4.5586,4.5586,4.5586,4.5586,4.5586,4.5586,4.5586,4.5586,4.5586,4.599,4.7663,4.8933,4.9913,5.0548,5.0702,5.0702,5.0702,5.201,5.3203,5.3203,5.4549,5.5703,5.5703,5.5703,5.5972,5.6799,5.8165,5.9127,5.9165,5.9436,5.9677,5.9885,5.9284,5.8814,5.8526,5.8735,5.8632,5.8024,5.8142,5.8142,5.7997,5.7997,5.7997,5.7997,5.7997,5.7997,5.7997,5.8282,5.8307,5.8213,5.8307,5.8307,0.0,0.0,0.0,0.0,0.0,0.0,0.0,2.0952,0.0,0.0,0.0,0.0,0.0,0.0,0.0,0.0,0.0,0.0,0.0,0.0,0.0,0.0,0.0,0.0,0.0,0.0,0.0,0.0,3.0598,3.0684,3.0775,3.1346,3.1816,3.2187,3.2988,3.3809,3.4629,3.5,3.5405,3.5834,3.5834,3.5834,3.5873,3.7632,3.8432,3.853,4.0234,4.0937,4.089,4.0776,4.1498,4.2659,4.297,4.3893,4.5086,4.547,4.5586,4.5586,4.5586,4.5586,4.5586,4.5586,4.5586,4.5586,4.5586,4.5586,4.5586,4.5586,4.6086,4.6874,4.7855,4.9029,5.0067,5.0567,5.0702,5.0702,5.0702,5.201,5.3203,5.3203,5.4549,5.5703,5.5703,5.5703,5.5934,5.6588,5.7877,5.8819,5.8973,5.9223,5.9578,6.0055,5.9084,5.8484,5.8694,5.8526,5.8282,5.8042,5.7997,5.7997,5.7997,5.7997,5.7997,5.7997,5.7997,5.7997,5.7997,5.7997,5.7997,5.7997,5.7997,5.7997,0.0,0.0,0.0,0.0,0.0,0.0,2.1657,2.1404,0.0,0.0,0.0,0.0,0.0,0.0,0.0,0.0,0.0,0.0,0.0,0.0,0.0,0.0,0.0,0.0,0.0,0.0,0.0,3.059,3.0681,3.0773,3.0898,3.0898,3.1269,3.2031,3.2832,3.3672,3.4551,3.543,3.5898,3.5996,3.5996,3.5996,3.6055,3.7812,3.8594,3.8691,4.0443,4.112,4.0982,4.0871,4.1283,4.2075,4.2813,4.3585,4.4412,4.5278,4.5586,4.5586,4.5586,4.5586,4.5586,4.5586,4.5586,4.5586,4.5586,4.5586,4.5586,4.5586,4.6663,4.7875,4.8048,4.924,5.0452,5.0644,5.0702,5.0702,5.0702,5.201,5.3203,5.3203,5.4549,5.5703,5.5703,5.5703,5.5703,5.5703,5.7184,5.83,5.83,5.8997,5.9677,6.0132,5.8913,5.8282,5.8735,5.8326,5.7997,5.7997,5.7997,5.7997,5.7997,5.7997,5.7997,5.7997,5.7997,5.7997,5.7997,5.7997,5.7997,5.7997,5.7997,5.7997,0.0,0.0,0.0,0.0,0.0,0.0,0.0,1.9471,0.0,0.0,0.0,0.0,0.0,0.0,0.0,0.0,0.0,0.0,0.0,0.0,0.0,0.0,0.0,0.0,0.0,0.0,2.9699,3.054,3.0763,3.087,3.0898,3.0898,3.0976,3.1152,3.1992,3.2832,3.3652,3.4512,3.5312,3.5996,3.5996,3.5996,3.6055,3.7812,3.8594,3.8691,4.0446,4.111,4.1001,4.0976,4.1361,4.2075,4.2813,4.3585,4.4412,4.5278,4.5586,4.5586,4.5586,4.5586,4.5586,4.5586,4.5586,4.5586,4.5586,4.5586,4.5586,4.5586,4.5836,4.6394,4.7759,4.8355,4.8952,5.0356,5.0702,5.0702,5.0702,5.201,5.3203,5.3203,5.4549,5.5703,5.5703,5.5703,5.5703,5.5703,5.7184,5.83,5.83,5.9278,6.0132,6.0622,5.9389,5.8775,5.9212,5.8484,5.7997,5.7997,5.7997,5.7997,5.7997,5.7997,5.7997,5.7997,5.7997,5.7997,5.7997,5.7997,5.7997,5.7997,5.7997,5.7997,0.0,0.0,0.0,2.0516,0.0,0.0,0.0,0.0,2.0127,0.0,0.0,0.0,0.0,0.0,0.0,0.0,0.0,0.0,0.0,0.0,0.0,0.0,0.0,0.0,0.0,0.0,2.8973,2.9978,3.0523,3.082,3.0898,3.0898,3.1094,3.1523,3.2363,3.3203,3.4043,3.4902,3.5566,3.5996,3.5996,3.5996,3.6055,3.7812,3.8594,3.8691,4.0449,4.1162,4.1093,4.1029,4.1196,4.1597,4.2717,4.339,4.3855,4.5124,4.5586,4.5586,4.5586,4.5586,4.5586,4.5586,4.5586,4.5586,4.5586,4.5586,4.5586,4.5586,4.5913,4.6528,4.7778,4.8413,4.9086,5.0375,5.0702,5.0702,5.0702,5.201,5.3203,5.3203,5.4549,5.5703,5.5703,5.5703,5.5703,5.5703,5.6799,5.7819,5.8242,5.8767,5.9549,6.0676,5.9319,5.8632,5.9319,5.8526,5.7997,5.7997,5.7997,5.7997,5.7997,5.7997,5.7997,5.7997,5.7997,5.7997,5.7997,5.7997,5.7997,5.7997,5.7997,5.7997,0.0,0.0,0.0,0.0,0.0,2.0605,0.0,0.0,0.0,2.1899,0.0,0.0,0.0,0.0,0.0,0.0,0.0,0.0,0.0,0.0,0.0,0.0,0.0,0.0,0.0,0.0,2.815,2.9135,2.9841,3.0332,3.0625,3.0801,3.1211,3.1934,3.2891,3.373,3.4434,3.5488,3.5996,3.5996,3.5996,3.5996,3.6055,3.7637,3.8437,3.8691,4.0273,4.1037,4.1158,4.108,4.1012,4.1109,4.2611,4.3159,4.3316,4.4989,4.5586,4.5586,4.5586,4.5586,4.5586,4.5586,4.5586,4.5586,4.5586,4.5586,4.5586,4.5586,4.6105,4.6874,4.7855,4.8625,4.9413,5.0452,5.0702,5.0702,5.0702,5.1895,5.301,5.3164,5.4434,5.5511,5.5665,5.5703,5.5703,5.5703,5.6434,5.73,5.8184,5.833,5.8995,6.0638,5.9284,5.8591,5.9338,5.8526,5.7997,5.7997,5.7997,5.7997,5.7997,5.7997,5.7997,5.7997,5.7997,5.7997,5.7997,5.7997,5.7997,5.7997,5.7997,5.7997,0.0,0.0,0.0,0.0,2.0839,0.0,0.0,0.0,1.9672,1.9488,0.0,0.0,0.0,0.0,0.0,0.0,0.0,0.0,0.0,0.0,0.0,0.0,0.0,0.0,0.0,0.0,0.0,2.8097,2.8365,2.8828,2.9629,3.0449,3.0957,3.1035,3.2578,3.3457,3.3555,3.5176,3.5996,3.5996,3.5996,3.5996,3.6035,3.7012,3.7871,3.8652,3.9629,4.0429,4.1038,4.1141,4.1049,4.0975,4.2565,4.3198,4.3376,4.4989,4.5586,4.5586,4.5586,4.5586,4.5586,4.5586,4.5586,4.5586,4.5586,4.5586,4.5586,4.5586,4.5663,4.6105,4.7682,4.8182,4.8663,5.0298,5.0702,5.0702,5.0702,5.1414,5.2279,5.3049,5.3972,5.4857,5.5568,5.5703,5.5703,5.5703,5.6434,5.73,5.8184,5.8904,5.973,6.0704,5.9855,5.9284,5.9389,5.8526,5.7997,5.7997,5.7997,5.7997,5.7997,5.7997,5.7997,5.7997,5.7997,5.7997,5.7997,5.7997,5.7997,5.7997,5.7997,5.7997,0.0,0.0,0.0,0.0,0.0,0.0,0.0,0.0,1.8959,0.0,0.0,0.0,0.0,0.0,0.0,0.0,0.0,0.0,0.0,0.0,0.0,0.0,0.0,0.0,0.0,0.0,0.0,0.0,0.0,2.7959,2.9414,2.9863,3.0566,3.1621,3.2793,3.3633,3.4141,3.5371,3.5996,3.5996,3.5996,3.5996,3.6035,3.6894,3.7773,3.8652,3.9512,4.0351,4.1113,4.1174,4.1123,4.1132,4.2259,4.2895,4.3338,4.453,4.524,4.5586,4.5586,4.5586,4.5586,4.5586,4.5586,4.5586,4.5586,4.5586,4.5586,4.5586,4.5586,4.599,4.7663,4.8105,4.8548,5.0279,5.0702,5.0702,5.0702,5.1337,5.2164,5.3029,5.3895,5.4761,5.5549,5.5703,5.5703,5.5703,5.6011,5.6549,5.7434,5.804,5.8815,5.9931,5.9661,5.9389,5.9389,5.9047,5.8694,5.8418,5.8418,5.8282,5.7997,5.7997,5.7997,5.7997,5.7997,5.7997,5.7997,5.7997,5.7997,5.7997,5.7997,5.7997,2.1417,0.0,0.0,0.0,0.0,0.0,0.0,0.0,0.0,0.0,0.0,0.0,0.0,0.0,0.0,0.0,0.0,0.0,0.0,0.0,0.0,0.0,0.0,0.0,0.0,0.0,0.0,0.0,0.0,0.0,2.9032,2.9391,3.0234,3.1797,3.2851,3.3691,3.4336,3.5449,3.5996,3.5996,3.5996,3.5996,3.6016,3.666,3.7559,3.8633,3.9277,4.0176,4.1191,4.1191,4.1199,4.1256,4.179,4.2512,4.3361,4.4179,4.4972,4.5586,4.5586,4.5586,4.5586,4.5586,4.5586,4.5586,4.5586,4.5586,4.5586,4.5586,4.5586,4.599,4.7663,4.8105,4.8548,5.0279,5.0702,5.0702,5.0702,5.1164,5.1818,5.2683,5.3549,5.4414,5.5222,5.5549,5.5703,5.5703,5.5703,5.6011,5.6876,5.7454,5.8228,5.9373,5.9559,5.9611,5.9611,5.9458,5.9248,5.8913,5.8775,5.8568,5.8213,5.807,5.7997,5.7997,5.7997,5.7997,5.7997,5.7997,5.7997,5.7997,5.7997,5.7997,0.0,0.0,0.0,2.0593,0.0,0.0,0.0,0.0,2.0131,0.0,0.0,0.0,0.0,0.0,0.0,0.0,0.0,0.0,0.0,0.0,0.0,0.0,0.0,0.0,0.0,0.0,0.0,0.0,0.0,0.0,2.8106,2.9097,3.0019,3.0918,3.2539,3.3418,3.3437,3.5137,3.5996,3.5996,3.5996,3.5996,3.5996,3.6035,3.6973,3.8594,3.8633,3.9609,4.1191,4.1191,4.1191,4.1191,4.123,4.2116,4.3481,4.4234,4.4972,4.5586,4.5586,4.5586,4.5586,4.5586,4.5586,4.5586,4.5586,4.5586,4.5586,4.5586,4.5586,4.599,4.7663,4.8105,4.8548,5.0279,5.0702,5.0702,5.0702,5.0721,5.0971,5.1798,5.2664,5.353,5.4395,5.5184,5.5703,5.5703,5.5703,5.6011,5.6876,5.7761,5.8585,5.9415,5.9867,6.0084,6.0084,5.9677,5.9389,5.9389,5.8933,5.8694,5.8654,5.8238,5.7997,5.7997,5.7997,5.7997,5.7997,5.7997,5.7997,5.7997,5.7997,5.7997,0.0,0.0,2.3865,2.199,0.0,0.0,0.0,0.0,0.0,0.0,0.0,0.0,0.0,0.0,0.0,0.0,0.0,0.0,0.0,0.0,0.0,0.0,0.0,0.0,0.0,0.0,0.0,0.0,0.0,0.0,0.0,2.8198,2.9089,3.0019,3.2226,3.3398,3.3398,3.5137,3.5996,3.5996,3.5996,3.5996,3.5996,3.5996,3.6953,3.8594,3.8594,3.959,4.1191,4.1191,4.1191,4.1191,4.1191,4.2155,4.3559,4.3717,4.4549,4.5586,4.5586,4.5586,4.5586,4.5586,4.5586,4.5586,4.5586,4.5586,4.5586,4.5586,4.5586,4.6026,4.7777,4.8182,4.8567,5.0394,5.076,5.0702,5.0702,5.0702,5.1106,5.2491,5.301,5.3645,5.5049,5.5511,5.5703,5.5703,5.5703,5.5799,5.6088,5.7396,5.8396,5.8684,5.9821,6.0437,6.0132,5.9946,5.9855,5.9855,5.9709,5.9354,5.8735,5.8568,5.8307,5.7997,5.7997,5.7997,5.7997,5.7997,5.7997,5.7997,5.7997,5.7997,2.304,2.3918,0.0,0.0,2.2699,0.0,2.0162,0.0,0.0,0.0,0.0,0.0,0.0,0.0,0.0,0.0,0.0,0.0,0.0,0.0,0.0,0.0,0.0,0.0,0.0,0.0,2.3283,2.4533,0.0,0.0,0.0,0.0,2.8621,2.957,3.207,3.3398,3.3398,3.5137,3.5996,3.5996,3.5996,3.5996,3.5996,3.5996,3.6953,3.8594,3.8594,3.959,4.1191,4.1191,4.1191,4.1191,4.1191,4.2188,4.3582,4.3442,4.432,4.5586,4.5586,4.5586,4.5586,4.5586,4.5586,4.5586,4.5586,4.5586,4.5586,4.5586,4.5624,4.6084,4.7853,4.8251,4.8632,5.0452,5.0818,5.0702,5.0702,5.0702,5.1087,5.2472,5.2991,5.3645,5.503,5.5511,5.5703,5.5703,5.5703,5.5703,5.5703,5.7223,5.83,5.83,5.98,6.069,6.0365,6.0338,6.0338,6.0338,6.0189,5.9823,5.9212,5.8874,5.8568,5.8238,5.8115,5.7997,5.7997,5.7997,5.7997,5.7997,5.7997,5.7997]},{"header":{"parameterUnit":"m.s-1","parameterCategory":1,"la1":30.6,"la2":29.2853,"lo1":-89.7004,"lo2":-87.6739,"dy":0.0162,"dx":0.0183,"nx":112,"ny":82,"refTime":"2025-04-15T06:00:00:Z","depth":0,"parameterNumber":3,"parameterNumberName":"V-component_of_WINDS"},"data":[0.0,0.0,0.0,0.0,0.0,0.0,0.0,0.0,0.0,0.0,0.0,0.0,0.0,0.0,0.0,0.0,0.0,0.0,0.0,0.0,0.0,0.0,0.0,0.0,0.0,0.0,0.0,0.0,0.0,0.0,0.0,0.0,0.0,0.0,0.0,0.0,0.0,0.0,0.0,0.0,0.0,0.0,0.0,0.0,0.0,0.0,0.0,0.0,0.0,0.0,0.0,0.0,0.0,0.0,0.0,0.0,0.0,0.0,0.0,0.0,0.0,0.0,0.0,0.0,0.0,0.0,0.0,0.0,0.0,0.0,0.0,0.0,0.0,0.0,0.0,0.0,0.0,0.0,0.0,0.0,0.0,0.0,0.0,0.0,0.0,0.0,0.0,0.0,0.0,0.0,0.0,-0.0258,0.0,0.0,0.0,0.0,0.0,0.0,0.0,0.0,0.0,0.0,0.0,0.0,0.0,0.0,0.0,0.0,0.0,0.0,0.0,0.0,0.0,0.0,0.0,0.0,0.0,0.0,0.0,0.0,0.0,0.0,0.0,0.0,0.0,0.0,0.0,0.0,0.0,0.0,0.0,0.0,0.0,0.0,0.0,0.0,0.0,0.0,0.0,0.0,0.0,0.0,0.0,0.0,0.0,0.0,0.0,0.0,0.0,0.0,0.0,0.0,0.0,0.0,0.0,0.0,0.0,0.0,0.0,0.0,0.0,0.0,0.0,0.0,0.0,0.0,0.0,0.0,0.0,0.0,0.0,0.0,0.0,0.0,0.0,0.0,0.0,0.0,0.0,0.0,0.0,0.0,0.0,0.0,0.0,0.0,0.0,0.0,0.0,0.0,0.0,0.0,0.0,0.0,0.0,0.0,0.0,0.0,0.0,0.0,0.0,0.0,-0.0489,-0.0095,0.0,0.0,0.0,0.0,0.0,0.0,0.0,0.0,0.0,0.0,0.0,0.0,0.0,0.0,0.0,0.0,0.0,0.0,0.0,0.0,0.0,0.0,0.0,0.0,0.0,0.0,0.0,0.0,0.0,0.0,0.0,0.0,0.0,0.0,0.0,0.0,0.0,0.0,0.0,0.0,0.0,0.0,0.0,0.0,0.0,0.0,0.0,0.0,0.0,0.0,0.0,0.0,0.0,0.0,0.0,0.0,0.0,0.0,0.0,0.0,0.0,0.0,0.0,0.0,0.0,0.0,0.0,0.0,0.0,0.0,0.0,0.0,0.0,0.0,0.0,0.0,0.0,0.0,0.0,0.0,0.0,0.0,0.0,0.0,0.0,0.0,0.0,0.0,0.0,0.0,0.0,0.0,0.0,0.0,0.0,0.0,0.0,0.0,0.0,0.0,0.0,0.0,0.0,0.0,0.0,0.0,0.0,0.0,0.0,0.0,0.0,0.0,0.0,0.0,0.0,0.0,0.0821,0.2794,0.109,0.0,0.0,0.0,0.0,0.0,0.0,0.0,0.0,0.0,0.0,0.0,0.0,0.0,0.0,0.0,0.0,0.0,0.0,0.0,0.0,0.0,0.0,0.0,0.0,0.0,0.0,0.0,0.0,0.0,0.0,0.0,0.0,0.0,0.0,0.0,0.0,0.0,0.0,0.0,0.0,0.0,0.0,0.0,0.0,0.0,0.0,0.0,0.0,0.0,0.0,0.0,0.0,0.0,0.0,0.0,0.0,0.0,0.0,0.0,0.0,0.0,0.0,0.0,0.0,0.0,0.0,0.0,0.0,0.0,0.0,0.0,0.0,0.0,0.0,0.0,0.0,0.0,0.0,0.0,0.0,0.0,0.0,0.0,0.0,0.0,0.0,0.0,0.0,0.0,0.0,0.0,0.0,0.0,0.0,0.0,0.0,0.0,0.0,0.0,0.0,0.0,0.0,0.0,0.0,0.0,0.0,0.0,0.0,0.0,0.1448,0.4969,0.2725,0.0,0.0,0.0,0.0,0.0,0.0,0.0,0.0,0.0,0.0,0.0,0.0,0.0,0.0,0.0,0.0,0.0,0.0,0.0,0.0,0.0,0.0,0.0,0.0,0.0,0.0,0.0,0.0,0.0,0.0,0.0,0.0,0.0,0.0,0.0,0.0,0.0,0.0,0.0,0.0,0.0,0.0,0.0,0.0,0.0,0.0,0.0,0.0,0.0,0.0,0.0,0.0,0.0,0.0,0.0,0.0,0.0,0.0,0.0,0.0,0.0,0.0,0.0,0.0,0.0,0.0,0.0,0.0,0.0,0.0,0.0,0.0,0.0,0.0,0.0,0.0,0.0,0.0,0.0,0.0,0.0,0.0,0.0,0.0,0.0,0.0,0.0,0.0,0.0,0.0,0.0,0.0,0.0,0.0,0.0,0.0,0.0,0.0,0.0,0.0,0.0,0.0,0.0,0.0,0.0,0.0,0.0,0.0,0.0,0.1288,0.4344,0.4876,0.0,0.0,0.0,0.0,0.0,0.0,0.0,0.0,0.0,0.0,0.0,0.0,0.0,0.0,0.0,0.0,0.0,0.0,0.0,0.0,0.0,0.0,0.0,0.0,0.0,0.0,0.0,0.0,0.0,0.0,0.0,0.0,0.0,0.0,0.0,0.0,0.0,0.0,0.0,0.0,0.0,0.0,0.0,0.0,0.0,0.0,0.0,0.0,0.0,0.0,0.0,0.0,0.0,0.0,0.0,0.0,0.0,0.0,0.0,0.0,0.0,0.0,0.0,0.0,0.0,0.0,0.0,0.0,0.0,0.0,0.0,0.0,0.0,0.0,0.0,0.0,0.0,0.0,0.0,0.0,0.0,0.0,0.0,0.0,0.0,0.0,0.0,0.0,0.0,0.0,0.0,0.0,0.0,0.0,0.0,0.0,0.0,0.0,0.0,0.0,0.0,0.0,0.0,0.0,0.0,0.0,0.0,0.0,0.0,0.089,0.2941,0.0,0.0,0.0,0.0,0.0,0.0,0.0,0.0,0.0,0.0,0.0,0.0,0.0,0.0,0.0,0.0,0.0,0.0,0.0,0.0,0.0,0.0,0.0,0.0,0.0,0.0,0.0,0.0,0.0,0.0,0.0,0.0,0.0,0.0,0.0,0.0,0.0,0.0,0.0,0.0,0.0,0.0,0.0,0.0,0.0,0.0,0.0,0.0,0.0,0.0,0.0,0.0,0.0,0.0,0.0,0.0,0.0,0.0,0.0,0.0,0.0,0.0,0.0,0.0,0.0,0.0,0.0,0.0,0.0,0.0,0.0,0.0,0.0,0.0,0.0,0.0,0.0,0.0,0.0,0.0,0.0,0.0,0.0,0.0,0.0,0.0,0.0,0.0,0.0,0.0,0.0,0.0,0.0,0.0,0.0,0.0,0.0,0.0,0.0,0.0,0.0,0.0,0.0,0.0,0.0,0.0,0.0,0.0,0.0,0.0,0.0619,0.2096,0.0,0.0,0.0,0.0,0.0,0.0,0.0,0.0,0.0,0.0,0.0,0.0,0.0,0.0,0.0,0.0,0.0,0.0,0.0,0.0,0.0,0.0,0.0,0.0,0.0,0.0,0.0,0.0,0.0,0.0,0.0,0.0,0.0,0.0,0.0,0.0,0.0,0.0,0.0,0.0,0.0,0.0,0.0,0.0,0.0,0.0,0.0,0.0,0.0,0.0,0.0,0.0,0.0,0.0,0.0,0.0,0.0,0.0,0.0,0.0,0.0,0.0,0.0,0.0,0.0,0.0,0.0,0.0,0.0,0.0,0.0,0.0,0.0,0.0,0.0,0.0,0.0,0.0,0.0,0.0,0.0,0.0,0.0,0.0,0.0,0.0,0.0,0.0,0.0,0.0,0.0,0.0,0.0,0.0,0.0,0.0,0.0,0.0,0.0,0.0,0.0,0.0,0.0,0.0,0.0,0.0,0.0,0.0,0.0,0.0,0.066,0.0,0.0,0.0,0.0,0.0,0.0,0.0,0.0,0.0,0.0,0.0,0.0,0.0,0.0,0.0,0.0,0.0,0.0,0.0,0.0,0.0,0.0,0.0,0.0,0.0,0.0,0.0,0.0,0.0,0.0,0.0,0.0,0.0,0.0,0.0,0.0,0.0,0.0,0.0,0.0,0.0,0.0,0.0,0.0,0.0,0.0,0.0,0.0,0.0,0.0,0.0,0.0,0.0,0.0,0.0,0.0,0.0,0.0,0.0,0.0,0.0,0.0,0.0,0.0,0.0,0.0,0.0,0.0,0.0,0.0,0.0,0.0,0.0,0.0,0.0,0.0,0.0,0.0,0.0,0.0,0.0,0.0,0.0,0.0,0.0,0.0,0.0,0.0,0.0,0.0,0.0,0.0,0.0,0.0,0.0,0.0,0.0,0.0,0.0,0.0,0.0,0.0,0.0,0.0,0.0,0.0,0.0,0.0,0.0,0.0,0.0,0.0173,0.063,0.0,0.0,0.0,0.0,0.0,0.0,0.0,0.0,0.0,0.0,0.0,0.0,0.0,0.0,0.0,0.0,0.0,0.0,0.0,0.0,0.0,0.0,0.0,0.0,0.0,0.0,0.0,0.0,0.0,0.0,0.0,0.0,0.0,0.0,0.0,0.0,0.0,0.0,0.0,0.0,0.0,0.0,0.0,0.0,0.0,0.0,0.0,0.0,0.0,0.0,0.0,0.0,0.0,0.0,0.0,0.0,0.0,0.0,0.0,0.0,0.0,0.0,0.0,0.0,0.0,0.0,0.0,0.0,0.0,0.0,0.0,0.0,0.0,0.0,0.0,0.0,0.0,0.0,0.0,0.0,0.0,0.0,0.0,0.0,0.0,0.0,0.0,0.0,0.0,0.0,0.0,0.0,0.0,0.0,0.0,0.0,0.0,0.0,0.0,0.0,0.0,0.0,0.0,0.0,0.0,0.0,0.0,0.0,0.0,0.0,0.0,0.0,0.0,0.0,0.0,0.0,0.0,0.0,0.0,0.0,0.0,0.0,0.0,0.0,0.0,0.0,0.0,0.0,0.0,0.0,0.0,0.0,0.0,0.0,0.0,0.0,0.0,0.0,0.0,0.0,0.0,0.0,0.0,0.0,0.0,0.0,0.0,0.0,0.0,0.0,0.0,0.0,0.0,0.0,0.0,0.0,0.0,0.0,0.0,0.0,0.0,0.0,0.0,0.0,0.0,0.0,0.0,0.0,0.0,0.0,0.0,0.0,0.0,0.0,0.0,0.0,0.0,0.0,0.0,0.0,0.0,0.0,0.0,0.0,0.0,0.0,0.0,0.0,0.0,0.0,0.0,0.0,0.0,0.0,0.0,0.0,0.0,0.0,0.0,0.0,0.0,0.0,0.0,0.0,0.0,0.0,0.0,0.0,0.0,0.0,0.0,0.0,0.0,0.0,0.0,0.0,0.0,0.0,0.0,0.0,0.0,0.0,0.0,0.0,0.0,0.0,0.0,0.0,0.0,0.0,0.0,0.0,0.0,0.0,0.0,0.0,0.0,0.0,0.0,0.0,0.0,0.0,0.0,0.0,0.0,0.0,0.0,0.0,0.0,0.0,0.0,0.0,0.0,0.0,0.0,0.0,0.0,0.0,0.0,0.0,0.0,0.0,0.0,0.0,0.0,0.0,0.0,0.0,0.0,0.0,0.0,0.0,0.0,0.0,0.0,0.0,0.0,0.0,0.0,0.0,0.0,0.0,0.0,0.0,-0.5235,0.0,0.0,0.0,0.0,0.0,0.0,0.0,0.0,0.0,0.0,0.0,0.0,0.0,0.0,0.0,0.0,0.0,0.0,0.0,0.0,0.0,0.0,0.0,0.0,0.0,0.0,0.0,0.0,0.0,0.0,0.0,0.0,0.0,0.0,0.0,0.0,0.0,0.0,0.0,0.0,0.0,0.0,0.0,0.0,0.0,0.0,0.0,0.0,0.0,0.0,0.0,0.0,0.0,0.0,0.0,0.0,0.0,0.0,0.0,0.0,0.0,0.0,0.0,0.0,0.0,0.0,0.0,0.0,0.0,0.0,0.0,0.0,0.0,0.0,0.0,0.0,0.0,0.0,0.0,0.0,0.0,0.0,0.0,0.0,0.0,0.0,0.0,0.0,0.0,0.0,0.0,0.0,0.0,0.0,0.0,0.0,0.0,0.0,0.0,0.0,0.0,0.0,0.0,0.0,0.0,0.0,0.0,0.0,0.0,0.0,0.0,0.0,-0.5333,0.0,0.0,0.0,0.0,0.0,0.0,0.0,0.0,0.0,0.0,0.0,0.0,0.0,0.0,0.0,0.0,0.0,0.0,0.0,0.0,0.0,0.0,0.0,0.0,0.0,0.0,0.0,0.0,0.0,0.0,0.0,0.0,0.0,0.0,0.0,0.0,0.0,0.0,0.0,0.0,0.0,0.0,0.0,0.0,0.0,0.0,0.0,0.0,0.0,0.0,0.0,0.0,0.0,0.0,0.0,0.0,0.0,0.0,0.0,0.0,0.0,0.0,0.0,0.0,0.0,0.0,0.0,0.0,0.0,0.0,0.0,0.0,0.0,0.0,0.0,0.0,0.0,0.0,0.0,0.0,0.0,0.0,0.0,0.0,0.0,0.0,0.0,0.0,0.0,0.0,0.0,0.0,0.0,0.0,0.0,0.0,0.0,0.0,0.0,0.0,0.0,0.0,0.0,0.0,0.0,0.0,-0.6424,-0.6641,-0.6542,-0.6203,-0.6342,-0.6279,-0.6097,0.0,0.0,0.0,0.0,0.0,0.0,0.0,0.0,0.0,0.0,0.0,0.0,0.0,0.0,0.0,0.0,0.0,0.0,0.0,0.0,0.0,0.0,0.0,0.0,0.0,-0.6061,-0.6138,0.0,0.0,0.0,0.0,0.0,0.0,0.0,0.0,0.0,0.0,0.0,0.0,0.0,0.0,0.0,0.0,0.0,0.0,0.0,0.0,0.0,0.0,0.0,0.0,0.0,0.0,0.0,0.0,0.0,0.0,0.0,0.0,0.0,0.0,0.0,0.0,0.0,0.0,0.0,0.0,0.0,0.0,0.0,0.0,0.0,0.0,0.0,0.0,0.0,0.0,0.0,0.0,0.0,0.0,0.0,0.0,-0.482,-0.4857,0.0,0.0,0.0,0.0,0.0,0.0,0.0,0.0,0.0,0.0,0.0,0.0,0.0,0.0,-0.5711,-0.6017,-0.6234,-0.6438,-0.675,-0.6949,-0.6966,-0.7073,-0.6997,-0.699,-0.8203,0.0,-0.8769,-0.8595,0.0,0.0,0.0,0.0,0.0,0.0,0.0,0.0,0.0,0.0,0.0,0.0,0.0,0.0,0.0,0.0,0.0,0.0,0.0,0.0,0.0,0.0,-0.6283,-0.6731,-0.6935,-0.6957,0.0,-0.5994,-0.5564,-0.6475,0.0,0.0,0.0,0.0,0.0,0.0,0.0,0.0,0.0,0.0,0.0,0.0,0.0,0.0,0.0,0.0,0.0,0.0,0.0,0.0,0.0,0.0,0.0,0.0,0.0,0.0,0.0,0.0,0.0,0.0,0.0,0.0,0.0,0.0,0.0,0.0,0.0,0.0,0.0,0.0,0.0,0.0,0.0,0.0,0.0,0.0,0.0,0.0,0.0,0.0,0.0,-0.2268,-0.4122,-0.4786,-0.4876,-0.484,0.0,0.0,0.0,0.0,0.0,0.0,0.0,0.0,0.0,-0.6467,-0.6219,-0.6156,-0.6305,-0.6692,-0.6915,-0.698,-0.72,-0.7339,-0.7397,-0.8113,-0.8465,-0.8556,-1.0249,-1.0828,-1.0621,-0.9954,-0.9312,-0.8783,0.0,0.0,0.0,0.0,0.0,-0.9429,-1.0435,0.0,0.0,0.0,0.0,0.0,0.0,0.0,0.0,0.0,0.0,0.0,0.0,0.0,0.0,-0.7073,-0.7107,-0.7073,-0.7133,-0.6675,-0.6437,0.0,-0.5772,-0.4986,-0.5026,0.0,0.0,0.0,0.0,0.0,0.0,0.0,0.0,0.0,0.0,0.0,0.0,0.0,0.0,0.0,0.0,0.0,0.0,0.0,-0.0622,0.0,0.0,0.0,0.0,0.0,0.0,0.0,0.0,0.0,0.0,0.0,0.0,0.0,0.0,0.0,0.0,0.0,0.0,0.0,0.0,0.0,0.0,0.0,0.0,0.0,0.0,0.0,0.0,-0.1801,-0.3579,-0.4908,-0.5133,-0.5101,0.0,0.0,0.0,0.0,0.0,0.0,-0.6643,-0.6921,-0.7056,-0.7211,-0.723,-0.7272,-0.7432,-0.8143,-0.8444,-0.849,-0.8617,-0.8702,-0.8744,-0.9472,-0.9742,-0.9831,-1.1569,-1.2069,-1.1777,-1.147,-1.0612,-0.9669,-0.9695,-1.0271,0.0,-1.141,-1.1995,-1.277,-1.2739,-1.2764,-1.2056,-0.7888,0.0,-0.6783,-0.6455,0.0,0.0,0.0,0.0,-0.6467,-0.6507,0.0,-0.7176,-0.7317,-0.7339,-0.7343,-0.7309,-0.7168,-0.6947,0.0,-0.6157,-0.5799,-0.5681,0.0,0.0,0.0,0.0,-0.135,-0.018,0.0,0.0,0.0,0.0,0.0,0.0,0.0,0.0,0.0,0.0,0.0,0.0,0.0,0.0,0.0,0.0,0.0,0.0,0.0,0.0,0.0,0.0,0.0,0.0,0.0,0.0,0.0,0.0,0.0,0.0,0.0,0.0,0.0,0.0,0.0,0.0,0.0,0.0,0.0,0.0,0.0,0.0,0.0,0.0,-0.5526,-0.5663,0.0,0.0,0.0,0.0,-0.5545,-0.6522,-0.6911,-0.6562,-0.745,-0.777,-0.7379,-0.8567,-0.9194,-0.9372,-1.0683,-1.1364,-1.1482,-1.1492,-1.1512,-1.1619,-1.0891,-1.0577,-1.0577,-1.15,-1.1936,-1.1992,-1.3358,-1.3182,-1.2091,-1.2145,-1.2158,-1.2378,-1.3525,-1.3986,-1.3975,-1.3994,-1.403,-1.3251,-0.8568,-0.6737,-0.6358,-0.6295,-0.3366,0.0,0.0,-0.3388,-0.7049,-0.7061,-0.7072,-0.7227,-0.7833,-0.7976,-0.7983,-0.7966,-0.748,-0.7073,0.0,-0.7034,-0.6849,-0.6346,0.0,0.0,-0.5836,-0.6389,-0.5134,-0.0564,0.0,0.0,0.0,0.0,0.0,0.0,0.0,0.0,0.0,0.0,0.0,0.0,0.0,0.0,0.0,-0.2929,0.0,0.0,0.0,0.0,0.0,0.0,0.0,0.0,0.0,0.0,0.0,0.0,0.0,0.0,0.0,0.0,0.0,0.0,0.0,0.0,0.0,0.0,0.0,0.0,0.0,0.0,0.0,0.0,-0.5869,-0.6092,0.0,0.0,-0.5823,-0.6003,-0.6149,-0.6606,-0.6898,-0.7114,-0.7453,-0.7606,-0.7509,-0.8905,-0.9643,-0.9703,-1.1062,-1.1748,-1.1829,-1.1211,-1.1042,-1.1113,-1.1361,-1.1433,-1.1535,-1.3509,-1.4392,-1.4456,-1.4958,-1.452,-1.3458,-1.3449,-1.3483,-1.3542,-1.3937,-1.4077,-1.4117,-1.4089,-1.2102,-0.9292,-0.7642,-0.7,-0.6853,-0.6829,-0.3624,0.0,0.0,-0.121,-0.2562,-0.2571,-0.5092,-0.7702,-0.7945,-0.8021,-0.7959,-0.7955,-0.7835,-0.7725,-0.7642,-0.739,-0.7046,-0.6829,-0.6433,-0.6328,-0.6776,-0.7309,-0.7102,-0.5398,-0.2172,0.0,0.0,0.0,0.0,0.0,0.0,0.0,0.0,0.0,0.0,0.0,0.0,0.0,0.0,-0.2952,-0.4672,0.0,0.0,0.0,0.0,0.0,0.0,0.0,0.0,0.0,0.0,0.0,0.0,0.0,0.0,0.0,0.0,0.0,0.0,0.0,0.0,0.0,0.0,0.0,0.0,0.0,0.0,-0.6272,-0.6347,-0.6511,-0.6488,-0.6139,-0.638,-0.6617,-0.6766,-0.6871,-0.7102,-0.7499,-0.7519,-0.759,-0.7743,-0.956,-1.0482,-1.0482,-1.2352,-1.321,-1.3204,-1.2582,-1.2383,-1.241,-1.2962,-1.3239,-1.3341,-1.507,-1.583,-1.5684,-1.3878,-1.2731,-1.2205,-1.4016,-1.3598,-1.2053,-1.2002,-1.317,-1.4387,-1.2637,-1.0057,-0.7433,-0.7372,-0.741,-0.7347,-0.7197,-0.3809,0.0,0.0,0.0,0.0,0.0,-0.2622,-0.5728,-0.7524,-0.7991,-0.8021,-0.8014,-0.799,-0.7962,-0.7966,-0.7681,-0.7387,-0.7375,-0.7417,-0.7375,-0.742,-0.7773,-0.8037,-0.8004,-0.4881,-0.2709,-0.2717,-0.1107,0.0,0.0,0.0,0.0,0.0,0.0,0.0,0.0,0.0,0.0,0.0,-0.3336,-0.5421,-0.5969,0.0,0.0,0.0,0.0,0.0,0.0,0.0,0.0,0.0,0.0,0.0,0.0,0.0,0.0,0.0,0.0,0.0,0.0,0.0,0.0,0.0,0.0,0.0,-0.4069,-0.5596,-0.6761,-0.7092,-0.7011,-0.6888,-0.6742,-0.6987,-0.7217,-0.7373,-0.7387,-0.7512,-0.7801,-0.7818,-0.7885,-0.8035,-1.048,-1.1848,-1.1945,-1.4472,-1.5838,-1.5838,-1.5838,-1.5797,-1.58,-1.5595,-1.5582,-1.5588,-1.5698,-1.5807,-1.5377,-1.0167,-0.8004,-0.8459,-1.3564,-1.2494,-0.8011,-0.8011,-1.1206,-1.4851,-0.9736,-0.7955,-0.8001,-0.8001,-0.7998,-0.7904,-0.7259,-0.3799,0.0,0.0,0.0,0.0,0.0,0.0,-0.1307,-0.6548,-0.7869,-0.7965,-0.8045,-0.8038,-0.8038,-0.8038,-0.8007,-0.8001,-0.8001,-0.8001,-0.7956,-0.7997,-0.8018,0.0,-0.7952,-0.7972,-0.7985,-0.8019,-0.3222,0.0,0.0,0.0,0.0,0.0,0.0,0.0,0.0,0.0,-0.0085,-0.0163,-0.4254,-0.6603,-0.7068,0.0,0.0,0.0,0.0,0.0,0.0,0.0,0.0,0.0,0.0,0.0,0.0,0.0,0.0,0.0,0.0,0.0,0.0,0.0,0.0,0.0,0.0,-0.5621,-0.5489,-0.5851,-0.6441,-0.7049,-0.7173,-0.7278,-0.7346,-0.7424,-0.7533,-0.7678,-0.7689,-0.7677,-0.7967,-0.7977,-0.7994,-0.8038,-0.8682,-0.9947,-1.1848,-1.4443,-1.5754,-1.5754,-1.5754,-1.582,-1.5635,-1.1905,-1.0158,-1.036,-1.4122,-1.5784,-1.542,-1.0138,-0.8038,-0.8188,-0.962,-0.9251,-0.8007,-0.8007,-0.891,-0.993,-0.8481,-0.8007,-0.8021,-0.8021,-0.8042,-0.7959,-0.7807,-0.4131,0.0,0.0,0.0,0.0,0.0,0.0,-0.0402,-0.1809,-0.5129,-0.7972,-0.7965,-0.7952,-0.8038,-0.8038,-0.7977,-0.8021,-0.8021,-0.8021,-0.8034,-0.7974,0.0,0.0,-0.8041,-0.8048,-0.7962,-0.7995,-0.3213,0.0,0.0,0.0,0.0,0.0,0.0,0.0,0.0,0.0,-0.1425,-0.4491,-0.6074,-0.6881,0.0,0.0,0.0,0.0,0.0,0.0,0.0,0.0,0.0,0.0,0.0,0.0,0.0,0.0,0.0,0.0,0.0,0.0,0.0,0.0,0.0,0.0,-0.5652,-0.6325,-0.6441,-0.6481,-0.6605,-0.7092,-0.7333,-0.7526,-0.7577,-0.7746,-0.7818,-0.7899,-0.7808,-0.7848,-0.8035,-0.8038,-0.8038,-0.8038,-0.7984,-0.8735,-1.0294,-1.3937,-1.58,-1.58,-1.58,-1.5789,-1.5647,-1.0347,-0.8004,0.0,-1.1175,-1.2562,-1.2294,-0.9276,-0.7987,0.0,0.0,0.0,0.0,0.0,-0.7991,-0.7994,-0.8028,-0.8038,-0.8038,-0.8038,-0.7987,-0.8028,-0.7963,-0.4224,0.0,0.0,0.0,0.0,0.0,0.0,0.0,0.0,-0.2409,-0.5222,-0.7563,-0.7955,-0.8038,-0.8038,0.0,0.0,-0.8038,-0.8038,-0.8038,-0.8038,-0.8038,-0.8038,0.0,-0.8038,-0.7952,-0.7985,-0.321,0.0,0.0,0.0,0.0,0.0,0.0,0.0,0.0,0.0,0.0,0.0,0.0,0.0,0.0,0.0,0.0,0.0,-0.6768,-0.6895,0.0,0.0,0.0,0.0,0.0,0.0,0.0,0.0,0.0,0.0,0.0,0.0,0.0,0.0,0.0,0.0,-0.5993,-0.6546,-0.7048,-0.7146,-0.7121,-0.7177,-0.7434,-0.7662,-0.7624,-0.7858,-0.8038,-0.8038,-0.8038,-0.8038,-0.8038,0.0,0.0,0.0,0.0,-0.8034,-0.7976,-1.3227,-1.5833,-1.5833,-1.5191,-1.4892,-1.4783,-1.0117,-0.7963,-0.7963,-0.7963,-0.7963,-0.7963,-0.7963,-0.7994,-0.8038,-0.8038,-0.8038,-0.8038,-0.8038,-0.8038,0.0,0.0,0.0,0.0,-0.8038,-0.7955,-0.7872,-0.7266,-0.3822,0.0,0.0,0.0,0.0,0.0,0.0,0.0,0.0,0.0,-0.1502,-0.6848,-0.7955,-0.8038,-0.8038,-0.8038,-0.8038,-0.8038,-0.8038,-0.8038,-0.8038,-0.8038,0.0,-0.8038,-0.8038,-0.7952,-0.7985,0.0,0.0,0.0,0.0,0.0,0.0,0.0,0.0,0.0,0.0,0.0,0.0,-0.4478,-0.6996,-0.7611,-0.7499,-0.7404,-0.7492,-0.7817,-0.8166,0.0,0.0,0.0,0.0,0.0,0.0,0.0,0.0,0.0,0.0,0.0,0.0,0.0,0.0,0.0,-0.6397,-0.6727,-0.704,-0.741,-0.7485,-0.7437,-0.7396,-0.7466,-0.7702,-0.7868,-0.7922,-0.8038,-0.8038,-0.8038,-0.8038,-0.8038,-0.8038,0.0,-0.8038,-0.8028,-0.7994,-0.8038,-1.3199,-1.579,-1.5784,0.0,0.0,-0.9466,-0.8435,-0.8021,-0.8021,-0.8021,-0.8021,-0.8021,-0.8021,-0.8028,-0.8038,-0.8038,-0.8038,-0.8038,-0.8038,-0.8038,-0.8038,-0.8038,-0.8038,-0.8038,-0.8038,-0.7955,-0.7153,-0.2907,-0.0803,0.0,0.0,0.0,0.0,0.0,0.0,0.0,0.0,0.0,-0.1502,-0.6856,-0.7962,-0.8038,-0.8038,-0.8038,-0.8038,-0.8038,-0.8038,-0.8038,-0.8038,-0.8038,-0.8038,-0.8038,-0.8038,-0.7952,-0.7985,-0.321,0.0,0.0,0.0,0.0,0.0,0.0,0.0,0.0,0.0,0.0,0.0,-0.3056,-0.5496,-0.7411,-0.7509,-0.7614,-0.7719,-0.7707,-0.7652,0.0,0.0,0.0,0.0,0.0,0.0,0.0,0.0,0.0,0.0,0.0,-0.3147,-0.6176,0.0,-0.6733,-0.6883,-0.6976,-0.7121,-0.7324,-0.7622,-0.766,-0.7289,-0.7607,-0.789,-0.8018,-0.8038,-0.8038,-0.8038,-0.8038,-0.8038,-0.8038,-0.8038,-0.8038,-0.8038,-0.8038,-0.8011,-0.7953,-1.0618,-1.1875,-1.1875,-0.9276,-0.7984,-0.8038,-0.8038,-0.8038,-0.8038,-0.8038,-0.8038,-0.8038,-0.8038,-0.8038,-0.8038,-0.8038,-0.8038,-0.8038,-0.8038,-0.8038,-0.8038,-0.8038,-0.8038,-0.8038,-0.8038,-0.7959,-0.6956,-0.1603,0.0,0.0,0.0,0.0,0.0,0.0,0.0,0.0,0.0,0.0,-0.1502,-0.6859,-0.7962,-0.8038,-0.8038,-0.8038,-0.8038,-0.8038,-0.8038,-0.8038,-0.8038,-0.8038,-0.8038,-0.8038,-0.8038,-0.7952,-0.7985,-0.321,0.0,0.0,0.0,0.0,0.0,0.0,0.0,0.0,0.0,0.0,0.0,-0.2589,-0.5211,-0.7654,-0.7797,-0.7855,-0.7923,-0.7851,-0.778,0.0,0.0,0.0,0.0,0.0,0.0,0.0,0.0,-0.293,-0.2902,-0.1364,-0.115,-0.5041,-0.6146,-0.639,-0.635,-0.6754,-0.6976,-0.6474,-0.6882,-0.7163,-0.7298,-0.7717,-0.7973,-0.8024,-0.8038,-0.8038,-0.8038,-0.8038,-0.8038,-0.8038,-0.8038,-0.8038,-0.8038,-0.8038,-0.8018,-0.797,-0.797,-0.797,-0.797,-0.797,-0.7994,-0.8038,-0.8038,-0.8038,-0.8038,-0.8038,-0.8038,-0.8038,-0.8038,-0.8038,-0.8038,-0.8038,-0.8038,-0.8038,-0.8038,-0.8038,-0.8038,-0.8038,-0.8038,-0.8038,-0.8038,-0.7962,-0.6962,-0.1603,0.0,0.0,0.0,0.0,0.0,0.0,0.0,0.0,0.0,0.0,-0.1502,-0.6859,-0.7962,-0.8038,-0.8038,-0.8038,-0.8038,-0.8038,-0.8038,-0.8038,-0.8038,-0.8038,-0.8038,-0.8038,-0.8038,-0.7952,-0.7985,-0.321,0.0,0.0,0.0,0.0,0.0,0.0,0.0,0.0,0.0,0.0,0.0,-0.2656,-0.5356,-0.7992,-0.8085,-0.8082,-0.8085,-0.8113,-0.8109,0.0,0.0,0.0,0.0,-0.0304,-0.0513,0.0,0.0,-0.0415,-0.0427,-0.0215,-0.0146,-0.0692,-0.4205,-0.6244,-0.3941,-0.5549,-0.6394,-0.4246,-0.4069,-0.5063,-0.7553,-0.7938,-0.7973,-0.8024,-0.8038,-0.8038,-0.8038,-0.8038,-0.8038,-0.8038,-0.8038,-0.8038,-0.8038,-0.8038,-0.8035,-0.8028,-0.8028,-0.8028,-0.8028,-0.8028,-0.8031,-0.8038,-0.8038,-0.8038,-0.8038,-0.8038,-0.8038,-0.8038,-0.8038,-0.8038,-0.8038,-0.8038,-0.8038,-0.8038,-0.8038,-0.8038,-0.8038,-0.8038,-0.8038,-0.8038,-0.8038,-0.7962,-0.6962,-0.1603,0.0,0.0,0.0,0.0,0.0,0.0,0.0,0.0,0.0,0.0,-0.1502,-0.6859,-0.7962,-0.8038,-0.8038,-0.8038,-0.8038,-0.8038,-0.8038,-0.8038,-0.8038,-0.8038,-0.8038,-0.8038,-0.8038,-0.7952,-0.7985,-0.321,0.0,0.0,0.0,0.0,0.0,0.0,0.0,0.0,0.0,0.0,0.0,-0.2607,-0.532,-0.7992,-0.8194,-0.8245,-0.8248,-0.8374,-0.8367,-0.2594,-0.1575,0.0,0.0,0.0,0.0,0.0,0.0,0.0,0.0,0.0,0.0,0.0,-0.1644,-0.3026,0.0,-0.3138,-0.357,-0.5425,-0.4493,-0.4718,-0.7654,-0.8034,-0.7973,-0.8014,-0.8028,-0.796,-0.8035,-0.8038,-0.8038,-0.8038,-0.8038,-0.8038,-0.8038,-0.8038,-0.8038,-0.8038,-0.8038,-0.8038,-0.8038,-0.8038,-0.8038,-0.8038,-0.8038,-0.8038,-0.8038,-0.8038,-0.8038,-0.8038,-0.8038,-0.8038,-0.8038,-0.8038,-0.8038,-0.8038,-0.8038,-0.8038,-0.8038,-0.8038,-0.8038,-0.8038,-0.8038,-0.7962,-0.7272,-0.3512,-0.1207,0.0,0.0,0.0,0.0,0.0,0.0,0.0,0.0,0.0,-0.1506,-0.6862,-0.7972,-0.7955,-0.8041,-0.8038,-0.8038,-0.8038,-0.8038,-0.8038,-0.8038,-0.8038,-0.8038,-0.8038,-0.8038,-0.6753,-0.3666,-0.1328,0.0,0.0,0.0,0.0,0.0,0.0,0.0,0.0,0.0,0.0,0.0,-0.2804,-0.5611,-0.8253,-0.8384,-0.8394,-0.8394,-0.8455,-0.8499,-0.3201,0.0,0.0,-0.0273,0.0,0.0,0.0,0.0,0.0,0.0,0.0,0.0,0.0,0.0,-0.0596,-0.2291,-0.1166,-0.1184,-0.4627,-0.3702,-0.3443,-0.5494,-0.7098,-0.7889,-0.7729,-0.7904,-0.7986,-0.797,-0.8014,-0.8038,-0.8038,-0.8038,-0.8038,-0.8038,-0.8038,-0.8038,-0.8038,-0.8038,-0.8038,-0.8038,-0.8038,-0.8038,-0.8038,-0.8038,-0.8038,-0.8038,-0.8038,-0.8038,-0.8038,-0.8038,-0.8038,-0.8038,-0.8038,-0.8038,-0.8038,-0.8038,-0.8038,-0.8038,-0.8038,-0.8038,-0.8041,-0.8045,-0.7969,-0.7682,-0.5741,-0.2719,0.0,0.0,0.0,0.0,0.0,0.0,0.0,0.0,0.0,-0.1106,-0.4935,-0.6956,-0.7969,-0.7952,-0.8045,-0.8038,-0.8038,-0.8038,-0.8038,-0.8038,-0.8038,-0.8038,-0.8038,-0.7982,-0.5898,-0.0617,0.0,0.0,0.0,0.0,0.0,0.0,0.0,0.0,0.0,0.0,0.0,0.0,-0.2975,-0.5847,-0.8659,-0.8547,-0.8547,-0.8547,-0.8628,-0.8726,0.0,0.0,-0.4396,-0.0867,0.0,0.0,0.0,0.0,0.0,0.0,0.0,0.0,0.0,0.0,-0.0,-0.0087,-0.009,-0.0092,-0.0185,-0.0185,-0.0185,-0.0278,-0.4847,-0.7797,0.0,-0.7699,-0.8039,-0.8018,-0.7957,-0.8038,-0.8038,-0.8038,-0.8038,-0.8038,-0.8038,-0.8038,-0.8038,-0.8038,-0.8038,-0.8038,-0.8038,-0.8038,-0.8038,-0.8038,-0.8038,-0.8038,-0.8038,-0.8038,-0.8038,-0.8038,-0.8038,-0.8038,-0.8038,-0.8038,-0.8038,-0.8038,-0.8038,-0.8038,-0.8038,-0.8038,-0.8041,-0.7965,-0.7979,-0.7992,-0.7912,-0.4144,0.0,0.0,0.0,0.0,0.0,0.0,0.0,0.0,0.0,-0.0,-0.0201,-0.4323,-0.7972,-0.7972,-0.7955,-0.8038,-0.8038,-0.8038,-0.8038,-0.8038,-0.8038,-0.8038,-0.8038,-0.7991,-0.5901,-0.062,0.0,0.0,0.0,0.0,0.0,0.0,0.0,0.0,0.0,0.0,0.0,0.0,-0.2975,-0.5955,-0.8881,-0.8766,-0.8703,-0.871,-0.8998,-0.9133,0.0,0.0,-0.2091,-0.3269,-0.1759,0.0,0.0,0.0,0.0,0.0,0.0,0.0,0.0,0.0,0.0,0.0,0.0,0.0,0.0,0.0,0.0,0.0,-0.1625,0.0,0.0,0.0,0.0,-0.7945,-0.7993,-0.7957,-0.7955,-0.8048,-0.8038,-0.8038,-0.8038,-0.8038,-0.8038,-0.8038,-0.8038,-0.8038,-0.8038,-0.8038,-0.8038,-0.8038,-0.8038,-0.8038,-0.8038,-0.8038,-0.8038,-0.8038,-0.8038,-0.8038,-0.8038,-0.8038,-0.8038,-0.8038,-0.8038,-0.8038,-0.8038,-0.8038,-0.8041,-0.7965,-0.6751,-0.5641,-0.75,-0.4244,0.0,0.0,0.0,0.0,0.0,0.0,0.0,0.0,0.0,-0.1008,-0.4531,-0.6759,-0.7979,-0.7955,-0.8045,-0.8038,-0.8038,-0.8038,-0.8038,-0.8038,-0.8038,-0.7979,-0.7991,-0.4934,-0.1978,-0.0214,0.0,0.0,0.0,0.0,0.0,0.0,0.0,0.0,0.0,0.0,0.0,0.0,-0.2969,-0.5946,-0.8859,-0.8957,-0.9005,-0.9008,-0.9211,-0.9303,0.0,0.0,-0.055,-0.2887,-0.1759,0.0,0.0,0.0,0.0,0.0,0.0,0.0,0.0,0.0,0.0,0.0,0.0,0.0,0.0,0.0,0.0,0.0,0.0,0.0,0.0,0.0,0.0,-0.7491,-0.7879,-0.7974,-0.7969,-0.7952,-0.8038,-0.8038,-0.8038,-0.8038,-0.8038,-0.8038,-0.8038,-0.8038,-0.8038,-0.8038,-0.8038,-0.8038,-0.8038,-0.8038,-0.8038,-0.8038,-0.8038,-0.8038,-0.8038,-0.8038,-0.8038,-0.8038,-0.8038,-0.8038,-0.8038,-0.8041,-0.8048,-0.7952,-0.7955,-0.7982,-0.6865,-0.5343,-0.5155,-0.2726,0.0,0.0,0.0,0.0,0.0,0.0,0.0,0.0,0.0,-0.0908,-0.4437,-0.667,-0.7995,-0.7962,-0.7955,-0.8048,-0.8041,-0.8038,-0.8058,-0.8113,-0.8029,-0.7971,-0.7981,-0.3337,0.0,0.0,0.0,0.0,0.0,0.0,0.0,0.0,0.0,0.0,0.0,0.0,0.0,0.0,-0.3046,-0.6116,-0.9051,-0.9211,-0.9235,-0.9239,-0.9391,-0.9462,0.0,0.0,0.0,0.0,0.0,0.0,0.0,0.0,0.0,0.0,0.0,0.0,0.0,0.0,0.0,0.0,0.0,0.0,0.0,0.0,0.0,0.0,0.0,0.0,0.0,0.0,0.0,-0.6404,0.0,-0.7659,-0.7972,-0.7952,-0.8041,-0.8038,-0.8038,-0.8038,-0.8038,-0.8038,-0.8038,-0.8038,-0.8038,-0.8038,-0.8038,-0.8038,-0.8038,-0.8038,-0.8038,-0.8038,-0.8038,-0.8038,-0.8038,-0.8038,-0.8038,-0.8038,-0.8038,-0.8038,-0.8038,-0.8041,-0.7965,-0.7972,-0.7979,-0.8012,-0.8026,-0.6997,-0.1615,0.0,0.0,0.0,0.0,0.0,0.0,0.0,0.0,0.0,0.0,0.0,0.0,-0.4142,-0.7912,-0.7889,-0.7979,-0.7965,-0.8041,-0.8045,-0.8102,-0.8248,-0.8094,-0.8014,-0.8027,-0.3304,0.0,0.0,0.0,0.0,0.0,0.0,0.0,0.0,0.0,0.0,0.0,0.0,0.0,0.0,-0.3096,-0.6246,-0.9449,-0.9412,-0.9395,-0.9398,-0.9551,-0.9618,0.0,0.0,0.0,0.0,0.0,0.0,0.0,0.0,0.0,0.0,0.0,0.0,0.0,0.0,0.0,0.0,0.0,0.0,0.0,0.0,0.0,0.0,0.0,0.0,0.0,0.0,0.0,0.0,-0.1959,-0.3764,-0.7775,-0.7972,-0.7955,-0.8038,-0.8038,-0.8038,-0.8038,-0.8038,-0.8038,-0.8038,-0.8038,-0.8038,-0.8038,-0.8038,-0.8038,-0.8038,-0.8038,-0.8038,-0.8038,-0.8038,-0.8038,-0.8038,-0.8038,-0.8038,-0.8038,-0.8038,-0.8038,-0.8045,-0.7975,-0.7979,-0.7979,-0.8012,-0.8026,-0.6997,-0.1615,0.0,0.0,0.0,0.0,0.0,0.0,0.0,0.0,0.0,0.0,0.0,0.0,-0.3225,-0.6062,-0.6037,-0.7141,-0.8045,-0.8041,-0.8136,-0.8225,-0.8265,-0.8367,-0.8421,-0.8662,-0.3578,0.0,0.0,0.0,0.0,0.0,0.0,0.0,0.0,0.0,0.0,0.0,0.0,0.0,0.0,-0.0816,-0.4084,-0.9693,-0.9517,-0.9429,-0.9436,-0.97,-0.9768,0.0,0.0,0.0,0.0,0.0,0.0,0.0,0.0,0.0,0.0,0.0,0.0,0.0,0.0,0.0,0.0,0.0,0.0,0.0,0.0,0.0,0.0,0.0,0.0,0.0,0.0,0.0,0.0,0.0,-0.2387,-0.7695,-0.7985,-0.7969,-0.7955,-0.8045,-0.8038,-0.8038,-0.8038,-0.8038,-0.8038,-0.8038,-0.8038,-0.8038,-0.8038,-0.8038,-0.8038,0.0,-0.8038,-0.8038,-0.8038,-0.8038,-0.8038,-0.8038,-0.8038,-0.8038,-0.8038,-0.8038,-0.8045,-0.7979,-0.7266,-0.6039,-0.4847,-0.4448,-0.394,-0.0909,0.0,0.0,0.0,0.0,0.0,0.0,0.0,0.0,0.0,0.0,0.0,0.0,-0.2521,-0.5153,-0.6348,-0.7394,-0.814,-0.814,-0.8265,-0.8387,-0.8455,-0.8521,-0.8119,-0.707,-0.2866,0.0,0.0,0.0,0.0,0.0,0.0,0.0,0.0,0.0,0.0,0.0,0.0,0.0,0.0,0.0,-0.3203,-0.9755,-0.9676,-0.958,-0.9583,-0.9785,-0.9856,0.0,0.0,0.0,0.0,0.0,0.0,0.0,0.0,0.0,0.0,0.0,0.0,0.0,0.0,0.0,0.0,0.0,0.0,0.0,0.0,0.0,0.0,0.0,0.0,0.0,0.0,0.0,0.0,0.0,-0.2014,-0.6684,-0.7585,-0.7979,-0.7972,-0.7955,-0.8041,-0.8038,-0.8038,-0.8038,-0.8038,-0.8038,-0.8038,-0.8038,-0.8038,-0.8038,-0.8038,0.0,0.0,-0.8038,-0.8038,-0.8038,-0.8038,-0.8038,-0.8038,-0.8038,-0.8038,-0.8038,-0.8045,-0.7979,-0.6247,-0.3515,-0.0907,0.0,0.0,0.0,0.0,0.0,0.0,0.0,0.0,0.0,0.0,0.0,0.0,0.0,0.0,0.0,-0.1819,-0.4351,-0.7507,-0.8204,-0.8279,-0.8296,-0.8418,-0.856,-0.8693,-0.8659,-0.7734,-0.5361,-0.2123,0.0,0.0,0.0,0.0,0.0,0.0,0.0,0.0,0.0,0.0,0.0,0.0,0.0,0.0,-0.0842,-0.4114,-0.9856,-0.9832,-0.9832,-0.9849,-0.9849,-0.9808,0.0,0.0,0.0,0.0,0.0,0.0,0.0,0.0,0.0,0.0,0.0,0.0,0.0,0.0,0.0,0.0,0.0,0.0,0.0,0.0,0.0,0.0,0.0,0.0,0.0,0.0,0.0,0.0,0.0,0.0,-0.1308,-0.5555,-0.8002,-0.7975,-0.7969,-0.7959,-0.8038,-0.8038,-0.8038,-0.8038,-0.8038,-0.8038,-0.8038,-0.8038,-0.8038,-0.8038,0.0,0.0,-0.8038,-0.8038,-0.8038,-0.8038,-0.8038,-0.8038,-0.8038,-0.8038,-0.8038,-0.8045,-0.7979,-0.6247,-0.3515,-0.0907,0.0,0.0,0.0,0.0,0.0,0.0,0.0,0.0,0.0,0.0,0.0,0.0,0.0,0.0,0.0,-0.0403,-0.2224,-0.7425,-0.8388,-0.8319,-0.8428,-0.857,-0.8686,-0.8622,-0.8756,-0.8641,-0.8217,-0.3362,0.0,0.0,0.0,0.0,0.0,0.0,0.0,0.0,0.0,0.0,0.0,0.0,0.0,0.0,-0.5273,-0.8613,-0.9856,-0.9832,-0.9761,-0.9757,-0.9757,-0.9833,0.0,0.0,0.0,0.0,0.0,0.0,0.0,0.0,0.0,0.0,0.0,0.0,0.0,0.0,0.0,0.0,0.0,0.0,0.0,0.0,0.0,0.0,0.0,0.0,0.0,0.0,0.0,0.0,0.0,0.0,0.0,-0.3728,-0.615,-0.6639,-0.755,-0.7952,-0.8038,-0.8038,-0.8038,-0.8038,-0.8038,-0.8038,-0.8038,-0.8038,-0.8038,-0.8038,0.0,0.0,-0.8038,-0.8038,-0.8038,-0.8038,-0.8038,-0.8038,-0.8038,-0.8038,-0.8045,-0.7959,-0.7982,-0.7175,-0.5448,-0.1312,0.0,0.0,0.0,0.0,0.0,0.0,0.0,0.0,0.0,0.0,0.0,0.0,0.0,0.0,0.0,-0.1218,-0.3169,-0.5892,-0.7565,-0.8526,-0.8591,-0.8726,-0.8835,-0.8749,-0.7584,-0.7209,-0.8671,-0.3636,0.0,0.0,-0.3032,-0.5086,-0.513,-0.1918,0.0,0.0,0.0,0.0,0.0,0.0,0.0,0.0,-0.6478,-0.9784,-0.982,-0.9807,-0.984,-0.9784,-1.0168,-1.0249,0.0,0.0,0.0,0.0,0.0,0.0,0.0,0.0,0.0,0.0,0.0,0.0,0.0,0.0,0.0,0.0,0.0,0.0,0.0,0.0,0.0,0.0,0.0,0.0,0.0,0.0,0.0,0.0,0.0,0.0,0.0,-0.312,-0.5231,-0.5932,-0.7241,-0.8045,-0.8038,-0.8038,-0.8038,-0.8038,-0.8038,-0.8038,-0.8038,-0.8038,-0.8038,-0.8038,0.0,0.0,0.0,-0.8038,-0.8038,-0.8038,-0.8038,-0.8038,-0.8038,-0.8038,-0.7952,-0.7872,-0.7369,-0.7491,-0.7098,-0.1716,0.0,0.0,0.0,0.0,0.0,0.0,0.0,0.0,0.0,0.0,0.0,0.0,0.0,-0.0303,-0.1624,-0.3795,-0.5395,-0.543,-0.7269,-0.8726,-0.8754,-0.8859,-0.895,-0.8866,-0.6379,-0.5522,-0.8536,-0.3692,0.0,0.0,-0.5831,-0.9844,-0.9764,-0.5021,-0.1476,-0.0123,0.0,0.0,0.0,0.0,0.0,0.0,-0.656,-0.9946,-1.0015,-1.0015,-1.0032,-1.0062,-1.0458,-1.067,0.0,0.0,0.0,0.0,0.0,0.0,0.0,0.0,0.0,0.0,0.0,0.0,0.0,0.0,0.0,0.0,0.0,0.0,0.0,0.0,0.0,0.0,0.0,0.0,0.0,0.0,0.0,0.0,0.0,0.0,0.0,-0.4851,-0.7701,-0.7782,-0.7875,-0.7959,-0.8038,-0.8038,-0.8038,-0.8038,-0.8038,-0.8038,-0.8038,-0.8038,-0.8038,-0.8038,0.0,0.0,0.0,-0.8038,-0.8038,-0.8038,-0.8038,-0.8038,-0.8038,-0.8038,-0.7952,-0.7666,-0.5227,-0.5952,-0.7098,-0.1716,0.0,0.0,0.0,0.0,0.0,0.0,0.0,0.0,0.0,0.0,0.0,0.0,0.0,-0.1522,-0.6941,-0.8347,-0.8532,-0.8548,-0.8726,-0.8889,-0.8899,-0.893,-0.8954,-0.8886,-0.6386,-0.5525,-0.8558,-0.3733,0.0,0.0,-0.59,-0.9751,-0.9784,-0.9284,-0.641,-0.0369,0.0,0.0,0.0,0.0,0.0,0.0,-0.7014,-1.0579,-1.0672,-1.0672,-1.0611,-1.0606,-1.0606,-1.0689,0.0,0.0,0.0,0.0,0.0,0.0,0.0,0.0,0.0,0.0,0.0,0.0,0.0,0.0,0.0,0.0,0.0,0.0,0.0,0.0,0.0,0.0,0.0,0.0,0.0,0.0,0.0,0.0,0.0,0.0,0.0,-0.6877,-0.7989,-0.7979,-0.7962,-0.8048,-0.8038,-0.8038,-0.8038,-0.8038,-0.8038,-0.8045,-0.7959,-0.8045,-0.8045,-0.7959,0.0,0.0,0.0,-0.8038,-0.8038,-0.8038,-0.8038,-0.8038,-0.8038,-0.8038,-0.7959,-0.7572,-0.4924,-0.5756,-0.7116,-0.1717,0.0,0.0,0.0,0.0,0.0,0.0,0.0,0.0,0.0,0.0,0.0,0.0,-0.2424,-0.5595,-0.8326,-0.8838,-0.873,-0.8928,-0.892,-0.8879,-0.893,-0.895,-0.886,-0.889,-0.7939,-0.6308,-0.3848,-0.142,-0.1563,-0.5504,-0.6481,-0.7601,-0.9665,-0.9787,-0.7899,-0.3196,-0.1119,0.0,0.0,0.0,-0.2052,-0.6327,-0.926,-1.0644,-1.0678,-1.0678,-1.0709,-1.0764,-1.0764,-1.0663,0.0,0.0,-0.0265,-0.151,-0.1695,-0.1422,0.0,-0.034,0.0,0.0,0.0,0.0,0.0,0.0,0.0,0.0,0.0,0.0,0.0,0.0,0.0,0.0,0.0,0.0,0.0,0.0,0.0,0.0,0.0,0.0,0.0,-0.7979,-0.7965,-0.7972,-0.7952,-0.8038,-0.8038,-0.8038,-0.8038,-0.8038,-0.8038,-0.8048,-0.7962,-0.8045,-0.8048,0.0,0.0,0.0,0.0,-0.8038,-0.8038,-0.8038,-0.8038,-0.8038,-0.8038,-0.8038,-0.7962,-0.7578,-0.4926,-0.4742,-0.4968,-0.1212,0.0,0.0,0.0,0.0,0.0,0.0,0.0,0.0,0.0,-0.1212,-0.2323,-0.2323,-0.4768,-0.7286,-0.8588,-0.8716,-0.8738,-0.8886,-0.8876,-0.894,-0.894,-0.8846,-0.8641,-0.7747,-0.8335,-0.6724,-0.0823,0.0,-0.2548,-0.9048,-0.7785,-0.7273,-0.9642,-0.9811,-0.8447,-0.5072,-0.176,0.0,0.0,0.0,-0.2346,-0.7374,-0.9679,-1.0677,-1.0731,-1.0724,-1.0721,-1.0721,-1.0721,-1.0721,0.0,0.0,-0.1016,-0.5203,-0.5818,-0.4791,-0.2632,-0.1071,0.0,0.0,0.0,0.0,0.0,0.0,0.0,0.0,0.0,0.0,0.0,0.0,0.0,0.0,0.0,0.0,0.0,0.0,0.0,0.0,0.0,0.0,0.0,0.0,-0.8048,-0.7972,-0.7952,-0.8038,-0.8038,-0.8038,-0.8038,-0.8038,-0.8038,-0.8038,-0.8038,-0.8038,0.0,0.0,0.0,0.0,0.0,-0.8038,-0.8038,-0.8038,-0.8038,-0.8038,-0.8038,-0.8038,-0.7962,-0.7578,-0.4926,-0.2314,-0.0101,-0.0,0.0,0.0,0.0,0.0,0.0,0.0,0.0,0.0,0.0,-0.394,-0.7922,-0.7922,-0.6144,-0.5294,-0.8052,-0.8745,-0.8896,-0.8913,-0.8937,-0.894,-0.894,-0.8846,-0.7955,-0.5031,-0.7064,-0.6724,-0.0823,0.0,-0.2548,-0.9048,-0.9798,-0.9767,-0.9737,-0.9995,-0.8557,-0.5147,-0.1782,0.0,0.0,0.0,-0.0,-0.0131,-0.7075,-1.0652,-1.0755,-1.0731,-1.0721,-1.0721,-1.0721,-1.0721,-0.1908,-0.1475,-0.1794,-0.317,-0.4579,-0.539,-0.4308,-0.3542,-0.2514,-0.0397,0.0,0.0,0.0,-0.1682,-0.3323,-0.4183,0.0,0.0,0.0,0.0,0.0,0.0,0.0,0.0,0.0,0.0,0.0,0.0,0.0,0.0,0.0,0.0,-0.7834,-0.7945,-0.8041,-0.8038,-0.8038,-0.8038,-0.8038,-0.8038,-0.8038,-0.8048,-0.7962,-0.8045,0.0,0.0,0.0,0.0,0.0,-0.8038,-0.8038,-0.8038,-0.8038,-0.8038,-0.8038,-0.8038,-0.7962,-0.7578,-0.4926,-0.2213,0.0,0.0,0.0,0.0,0.0,0.0,0.0,0.0,-0.2625,-0.5464,-0.5464,-0.5349,-0.5744,-0.7588,-0.7576,-0.7382,-0.8377,-0.8731,-0.8767,-0.891,-0.894,-0.894,-0.894,-0.9039,-0.8085,-0.4996,-0.3491,-0.2139,-0.0239,0.0,-0.1717,-0.6037,-0.8404,-0.9811,-1.0005,-1.0059,-0.9745,-0.8687,-0.323,0.0,0.0,0.0,-0.1203,-0.3602,-0.5897,-0.8328,-1.0755,-1.0731,-1.0721,-1.0721,-1.0721,-1.0721,0.0,-0.3097,-0.3105,-0.3226,-0.4397,-0.5319,-0.5008,-0.4723,-0.3889,-0.1354,-0.0391,-0.0336,-0.1513,-0.2301,-0.3421,-0.531,0.0,0.0,0.0,0.0,0.0,0.0,0.0,0.0,0.0,0.0,0.0,0.0,0.0,0.0,0.0,0.0,-0.7685,-0.7868,-0.7875,-0.7875,-0.7875,-0.7926,-0.7953,-0.7953,-0.8011,-0.8045,-0.7959,0.0,0.0,0.0,0.0,0.0,0.0,-0.8038,-0.8038,-0.8038,-0.8038,-0.8038,-0.8038,-0.8038,-0.7959,-0.7575,-0.4924,-0.2211,0.0,0.0,0.0,-0.0404,-0.2424,-0.1615,-0.0404,-0.2424,-0.5464,-0.8022,-0.8016,-0.6762,-0.5937,-0.7572,-0.8228,-0.8387,-0.8486,-0.8659,-0.8825,-0.892,-0.894,-0.894,-0.894,-0.9076,-0.8606,-0.6643,-0.2706,0.0,0.0,-0.22,-0.3947,-0.4795,-0.7929,-1.0025,-1.0151,-1.0161,-1.0229,-1.0392,-0.6431,-0.2777,-0.0132,-0.2542,-0.5117,-0.7414,-0.6046,-0.7109,-1.0755,-1.0731,-1.0721,-1.0721,-1.0721,-1.0721,0.0,-0.4501,-0.4637,-0.4944,-0.4923,-0.4766,-0.4864,-0.4855,0.0,-0.2697,-0.1172,-0.1006,-0.3837,-0.2135,-0.1234,-0.4079,0.0,0.0,0.0,0.0,0.0,0.0,0.0,0.0,0.0,0.0,0.0,0.0,0.0,0.0,0.0,0.0,0.0,-0.7567,-0.7567,-0.7577,-0.76,-0.7729,-0.7801,-0.7907,-0.7953,-0.8028,-0.8137,0.0,0.0,0.0,0.0,0.0,0.0,-0.8038,-0.8038,-0.8038,-0.8038,-0.8038,-0.8038,-0.8038,-0.7952,-0.7666,-0.5125,-0.2409,0.0,0.0,-0.0303,-0.1515,-0.6486,-0.4549,-0.1615,-0.638,-0.7815,-0.8016,-0.7995,-0.7979,-0.7972,-0.7972,-0.8282,-0.8482,-0.8482,-0.8723,-0.894,-0.894,-0.894,-0.894,-0.894,-0.9083,-0.9319,-0.9439,-0.4477,-0.0602,-0.0361,-0.5628,-0.8418,-0.5535,-0.811,-1.0141,-1.027,-1.029,-1.0368,-1.0411,-1.0548,-0.7777,-0.1073,-0.687,-1.0293,-1.029,-0.7395,-0.7376,-1.0751,-1.0731,-1.0721,-1.0721,-1.0721,-1.0721,-0.4142,0.0,-0.4803,-0.4657,-0.4604,-0.4591,0.0,-0.4707,-0.4663,-0.4054,0.0,-0.1968,-0.2949,-0.3305,-0.3852,0.0,0.0,0.0,0.0,0.0,0.0,0.0,0.0,0.0,0.0,0.0,0.0,0.0,0.0,0.0,0.0,0.0,0.0,-0.7248,-0.7248,-0.736,-0.7597,-0.7634,-0.8175,-0.9336,-0.8326,-0.8409,-0.9509,0.0,0.0,0.0,0.0,0.0,0.0,-0.8038,-0.8038,-0.8038,-0.8038,-0.8038,-0.8038,-0.8038,-0.7952,-0.7872,-0.7256,-0.3919,0.0,0.0,-0.2726,-0.6382,-0.7613,-0.7098,-0.5969,-0.5138,-0.645,-0.7982,-0.7979,-0.7962,-0.8048,-0.8048,-0.8269,-0.8482,-0.8482,-0.8723,-0.894,-0.894,-0.894,-0.894,-0.894,-0.9161,-0.9344,-0.948,-0.8402,-0.66,-0.4034,-0.5156,-0.6773,-0.8491,-0.949,-1.0141,-1.027,-1.0378,-1.051,-1.0666,-1.0727,-0.994,-0.8315,-0.7127,-0.6596,-0.6583,-0.8459,-0.98,-1.0727,-1.0724,-1.0721,-1.0721,-1.0721,-1.0721,-0.2188,-0.3161,-0.3632,-0.3509,-0.342,-0.3624,-0.4317,0.0,0.0,0.0,0.0,0.0,0.0,0.0,0.0,0.0,0.0,0.0,0.0,0.0,0.0,0.0,0.0,0.0,0.0,0.0,0.0,0.0,0.0,0.0,0.0,0.0,0.0,0.0,-0.7139,-0.7221,-0.7387,-0.7458,-0.7902,-0.8726,-0.8126,-0.8236,-0.9002,0.0,0.0,0.0,0.0,0.0,-0.8038,-0.8038,-0.8038,-0.8038,-0.8038,-0.8038,-0.8038,-0.8038,-0.8048,-0.7959,-0.7969,-0.5329,-0.1808,-0.1811,-0.3828,-0.6364,-0.7591,-0.8002,-0.7688,-0.6242,-0.6851,-0.7972,-0.7959,-0.8048,-0.8058,-0.813,-0.8316,-0.8503,-0.857,-0.8771,-0.894,-0.894,-0.894,-0.896,-0.9025,-0.9228,-0.9408,-0.9493,-0.9703,-0.9111,-0.738,-0.7133,-0.7894,-0.9704,-1.009,-1.0232,-1.0368,-1.0514,-1.0633,-1.0714,-1.0731,-1.0744,-1.0755,-0.887,-0.7791,-0.7781,-0.9664,-1.0731,-1.0721,-1.0721,-1.0721,-1.0721,-1.0721,-1.0721,0.0,-0.0924,-0.1767,-0.1282,-0.1341,-0.193,-0.3447,0.0,0.0,0.0,0.0,0.0,0.0,0.0,0.0,0.0,0.0,0.0,0.0,0.0,0.0,0.0,0.0,0.0,0.0,0.0,0.0,0.0,0.0,0.0,0.0,0.0,0.0,0.0,-0.7139,-0.7139,-0.7139,-0.7272,-0.7437,-0.7734,-0.7743,-0.7883,-0.8101,-0.8065,0.0,0.0,0.0,0.0,-0.8038,-0.8038,-0.8038,-0.8038,-0.8038,-0.8038,-0.8038,-0.8038,-0.8038,-0.8041,-0.7965,-0.6545,-0.462,-0.4622,-0.462,-0.5024,-0.7359,-0.7972,-0.7969,-0.7969,-0.7969,-0.7962,-0.8045,-0.8038,-0.8079,-0.8235,-0.8377,-0.8523,-0.8676,-0.8828,-0.894,-0.894,-0.894,-0.8984,-0.9127,-0.9279,-0.9435,-0.9588,-0.9747,-0.9849,-0.9849,-0.9849,-0.991,-1.0066,-1.0202,-1.0337,-1.048,-1.0633,-1.0721,-1.0721,-1.0721,-1.0731,-1.0751,-1.0751,-1.0751,-1.0755,-1.0731,-1.0721,-1.0721,-1.0721,-1.0721,-1.0721,-1.0721,-1.0721,0.0,-0.0179,0.0302,0.2809,0.2475,0.1162,-0.0339,0.0,0.0,0.0,0.0,0.0,0.0,0.0,0.0,0.0,0.0,0.0,0.0,0.0,0.0,0.0,0.0,0.0,0.0,0.0,0.0,0.0,0.0,0.0,0.0,0.0,0.0,0.0,0.0,-0.7139,-0.7139,-0.7163,-0.7771,-0.8989,-0.8098,-0.8259,-0.9436,-0.8456,-0.8038,0.0,0.0,0.0,-0.8038,-0.8038,-0.8038,-0.8038,-0.8038,-0.8038,-0.8038,-0.8038,-0.8038,-0.8041,-0.7965,-0.7769,-0.7359,-0.7369,-0.7366,-0.7459,-0.7869,-0.7959,-0.8045,-0.8045,-0.8045,-0.8045,-0.8041,-0.8038,-0.8079,-0.8235,-0.8377,-0.8523,-0.8676,-0.8828,-0.894,-0.894,-0.894,-0.8984,-0.9127,-0.9279,-0.9435,-0.9588,-0.9734,-0.9825,-0.9825,-0.9825,-0.9883,-1.0039,-1.0188,-1.0337,-1.048,-1.0633,-1.0721,-1.0721,-1.0721,-1.0731,-1.0751,-1.0734,-1.0734,-1.0755,-1.0731,-1.0721,-1.0721,-1.0721,-1.0721,-1.0721,-1.0721,-1.0721,0.0,0.1174,0.2632,0.3367,0.3711,0.3689,0.285,0.0,0.0,0.0,0.0,0.0,0.0,0.0,0.0,0.0,0.0,0.0,0.0,0.0,0.0,0.0,0.0,0.0,0.0,0.0,0.0,0.0,0.0,0.0,0.0,0.0,0.0,0.0,0.0,0.0,-0.7139,-0.7139,-0.7436,-0.8131,-0.7675,-0.7923,-0.8547,-0.8136,-0.796,0.0,0.0,-0.8038,-0.8038,-0.8038,-0.8038,-0.8038,-0.8038,-0.8038,-0.8038,-0.8038,-0.8038,-0.8041,-0.7952,-0.7955,-0.7955,-0.7962,-0.7959,-0.7955,-0.7955,-0.8048,-0.8038,-0.8038,-0.8038,-0.8038,-0.8038,-0.8038,-0.8099,-0.833,-0.8435,-0.8547,-0.8781,-0.8889,-0.894,-0.894,-0.894,-0.9011,-0.9235,-0.9334,-0.9459,-0.969,-0.9778,-0.9822,-0.9822,-0.9893,-1.0005,-1.0158,-1.0307,-1.0456,-1.0602,-1.068,-1.0721,-1.0721,-1.0721,-1.0724,-1.0734,-1.0724,-1.0724,-1.0734,-1.0724,-1.0721,-1.0721,-1.0721,-1.0721,-1.0721,-1.0721,-1.0721,0.062,0.2192,0.3834,0.329,0.4157,0.5126,0.4972,0.0,0.0,0.0,0.0,0.0,0.0,0.0,0.0,0.0,0.0,0.0,0.0,0.0,0.0,0.0,0.0,0.0,0.0,0.0,0.0,0.0,0.0,0.0,0.0,0.0,0.0,0.0,0.0,0.0,-0.7139,-0.7139,-0.7139,-0.7143,-0.7295,-0.7434,-0.755,-0.7695,-0.7845,-0.7987,-0.7987,-0.8007,-0.8038,-0.8038,-0.8038,-0.8038,-0.8038,-0.8038,-0.8038,-0.8038,-0.8038,-0.8038,-0.8038,-0.8038,-0.8038,-0.8038,-0.8038,-0.8038,-0.8038,-0.8038,-0.8038,-0.8038,-0.8038,-0.8038,-0.8038,-0.8038,-0.8113,-0.8411,-0.8482,-0.8567,-0.8872,-0.894,-0.894,-0.894,-0.8964,-0.9072,-0.9334,-0.9412,-0.952,-0.9781,-0.9822,-0.9822,-0.9822,-0.9954,-1.0107,-1.0263,-1.0409,-1.0555,-1.0707,-1.0721,-1.0721,-1.0721,-1.0721,-1.0721,-1.0721,-1.0721,-1.0721,-1.0721,-1.0721,-1.0721,-1.0721,-1.0721,-1.0721,-1.0721,-1.0721,-1.0721,0.2434,0.2224,0.2698,0.4054,0.4487,0.0,0.5032,0.5128,0.0,0.0,0.0,0.0,0.0,0.0,0.0,0.0,0.0,0.0,0.0,0.0,0.0,0.0,0.0,0.0,0.0,0.0,0.0,0.0,0.0,0.0,0.0,0.0,0.0,0.0,0.0,0.0,-0.7139,-0.7139,-0.7139,-0.7143,-0.7295,-0.7377,-0.7394,-0.7546,-0.7692,-0.7828,-0.7828,-0.7909,-0.8038,-0.8038,-0.8038,-0.8038,-0.8038,-0.8038,-0.8038,-0.8038,-0.8038,-0.8038,-0.8038,-0.8038,-0.8038,-0.8038,-0.8038,-0.8038,-0.8038,-0.8038,-0.8038,-0.8038,-0.8038,-0.8038,-0.8038,-0.8038,-0.8113,-0.8411,-0.8482,-0.8567,-0.8872,-0.894,-0.894,-0.894,-0.9045,-0.9191,-0.9354,-0.95,-0.9646,-0.9798,-0.9822,-0.9822,-0.9822,-0.9954,-1.0107,-1.0263,-1.0409,-1.0555,-1.0707,-1.0721,-1.0721,-1.0721,-1.0721,-1.0721,-1.0721,-1.0721,-1.0721,-1.0721,-1.0721,-1.0721,-1.0721,-1.0721,-1.0721,-1.0721,-1.0721,-1.0721,0.3583,0.3535,0.3758,0.4336,0.0,0.0,0.0,0.0,0.0,0.0,0.0,0.0,0.0,0.0,0.0,0.0,0.0,0.0,0.0,0.0,0.0,0.0,0.0,0.0,0.0,0.0,0.0,0.0,0.0,0.0,0.0,0.0,0.0,0.0,0.0,0.0,0.0,-0.7139,-0.7139,-0.7139,-0.72,-0.7278,-0.7373,-0.7431,-0.7587,-0.7811,-0.7811,-0.7896,-0.8038,-0.8038,-0.8038,-0.8038,-0.8038,-0.8038,-0.8038,-0.8038,-0.8038,-0.8038,-0.8038,-0.8038,-0.8038,-0.8038,-0.8038,-0.8038,-0.8038,-0.8038,-0.8038,-0.8038,-0.8038,-0.8038,-0.8038,-0.8038,-0.8113,-0.8411,-0.8482,-0.8567,-0.8872,-0.894,-0.894,-0.894,-0.9055,-0.9201,-0.9354,-0.9507,-0.9656,-0.9798,-0.9822,-0.9822,-0.9822,-1.0039,-1.0215,-1.0273,-1.049,-1.0656,-1.0714,-1.0721,-1.0721,-1.0721,-1.0721,-1.0721,-1.0721,-1.0721,-1.0721,-1.0721,-1.0721,-1.0721,-1.0721,-1.0721,-1.0721,-1.0721,-1.0721,-1.0721,0.422,0.4365,0.4529,0.0,0.0,0.0,0.0,0.0,0.0,0.0,0.0,0.0,0.0,0.0,0.0,0.0,0.0,0.0,0.0,0.0,0.0,0.0,0.0,0.0,0.0,0.0,0.0,0.0,0.0,0.0,0.0,0.0,0.0,0.0,0.0,0.0,0.0,-0.7119,-0.7139,-0.7139,-0.7139,-0.7193,-0.7299,-0.7299,-0.7434,-0.7675,-0.7723,-0.7828,-0.797,-0.8021,-0.8038,-0.8038,-0.8038,-0.8038,-0.8038,-0.8038,-0.8038,-0.8038,-0.8038,-0.8038,-0.8038,-0.8038,-0.8038,-0.8038,-0.8038,-0.8038,-0.8038,-0.8038,-0.8038,-0.8038,-0.8038,-0.8038,-0.8113,-0.8411,-0.8482,-0.8567,-0.8872,-0.894,-0.894,-0.894,-0.9093,-0.9259,-0.9364,-0.9544,-0.971,-0.9805,-0.9822,-0.9839,-0.9886,-1.012,-1.0317,-1.0409,-1.0602,-1.0721,-1.0721,-1.0721,-1.0721,-1.0721,-1.0721,-1.0721,-1.0721,-1.0721,-1.0721,-1.0721,-1.0721,-1.0721,-1.0721,-1.0721,-1.0721,-1.0721,-1.0721,-1.0721,0.4284,0.4351,0.4677,0.0,0.0,0.0,0.0,0.0,0.0,0.0,0.0,0.0,0.0,0.0,0.0,0.0,0.0,0.0,0.0,0.0,0.0,0.0,0.0,0.0,0.0,0.0,0.0,0.0,0.0,0.0,0.0,0.0,0.0,0.0,0.0,0.0,0.0,-0.7075,-0.7139,-0.7139,-0.7139,-0.7139,-0.7139,-0.7139,-0.7224,-0.738,-0.7533,-0.7678,-0.7824,-0.7977,-0.8038,-0.8038,-0.8038,-0.8038,-0.8038,-0.8038,-0.8038,-0.8038,-0.8038,-0.8038,-0.8038,-0.8038,-0.8038,-0.8038,-0.8038,-0.8038,-0.8038,-0.8038,-0.8038,-0.8038,-0.8041,-0.8041,-0.8116,-0.8411,-0.8482,-0.8567,-0.8872,-0.894,-0.894,-0.894,-0.9178,-0.9381,-0.9381,-0.9625,-0.9822,-0.9822,-0.9822,-0.9876,-1.0032,-1.0185,-1.0395,-1.0687,-1.0721,-1.0721,-1.0721,-1.0721,-1.0721,-1.0721,-1.0721,-1.0721,-1.0721,-1.0721,-1.0721,-1.0721,-1.0721,-1.0721,-1.0721,-1.0721,-1.0721,-1.0721,-1.0721,-1.0721,0.5499,0.5571,0.0,0.6318,0.0,0.0,0.0,0.0,0.0,0.0,0.0,0.0,0.0,0.0,0.0,0.0,0.0,0.0,0.0,0.0,0.0,0.0,0.0,0.0,0.0,0.0,0.0,0.0,0.0,0.0,0.0,0.0,0.0,0.0,0.0,0.0,0.0,0.0,-0.7041,-0.7139,-0.7139,-0.7139,-0.7139,-0.7139,-0.7224,-0.7373,-0.7417,-0.758,-0.7824,-0.7977,-0.8038,-0.8038,-0.8038,-0.8038,-0.8038,-0.8038,-0.8038,-0.8038,-0.8038,-0.8038,-0.8038,-0.8038,-0.8038,-0.8038,-0.8038,-0.8038,-0.8038,-0.8038,-0.8038,-0.8065,-0.8174,-0.8201,-0.8248,-0.8438,-0.8564,-0.8696,-0.8896,-0.894,-0.894,-0.894,-0.9178,-0.9381,-0.9381,-0.9625,-0.9822,-0.9822,-0.9822,-0.9917,-1.0178,-1.0337,-1.0504,-1.07,-1.0721,-1.0721,-1.0721,-1.0721,-1.0721,-1.0721,-1.0721,-1.0721,-1.0721,-1.0721,-1.0721,-1.0721,-1.0721,-1.0721,-1.0721,-1.0721,-1.0721,-1.0721,-1.0721,-1.0721,0.6531,0.7008,0.0,0.7692,0.8172,0.8877,0.0,0.0,0.0,0.0,0.0,0.0,0.0,0.0,0.0,0.0,0.0,0.0,0.0,0.0,0.0,0.0,0.0,0.0,0.0,0.0,0.0,0.0,0.0,0.0,0.0,0.0,0.0,0.0,0.0,0.0,0.0,0.0,0.0,-0.7058,-0.7112,-0.7139,-0.7139,-0.7139,-0.719,-0.7282,-0.7346,-0.7539,-0.7818,-0.7913,-0.7984,-0.8038,-0.8038,-0.8038,-0.8038,-0.8038,-0.8038,-0.8038,-0.8038,-0.8038,-0.8038,-0.8038,-0.8038,-0.8038,-0.8038,-0.8038,-0.8038,-0.8038,-0.8038,-0.8062,-0.8153,-0.8265,-0.8391,-0.8537,-0.8645,-0.8754,-0.8906,-0.894,-0.894,-0.894,-0.9178,-0.9381,-0.9381,-0.9625,-0.9822,-0.9822,-0.9924,-1.007,-1.0256,-1.0456,-1.0619,-1.0711,-1.0721,-1.0721,-1.0721,-1.0721,-1.0721,-1.0721,-1.0721,-1.0721,-1.0721,-1.0721,-1.0721,-1.0721,-1.0721,-1.0721,-1.0721,-1.0721,-1.0721,-1.0721,-1.0721,-1.0721,0.7579,0.0,0.0,0.9467,0.9962,0.0,1.0927,0.0,0.0,0.0,0.0,0.0,0.0,0.0,0.0,0.0,0.0,0.0,0.0,0.0,0.0,0.0,0.0,0.0,0.0,0.0,0.0,0.0,0.0,0.0,0.0,0.0,0.0,0.0,0.0,0.0,0.0,0.0,0.0,0.0,-0.7051,-0.7122,-0.7122,-0.7136,-0.7139,-0.7149,-0.7305,-0.7522,-0.7773,-0.7801,-0.7892,-0.8021,-0.8035,-0.8038,-0.8038,-0.8038,-0.8038,-0.8038,-0.8038,-0.8038,-0.8038,-0.8038,-0.8038,-0.8038,-0.8038,-0.8038,-0.8038,-0.8038,-0.8038,-0.8041,-0.8058,-0.8269,-0.852,-0.8672,-0.872,-0.8771,-0.891,-0.894,-0.894,-0.894,-0.9178,-0.9381,-0.9381,-0.9625,-0.9822,-0.9822,-1.0083,-1.028,-1.028,-1.0538,-1.0721,-1.0721,-1.0721,-1.0721,-1.0721,-1.0721,-1.0721,-1.0721,-1.0721,-1.0721,-1.0721,-1.0721,-1.0721,-1.0721,-1.0721,-1.0721,-1.0721,-1.0721,-1.0721,-1.0721,-1.0721,-1.0721,0.9089,0.9913,0.0,0.0,1.1585,1.1632,1.1152,0.0,0.0,0.0,0.0,0.0,0.0,0.0,0.0,0.0,0.0,0.0,0.0,0.0,0.0,0.0,0.0,0.0,0.0,0.0,0.0,0.0,0.0,0.0,0.0,0.0,0.0,0.0,0.0,0.0,-0.6354,-0.6471,-0.663,0.0,-0.6902,-0.6973,-0.6976,-0.7088,-0.7139,-0.7149,-0.7305,-0.7407,-0.7485,-0.7716,-0.7831,-0.7872,-0.7991,-0.8038,-0.8038,-0.8038,-0.8038,-0.8038,-0.8038,-0.8038,-0.8038,-0.8038,-0.8038,-0.8038,-0.8038,-0.8038,-0.8038,-0.8038,-0.8038,-0.8069,-0.8187,-0.835,-0.852,-0.8672,-0.8801,-0.8899,-0.893,-0.894,-0.894,-0.894,-0.9178,-0.9381,-0.9381,-0.9625,-0.9822,-0.9822,-1.0083,-1.028,-1.028,-1.0538,-1.0721,-1.0721,-1.0721,-1.0721,-1.0721,-1.0721,-1.0721,-1.0721,-1.0721,-1.0721,-1.0721,-1.0721,-1.0721,-1.0721,-1.0721,-1.0721,-1.0721,-1.0721,-1.0721,-1.0721,-1.0721,-1.0721,1.0225,0.0,0.0,1.2421,0.0,1.1826,1.0477,0.0,0.0,0.0,0.0,0.0,0.0,0.0,0.0,0.0,0.0,0.0,0.0,0.0,0.0,0.0,0.0,0.0,0.0,0.0,0.0,0.0,0.0,0.0,0.0,0.0,0.0,0.0,0.0,0.0,-0.6324,-0.6451,-0.6512,-0.6593,-0.6746,-0.6858,-0.6932,-0.7075,-0.7139,-0.7146,-0.7224,-0.7302,-0.7383,-0.7536,-0.7685,-0.7821,-0.7899,-0.7974,-0.8038,-0.8038,-0.8038,-0.8038,-0.8038,-0.8038,-0.8038,-0.8038,-0.8038,-0.8038,-0.8038,-0.8038,-0.8038,-0.8038,-0.8038,-0.8058,-0.814,-0.8319,-0.8503,-0.8581,-0.8774,-0.894,-0.894,-0.894,-0.9154,-0.9805,-0.9624,-0.961,-1.0293,-1.0094,-1.0058,-1.0778,-1.1313,-1.1281,-1.0407,-1.1308,-1.1633,-1.0853,-1.0721,-1.0979,-1.1894,-1.1244,-1.1111,-1.1894,-1.1111,-1.0721,-1.0721,-1.0721,-1.0721,-1.0721,-1.0721,-1.0721,-1.0721,-1.0721,-1.0721,-1.0721,-1.0721,-1.0721,1.0795,0.0,1.3755,1.3076,1.2577,0.0,0.9753,0.0,0.0,0.0,0.0,0.0,0.0,0.0,0.0,0.0,0.0,0.0,0.0,0.0,0.0,0.0,0.0,0.0,0.0,0.0,0.0,0.0,0.0,0.0,0.0,0.0,0.0,0.0,0.0,-0.454,-0.6281,-0.6386,-0.6437,-0.6437,-0.6586,-0.6756,-0.6932,-0.7051,-0.7115,-0.7139,-0.7139,-0.7214,-0.7333,-0.736,-0.7533,-0.7777,-0.7801,-0.7906,-0.8038,-0.8038,-0.8038,-0.8038,-0.8038,-0.8038,-0.8038,-0.8038,-0.8038,-0.8038,-0.8038,-0.8038,-0.8038,-0.8038,-0.8038,-0.8045,-0.8072,-0.8279,-0.8489,-0.8516,-0.8733,-0.894,-0.894,-0.894,-0.9272,-1.0496,-1.0224,-1.0113,-1.1053,-1.0595,-1.0539,-1.1615,-1.2147,-1.213,-1.1277,-1.22,-1.2281,-1.085,-1.0721,-1.1372,-1.3193,-1.1765,-1.1633,-1.3582,-1.2153,-1.124,-1.1633,-1.1372,-1.1111,-1.1111,-1.085,-1.0721,-1.0721,-1.0721,-1.0721,-1.0721,-1.0721,-1.0721,0.0,0.0,1.2976,0.0,1.2411,1.1842,0.0,0.0,0.0,0.0,0.0,0.0,0.0,0.0,0.0,0.0,0.0,0.0,0.0,0.0,0.0,0.0,0.0,0.0,0.0,0.0,0.0,0.0,0.0,0.0,0.0,0.0,0.0,0.0,-0.3853,0.0,-0.6295,-0.6302,-0.6298,-0.6291,-0.6434,-0.6654,-0.6929,-0.6949,-0.7024,-0.7139,-0.7139,-0.7153,-0.718,-0.7316,-0.7472,-0.7641,-0.7763,-0.7906,-0.8038,-0.8038,-0.8038,-0.8038,-0.8038,-0.8038,-0.8038,-0.8038,-0.8038,-0.8038,-0.8038,-0.8038,-0.8038,-0.8038,-0.8038,-0.8069,-0.8204,-0.836,-0.8516,-0.8648,-0.8811,-0.894,-0.894,-0.894,-0.8974,-0.9434,-1.062,-1.1362,-1.0215,-1.111,-1.1499,-1.0301,-1.0369,-1.1533,-1.4375,-1.2588,-1.0982,-1.0717,-1.0721,-1.1372,-1.3193,-1.1765,-1.2153,-1.5399,-1.397,-1.3582,-1.5135,-1.3713,-1.2931,-1.2931,-1.1501,-1.0721,-1.0721,-1.0721,-1.0721,-1.0721,-1.0721,-1.0721,1.0089,1.1138,1.1762,0.0,1.167,1.1309,0.0,0.0,0.0,0.0,0.0,0.0,0.0,0.0,0.0,0.0,0.0,0.0,0.0,0.0,0.0,0.0,0.0,0.0,0.0,0.0,0.0,0.0,0.0,0.0,0.0,0.0615,0.0,0.0,-0.2947,0.0,-0.454,-0.5721,-0.6274,-0.6342,-0.6407,-0.6586,-0.6803,-0.6892,-0.7007,-0.7139,-0.7139,-0.7139,-0.7146,-0.7214,-0.7383,-0.7607,-0.7668,-0.7834,-0.8038,-0.8038,-0.8038,-0.8038,-0.8038,-0.8038,-0.8038,-0.8038,-0.8038,-0.8038,-0.8038,-0.8038,-0.8038,-0.8038,-0.8038,-0.8055,-0.8123,-0.8309,-0.8486,-0.8499,-0.8726,-0.894,-0.894,-0.894,-0.9005,-0.9235,-1.072,-1.1761,-1.123,-1.102,-1.0899,-1.114,-1.2242,-1.2957,-1.2645,-1.3988,-1.4358,-1.2413,-1.2153,-1.3325,-1.5913,-1.2804,-1.2545,-1.7082,-1.4749,-1.4101,-1.5784,-1.5139,-1.4749,-1.4749,-1.2153,-1.0721,-1.0721,-1.0721,-1.0721,-1.0721,-1.0721,-1.0721,0.0,0.0,1.0607,1.0624,1.0842,1.0631,0.0,0.0,0.0,0.0,0.0,0.0,0.0,0.0,0.0,0.0,0.0,0.0,0.0,0.0,0.0,0.0,0.0,0.0,0.0,0.0,0.0,0.0,0.0,0.0,0.3215,0.1123,0.0,0.0,-0.1986,-0.3135,-0.3122,-0.5243,-0.6271,-0.6264,-0.6369,-0.6519,-0.6705,-0.6817,-0.697,-0.7139,-0.7139,-0.7139,-0.7139,-0.7139,-0.7322,-0.76,-0.76,-0.778,-0.8038,-0.8038,-0.8038,-0.8038,-0.8038,-0.8038,-0.8038,-0.8038,-0.8038,-0.8038,-0.8038,-0.8038,-0.8038,-0.8038,-0.8038,-0.8058,-0.8133,-0.8316,-0.8482,-0.8489,-0.872,-0.894,-0.894,-0.8998,-0.9117,-0.9337,-1.0692,-1.1819,-1.1595,-1.102,-1.0899,-1.1499,-1.3023,-1.356,-1.1896,-1.4562,-1.5784,-1.3713,-1.3066,-1.4232,-1.8122,-1.3713,-1.3062,-1.8768,-1.5913,-1.4879,-1.7082,-1.6824,-1.656,-1.656,-1.3582,-1.2022,-1.2022,-1.1111,-1.0982,-1.1372,-1.085,-1.0721,0.0,0.881,0.0,0.9771,0.0,0.0,0.0,0.0,0.0,0.0,0.0,0.0,0.0,0.0,0.0,0.0,0.0,0.0,0.0,0.0,0.0,0.0,0.0,0.0,0.0,0.0,0.0,0.0,0.0,0.0,0.3203,0.1093,0.0,0.0,-0.2048,-0.3064,-0.3122,-0.5237,-0.6338,-0.6338,-0.6345,-0.6424,-0.6702,-0.6709,-0.6868,-0.7139,-0.7139,-0.7139,-0.7139,-0.7139,-0.7322,-0.76,-0.76,-0.778,-0.8038,-0.8038,-0.8038,-0.8038,-0.8038,-0.8038,-0.8038,-0.8038,-0.8038,-0.8038,-0.8038,-0.8038,-0.8038,-0.8038,-0.8038,-0.8106,-0.8387,-0.8469,-0.8554,-0.8838,-0.8923,-0.894,-0.894,-0.9161,-0.9364,-0.9378,-1.0902,-1.1727,-1.0179,-1.1495,-1.2217,-1.0179,-1.0329,-1.1768,-1.5182,-1.2919,-1.1894,-1.3979,-1.2157,-1.2931,-1.8116,-1.3713,-1.3582,-2.0583,-1.7731,-1.7339,-2.0716,-1.9285,-1.8378,-1.8378,-1.656,-1.5654,-1.5654,-1.2285,-1.1501,-1.3062,-1.1501,-1.0721,0.0,0.0,0.0,0.8278,0.8847,0.0,0.0,0.0,0.0,0.0,0.0,0.0,0.0,0.0,0.0,0.0,0.0,0.0,0.0,0.0,0.0,0.0,0.0,0.0,0.0,0.0,0.0,0.0,0.0,0.0,0.2974,0.1065,0.0,0.0,-0.0745,-0.241,-0.5096,-0.5879,-0.6268,-0.6338,-0.6338,-0.6363,-0.6556,-0.6654,-0.681,-0.701,-0.7102,-0.7139,-0.7139,-0.7139,-0.7322,-0.76,-0.76,-0.778,-0.8038,-0.8038,-0.8038,-0.8038,-0.8038,-0.8038,-0.8038,-0.8038,-0.8038,-0.8038,-0.8038,-0.8038,-0.8038,-0.8038,-0.8038,-0.8085,-0.8292,-0.8414,-0.856,-0.8866,-0.894,-0.894,-0.894,-0.9171,-0.9381,-0.9381,-1.0091,-1.0539,-0.9943,-1.0418,-1.0708,-1.0115,-1.0107,-1.0774,-1.2204,-1.441,-1.5654,-1.5269,-1.4488,-1.5654,-1.9807,-1.5399,-1.4879,-2.0716,-1.8896,-1.8634,-2.0982,-2.0456,-2.0195,-2.0195,-1.8506,-1.7082,-1.5913,-1.4619,-1.4362,-1.5009,-1.4358,-1.3692,0.635,0.0,0.0,0.0,0.0,0.0,0.0,0.0,0.0,0.0,0.0,0.0,0.0,0.0,0.0,0.0,0.0,0.0,0.0,0.0,0.0,0.0,0.0,0.0,0.0,0.0,0.0,0.0,0.0,0.0,0.3659,0.1314,0.0,0.0,0.0,-0.1353,-0.4153,-0.5572,-0.6281,-0.6274,-0.6274,-0.6349,-0.6411,-0.6562,-0.6716,-0.6956,-0.7095,-0.7061,-0.7139,-0.7139,-0.7322,-0.76,-0.76,-0.778,-0.8038,-0.8038,-0.8038,-0.8038,-0.8038,-0.8038,-0.8038,-0.8038,-0.8038,-0.8038,-0.8038,-0.8038,-0.8038,-0.8038,-0.8038,-0.8085,-0.8289,-0.8486,-0.8686,-0.8889,-0.894,-0.894,-0.894,-0.9171,-0.9381,-0.9381,-0.9618,-0.9822,-0.9822,-0.9822,-0.9866,-1.0002,-1.0134,-1.027,-1.0402,-1.4065,-1.6565,-1.5913,-1.5913,-1.7339,-2.0849,-1.6824,-1.6172,-2.0849,-1.9419,-1.9285,-2.0982,-2.1109,-2.1109,-2.1109,-1.9941,-1.8768,-1.7597,-1.6436,-1.6172,-1.6824,-1.6172,-1.5759,0.0,0.0,0.0,0.0,0.0,0.0,0.0,0.0,0.0,0.0,0.0,0.0,0.0,0.0,0.0,0.0,0.0,0.0,0.0,0.0,0.0,0.0,0.0,0.0,0.0,0.0,0.0,0.0,0.0,0.5333,0.5413,0.1955,0.0,0.0,0.0,0.0,0.0,-0.407,-0.6132,-0.6213,-0.6213,-0.6208,-0.6189,-0.6172,-0.6486,-0.6983,-0.6949,-0.6992,-0.6962,-0.7051,-0.7322,-0.76,-0.76,-0.778,-0.8038,-0.8038,-0.8038,-0.8038,-0.8038,-0.8038,-0.8038,-0.8038,-0.8038,-0.8038,-0.8038,-0.8038,-0.8038,-0.8038,-0.8038,-0.8109,-0.8404,-0.8706,-0.8933,-0.8937,-0.894,-0.894,-0.894,-0.9171,-0.9381,-0.9381,-0.9618,-0.9822,-0.9822,-0.9822,-0.9822,-0.9829,-1.0168,-1.0388,-1.0297,-1.2079,-1.397,-1.5659,-1.5918,-1.7339,-2.0722,-1.7859,-1.7468,-2.0849,-1.9546,-1.9291,-2.0982,-2.1109,-2.1109,-2.1109,-2.1109,-2.1109,-2.1109,-1.7725,-1.6947,-1.8506,-1.6824,-1.6953,0.6904,0.0,0.0,0.0,0.0,0.0,0.0,0.0,0.0,0.0,0.0,0.0,0.0,0.0,0.0,0.0,0.0,0.0,0.0,0.0,0.0,0.0,0.0,0.0,0.0,0.0,0.0,0.0,0.0,0.4033,0.5343,0.1991,0.0,0.0,0.0,0.0,0.0,-0.1143,-0.2536,-0.3988,-0.3988,-0.4003,-0.3955,-0.3955,-0.404,-0.4242,-0.4489,-0.4554,-0.4727,-0.6438,-0.7336,-0.76,-0.76,-0.778,-0.8038,-0.8038,-0.8038,-0.8038,-0.8038,-0.8038,-0.8038,-0.8038,-0.8038,-0.8038,-0.8038,-0.8038,-0.8038,-0.8038,-0.8038,-0.8109,-0.8404,-0.8628,-0.8801,-0.8913,-0.894,-0.894,-0.894,-0.9171,-0.9381,-0.9381,-0.9618,-0.9822,-0.9822,-0.9822,-0.9869,-1.0015,-1.0256,-1.0426,-1.0432,-1.3177,-1.4879,-1.4101,-1.6302,-1.8122,-1.9158,-1.8378,-1.8768,-2.0976,-2.0589,-2.0589,-2.1109,-2.1109,-2.1109,-2.1109,-2.1109,-2.1109,-2.1109,-2.0068,-1.9935,-2.0329,-1.9935,-1.9935,0.0,0.0,0.0,0.0,0.0,0.0,0.0,0.8518,0.0,0.0,0.0,0.0,0.0,0.0,0.0,0.0,0.0,0.0,0.0,0.0,0.0,0.0,0.0,0.0,0.0,0.0,0.0,0.0,0.4436,0.3632,0.3167,0.1163,0.0,0.0,0.0,0.0,0.0,0.0,-0.0618,-0.18,-0.18,-0.18,-0.1802,-0.1808,-0.1846,-0.1851,-0.3078,-0.3582,-0.3667,-0.5097,-0.6294,-0.7426,-0.7577,-0.774,-0.795,-0.8018,-0.8038,-0.8038,-0.8038,-0.8038,-0.8038,-0.8038,-0.8038,-0.8038,-0.8038,-0.8038,-0.8038,-0.8038,-0.8126,-0.8265,-0.8438,-0.8645,-0.8828,-0.8916,-0.894,-0.894,-0.894,-0.9171,-0.9381,-0.9381,-0.9618,-0.9822,-0.9822,-0.9822,-0.9863,-0.9978,-1.0205,-1.0371,-1.0399,-1.3673,-1.5269,-1.3451,-1.7082,-1.9285,-1.8506,-1.9158,-2.0068,-2.0982,-2.1109,-2.1109,-2.1109,-2.1109,-2.1109,-2.1109,-2.1109,-2.1109,-2.1109,-2.1109,-2.1109,-2.1109,-2.1109,-2.1109,0.0,0.0,0.0,0.0,0.0,0.0,0.8805,0.9307,0.0,0.0,0.0,0.0,0.0,0.0,0.0,0.0,0.0,0.0,0.0,0.0,0.0,0.0,0.0,0.0,0.0,0.0,0.0,0.5119,0.4928,0.337,0.0202,0.0,0.0,0.0,0.0,0.0,0.0,0.0,0.0,0.0,0.0,0.0,0.0,0.0,0.0,-0.0084,-0.2296,-0.3507,-0.3946,-0.3666,-0.4978,-0.7135,-0.7453,-0.7685,-0.7831,-0.7984,-0.8038,-0.8038,-0.8038,-0.8038,-0.8038,-0.8038,-0.8038,-0.8038,-0.8038,-0.8038,-0.8038,-0.8038,-0.8228,-0.8442,-0.8472,-0.8682,-0.8896,-0.893,-0.894,-0.894,-0.894,-0.9171,-0.9381,-0.9381,-0.9618,-0.9822,-0.9822,-0.9822,-0.9822,-0.9822,-1.0083,-1.028,-1.028,-1.335,-1.4879,-1.3193,-1.7731,-2.0068,-1.8378,-1.9941,-2.1109,-2.1109,-2.1109,-2.1109,-2.1109,-2.1109,-2.1109,-2.1109,-2.1109,-2.1109,-2.1109,-2.1109,-2.1109,-2.1109,-2.1109,-2.1109,0.0,0.0,0.0,0.0,0.0,0.0,0.0,0.8265,0.0,0.0,0.0,0.0,0.0,0.0,0.0,0.0,0.0,0.0,0.0,0.0,0.0,0.0,0.0,0.0,0.0,0.0,0.4637,0.3345,0.1882,0.0741,0.0067,0.0,0.0,0.0,0.0,0.0,0.0,0.0,0.0,0.0,0.0,0.0,0.0,0.0,0.0,-0.0,-0.0529,-0.2875,-0.6311,-0.4397,-0.4987,-0.7135,-0.7453,-0.7685,-0.7831,-0.7984,-0.8038,-0.8038,-0.8038,-0.8038,-0.8038,-0.8038,-0.8038,-0.8038,-0.8038,-0.8038,-0.8038,-0.8038,-0.8082,-0.818,-0.8421,-0.8526,-0.8632,-0.8879,-0.894,-0.894,-0.894,-0.9171,-0.9381,-0.9381,-0.9618,-0.9822,-0.9822,-0.9822,-0.9822,-0.9822,-1.0083,-1.028,-1.028,-1.233,-1.3193,-1.1372,-1.5913,-1.825,-1.656,-1.9285,-2.1109,-2.1109,-2.1109,-2.1109,-2.1109,-2.1109,-2.1109,-2.1109,-2.1109,-2.1109,-2.1109,-2.1109,-2.1109,-2.1109,-2.1109,-2.1109,0.0,0.0,0.0,0.9841,0.0,0.0,0.0,0.0,0.8961,0.0,0.0,0.0,0.0,0.0,0.0,0.0,0.0,0.0,0.0,0.0,0.0,0.0,0.0,0.0,0.0,0.0,0.4072,0.1571,0.0533,0.0,0.0,0.0,0.0,0.0,0.0,0.0,0.0,0.0,0.0,0.0,0.0,0.0,0.0,0.0,0.0,0.0,0.0,-0.2698,-0.6969,-0.5858,-0.6065,-0.7148,-0.7436,-0.7553,-0.7733,-0.7957,-0.8038,-0.8038,-0.8038,-0.8038,-0.8038,-0.8038,-0.8038,-0.8038,-0.8038,-0.8038,-0.8038,-0.8038,-0.8096,-0.8204,-0.8425,-0.8537,-0.8655,-0.8882,-0.894,-0.894,-0.894,-0.9171,-0.9381,-0.9381,-0.9618,-0.9822,-0.9822,-0.9822,-0.9822,-0.9822,-1.0015,-1.0195,-1.027,-1.276,-1.3475,-1.0972,-1.6172,-1.8768,-1.6172,-1.9158,-2.1109,-2.1109,-2.1109,-2.1109,-2.1109,-2.1109,-2.1109,-2.1109,-2.1109,-2.1109,-2.1109,-2.1109,-2.1109,-2.1109,-2.1109,-2.1109,0.0,0.0,0.0,0.0,0.0,1.0669,0.0,0.0,0.0,0.8406,0.0,0.0,0.0,0.0,0.0,0.0,0.0,0.0,0.0,0.0,0.0,0.0,0.0,0.0,0.0,0.0,0.3894,0.1208,0.0391,0.0,0.0,0.0,0.0,0.0,0.0,0.0,0.0,0.0,0.0,0.0,0.0,0.0,0.0,0.0,0.0,0.0,0.0,-0.2151,-0.5784,-0.669,-0.6863,-0.6511,-0.7131,-0.7513,-0.7638,-0.7933,-0.8038,-0.8038,-0.8038,-0.8038,-0.8038,-0.8038,-0.8038,-0.8038,-0.8038,-0.8038,-0.8038,-0.8038,-0.813,-0.8265,-0.8438,-0.8574,-0.8713,-0.8896,-0.894,-0.894,-0.894,-0.915,-0.9347,-0.9374,-0.9598,-0.9788,-0.9815,-0.9822,-0.9822,-0.9822,-0.9951,-1.0103,-1.0259,-1.2931,-1.362,-1.0965,-1.6302,-1.8896,-1.6177,-1.9158,-2.1109,-2.1109,-2.1109,-2.1109,-2.1109,-2.1109,-2.1109,-2.1109,-2.1109,-2.1109,-2.1109,-2.1109,-2.1109,-2.1109,-2.1109,-2.1109,0.0,0.0,0.0,0.0,1.1433,0.0,0.0,0.0,0.9017,0.8122,0.0,0.0,0.0,0.0,0.0,0.0,0.0,0.0,0.0,0.0,0.0,0.0,0.0,0.0,0.0,0.0,0.0,0.4513,0.1735,0.0,0.0,0.0,0.0,0.0,0.0,0.0,0.0,0.0,0.0,0.0,0.0,0.0,0.0,0.0,0.0,0.0,0.0,-0.0265,-0.1164,-0.5325,-0.586,-0.4216,-0.6551,-0.752,-0.7746,-0.7933,-0.8038,-0.8038,-0.8038,-0.8038,-0.8038,-0.8038,-0.8038,-0.8038,-0.8038,-0.8038,-0.8038,-0.8038,-0.8052,-0.813,-0.8408,-0.8496,-0.8581,-0.8869,-0.894,-0.894,-0.894,-0.9066,-0.9218,-0.9354,-0.9517,-0.9673,-0.9798,-0.9822,-0.9822,-0.9822,-0.9951,-1.0103,-1.0259,-1.0784,-1.0936,-1.0704,-1.4232,-1.6302,-1.5913,-1.9158,-2.1109,-2.1109,-2.1109,-2.1109,-2.1109,-2.1109,-2.1109,-2.1109,-2.1109,-2.1109,-2.1109,-2.1109,-2.1109,-2.1109,-2.1109,-2.1109,0.0,0.0,0.0,0.0,0.0,0.0,0.0,0.0,0.9247,0.0,0.0,0.0,0.0,0.0,0.0,0.0,0.0,0.0,0.0,0.0,0.0,0.0,0.0,0.0,0.0,0.0,0.0,0.0,0.0,0.1955,0.0128,0.0,0.0,0.0,0.0,0.0,0.0,0.0,0.0,0.0,0.0,0.0,0.0,0.0,0.0,0.0,0.0,0.0,-0.0179,-0.2158,-0.3236,-0.3599,-0.3233,-0.4982,-0.7739,-0.7952,-0.7977,-0.8038,-0.8038,-0.8038,-0.8038,-0.8038,-0.8038,-0.8038,-0.8038,-0.8038,-0.8038,-0.8038,-0.8038,-0.8109,-0.8404,-0.8482,-0.856,-0.8866,-0.894,-0.894,-0.894,-0.9052,-0.9198,-0.9351,-0.9503,-0.9656,-0.9795,-0.9822,-0.9822,-0.9822,-0.9876,-0.9971,-1.0127,-1.115,-1.1566,-1.0702,-1.3774,-1.5913,-1.5913,-1.7211,-1.8506,-1.9546,-1.9546,-2.0068,-2.1109,-2.1109,-2.1109,-2.1109,-2.1109,-2.1109,-2.1109,-2.1109,-2.1109,-2.1109,-2.1109,-2.1109,1.4176,0.0,0.0,0.0,0.0,0.0,0.0,0.0,0.0,0.0,0.0,0.0,0.0,0.0,0.0,0.0,0.0,0.0,0.0,0.0,0.0,0.0,0.0,0.0,0.0,0.0,0.0,0.0,0.0,0.0,0.1331,0.0449,0.0,0.0,0.0,0.0,0.0,0.0,0.0,0.0,0.0,0.0,0.0,0.0,0.0,0.0,0.0,0.0,0.0,0.0,-0.0989,-0.2433,-0.0729,-0.2693,-0.6771,-0.7691,-0.8031,-0.8038,-0.8038,-0.8038,-0.8038,-0.8038,-0.8038,-0.8038,-0.8038,-0.8038,-0.8038,-0.8038,-0.8038,-0.8109,-0.8404,-0.8482,-0.856,-0.8866,-0.894,-0.894,-0.894,-0.9022,-0.9137,-0.9289,-0.9442,-0.9595,-0.9737,-0.9795,-0.9822,-0.9822,-0.9822,-0.9876,-1.0029,-1.1298,-1.1714,-1.0603,-1.334,-1.5139,-1.5139,-1.5654,-1.6431,-1.7731,-1.825,-1.903,-2.0329,-2.0849,-2.1109,-2.1109,-2.1109,-2.1109,-2.1109,-2.1109,-2.1109,-2.1109,-2.1109,-2.1109,0.0,0.0,0.0,1.1949,0.0,0.0,0.0,0.0,1.0648,0.0,0.0,0.0,0.0,0.0,0.0,0.0,0.0,0.0,0.0,0.0,0.0,0.0,0.0,0.0,0.0,0.0,0.0,0.0,0.0,0.0,0.4326,0.1589,0.0,0.0,0.0,0.0,0.0,0.0,0.0,0.0,0.0,0.0,0.0,0.0,0.0,0.0,0.0,0.0,0.0,0.0,-0.009,-0.009,-0.0,-0.1655,-0.4474,-0.7006,-0.8031,-0.8038,-0.8038,-0.8038,-0.8038,-0.8038,-0.8038,-0.8038,-0.8038,-0.8038,-0.8038,-0.8038,-0.8038,-0.8109,-0.8404,-0.8482,-0.856,-0.8866,-0.894,-0.894,-0.894,-0.8944,-0.8988,-0.9133,-0.9286,-0.9439,-0.9591,-0.973,-0.9822,-0.9822,-0.9822,-0.9876,-1.0029,-1.0185,-1.0462,-1.0477,-1.218,-1.332,-1.332,-1.4879,-1.5913,-1.5913,-1.7597,-1.8506,-1.8634,-2.0195,-2.1109,-2.1109,-2.1109,-2.1109,-2.1109,-2.1109,-2.1109,-2.1109,-2.1109,-2.1109,0.0,0.0,1.4696,1.2888,0.0,0.0,0.0,0.0,0.0,0.0,0.0,0.0,0.0,0.0,0.0,0.0,0.0,0.0,0.0,0.0,0.0,0.0,0.0,0.0,0.0,0.0,0.0,0.0,0.0,0.0,0.0,0.3525,0.2034,0.0065,0.0,0.0,0.0,0.0,0.0,0.0,0.0,0.0,0.0,0.0,0.0,0.0,0.0,0.0,0.0,0.0,0.0,0.0,0.0,-0.1656,-0.429,-0.7022,-0.7955,-0.8038,-0.8038,-0.8038,-0.8038,-0.8038,-0.8038,-0.8038,-0.8038,-0.8038,-0.8038,-0.8038,-0.8038,-0.8012,-0.8317,-0.8387,-0.8564,-0.8886,-0.895,-0.894,-0.894,-0.894,-0.9011,-0.9256,-0.9347,-0.9459,-0.9707,-0.9788,-0.9822,-0.9822,-0.9822,-0.9839,-0.989,-1.012,-1.0297,-1.0348,-1.1087,-1.2022,-1.3193,-1.384,-1.4232,-1.4232,-1.4749,-1.6043,-1.8378,-1.903,-1.9935,-2.1109,-2.1109,-2.1109,-2.1109,-2.1109,-2.1109,-2.1109,-2.1109,-2.1109,1.6434,1.6057,0.0,0.0,1.3105,0.0,1.1641,0.0,0.0,0.0,0.0,0.0,0.0,0.0,0.0,0.0,0.0,0.0,0.0,0.0,0.0,0.0,0.0,0.0,0.0,0.0,0.4053,0.4271,0.0,0.0,0.0,0.0,0.2001,0.0065,0.0,0.0,0.0,0.0,0.0,0.0,0.0,0.0,0.0,0.0,0.0,0.0,0.0,0.0,0.0,0.0,0.0,0.0,0.0,-0.2211,-0.5641,-0.7367,-0.8014,-0.8038,-0.8038,-0.8038,-0.8038,-0.8038,-0.8038,-0.8038,-0.8038,-0.8038,-0.8038,-0.8038,-0.8045,-0.8022,-0.8223,-0.7858,-0.7703,-0.8669,-0.8846,-0.894,-0.894,-0.894,-0.9008,-0.9252,-0.9344,-0.9459,-0.9703,-0.9788,-0.9822,-0.9822,-0.9822,-0.9822,-0.9822,-1.009,-1.028,-1.028,-1.0544,-1.1111,-1.2281,-1.2413,-1.2413,-1.2413,-1.2931,-1.4362,-1.656,-1.7859,-1.903,-2.0195,-2.0722,-2.1109,-2.1109,-2.1109,-2.1109,-2.1109,-2.1109,-2.1109]}]]